GFSMW_sfc_dewp_000.txt.gz
Dewpoint
40 42 42 42 41 42 42 42 46 49 55 56 56 56 57 58 58 59 59 59 58 57 56 55 55 55 55 55 56 55 54 54 55 53 54 54 54 53 53 53 52 52 52
40 41 42 42 41 41 41 41 42 44 51 56 57 57 57 58 58 56 53 53 54 55 55 57 57 57 57 57 56 56 56 56 56 54 55 53 54 54 54 54 53 53 53
40 40 41 42 42 42 42 42 42 42 43 46 51 50 51 50 49 49 46 47 47 45 45 46 48 50 54 55 56 56 57 56 57 56 55 52 51 54 54 52 53 53 53
40 41 41 41 42 42 42 42 42 42 42 43 43 44 44 44 45 46 44 44 44 45 43 43 43 44 46 46 48 47 53 54 53 55 57 57 56 53 52 54 54 53 52
40 41 41 41 42 42 42 42 42 43 43 43 43 43 42 43 43 43 42 42 42 43 41 41 42 42 43 44 45 46 46 48 50 50 52 52 53 53 52 49 50 51 53
40 41 41 41 41 41 42 42 42 43 43 42 42 42 41 40 39 40 39 39 39 41 39 39 40 40 41 42 44 45 45 46 47 48 47 47 47 48 49 47 47 48 50
40 40 39 40 40 41 41 42 42 42 42 41 40 40 40 40 39 38 37 35 34 35 35 36 37 37 38 40 42 44 44 45 46 45 45 47 46 48 47 46 45 46 47
39 40 39 39 40 41 41 41 41 40 41 40 39 38 37 37 36 35 35 34 34 34 32 33 34 35 36 37 36 38 41 42 44 44 45 46 44 44 44 46 46 43 43
38 39 39 39 40 41 40 39 38 38 38 38 37 35 33 33 32 32 30 29 29 26 28 29 29 30 30 29 30 34 35 36 39 43 41 40 40 42 44 47 47 45 41
38 39 38 39 41 40 38 36 36 35 35 35 34 31 29 28 26 25 24 24 23 23 24 24 23 23 21 24 24 33 27 30 38 30 33 38 38 40 45 46 44 43 42
38 38 38 40 40 37 35 33 33 33 32 32 30 26 23 22 21 21 21 20 21 21 21 20 21 19 19 20 22 28 22 28 29 27 28 32 35 41 38 41 38 37 40
38 38 39 39 37 34 31 30 30 30 29 29 25 21 20 19 18 18 18 18 17 18 18 17 18 17 17 18 22 19 19 27 24 26 30 34 36 33 36 36 32 35 37
38 39 40 38 36 32 29 26 26 26 26 24 20 16 16 15 15 15 15 15 15 16 15 16 16 15 17 18 15 16 21 22 25 28 24 20 28 27 27 27 30 36 35
37 40 40 37 34 30 26 24 23 22 22 18 15 14 14 14 13 15 15 15 16 15 14 14 14 15 16 16 14 19 22 24 27 23 20 18 20 24 27 26 28 33 33
36 40 39 36 32 28 25 23 22 19 19 14 14 15 15 15 14 16 15 15 15 14 14 13 14 14 15 11 20 21 22 23 23 20 19 22 27 29 28 27 28 30 30
35 40 38 34 31 26 24 22 20 14 15 13 13 15 15 15 16 15 14 14 14 13 14 13 15 16 13 23 27 26 22 21 20 21 21 22 27 27 31 31 31 30 28
34 40 36 33 27 25 23 20 15 11 12 13 13 14 15 15 15 14 14 13 13 13 13 13 13 13 14 24 27 28 22 22 22 22 23 23 24 28 28 30 31 30 32
39 37 33 29 25 24 20 16 11 9 11 11 12 14 15 15 15 14 14 13 13 13 14 14 14 14 14 24 27 28 23 23 23 23 24 25 29 29 27 26 28 32 27
37 34 31 27 22 18 13 9 9 9 10 11 12 13 14 14 14 13 13 13 14 14 14 14 14 14 15 24 26 26 22 22 22 23 25 30 28 29 30 30 29 25 30
33 30 27 22 16 11 8 8 8 8 9 12 13 14 15 15 14 14 13 14 15 14 15 14 15 19 16 23 27 25 22 22 23 24 30 30 26 29 30 23 24 26 23
29 26 23 17 12 9 9 8 8 7 11 13 14 15 15 15 14 14 15 15 15 15 15 15 15 16 18 21 27 27 22 22 24 30 23 23 29 33 27 26 23 23 24
28 24 18 13 10 11 9 8 7 10 12 14 14 14 14 14 14 16 17 17 16 15 15 15 16 18 20 25 26 27 27 27 26 23 21 25 32 25 25 25 26 26 26
25 21 18 12 9 11 10 8 9 12 13 13 13 14 14 14 14 16 17 16 16 15 15 15 17 19 20 22 27 28 29 29 24 22 28 29 24 23 23 24 25 25 22
22 17 12 8 10 11 10 10 11 13 13 13 13 13 14 15 15 15 16 17 16 15 15 18 20 21 21 22 22 24 26 27 25 31 29 23 22 22 22 21 21 20 21
18 14 12 11 10 11 11 12 12 13 12 12 13 13 14 15 16 16 17 16 16 18 19 19 20 21 21 21 24 25 21 23 27 23 19 17 18 18 18 18 18 19 20
16 14 11 10 10 11 11 12 13 13 13 13 12 13 15 16 16 16 16 20 22 23 23 24 23 20 24 25 26 25 27 28 23 16 16 19 19 18 18 18 18 19 21

GFSMW_sfc_dewp_003.txt.gz
Dewpoint
41 42 42 42 42 42 43 45 50 54 57 58 58 58 56 53 51 48 47 46 46 46 48 48 47 48 50 51 52 54 55 55 56 56 55 55 56 56 56 56 55 55 55
40 41 42 42 42 42 42 43 44 47 54 58 58 58 52 49 47 46 45 45 42 42 41 42 42 43 44 44 46 47 47 47 49 53 54 52 51 53 56 56 56 56 56
40 41 41 42 42 42 43 43 44 45 45 47 47 47 47 47 46 44 43 43 42 40 40 40 40 41 42 42 44 45 45 45 45 47 48 48 46 49 48 53 55 56 55
41 41 42 42 42 43 45 45 45 45 45 46 45 45 44 42 43 42 41 39 39 38 36 38 38 39 40 40 42 41 44 44 44 45 43 47 48 45 44 43 48 49 52
41 41 42 43 43 44 44 44 44 44 44 43 44 42 41 41 39 38 36 36 35 36 32 33 35 35 37 39 41 41 42 44 44 44 45 45 47 46 46 44 43 45 45
41 41 42 42 42 44 45 44 43 42 42 41 41 40 39 35 34 33 30 30 29 31 27 29 30 31 32 33 35 37 41 41 42 43 44 44 44 43 44 43 42 42 42
40 40 41 41 42 43 43 42 42 40 39 38 36 36 35 33 29 27 25 23 21 25 24 26 24 26 28 28 29 33 37 37 39 41 43 42 38 38 40 41 41 42 42
40 40 41 41 42 42 41 40 39 38 37 34 31 29 29 27 24 23 21 19 19 21 22 22 22 22 21 20 23 27 35 29 34 40 36 35 32 35 37 41 42 40 38
40 40 40 41 41 40 39 37 36 36 36 31 26 23 21 20 19 19 18 18 17 14 18 20 20 20 18 18 20 21 25 24 25 34 31 31 31 37 40 42 43 40 37
39 39 39 41 40 37 36 35 34 33 31 26 21 17 16 16 16 15 15 15 15 16 17 17 17 18 16 16 17 20 21 19 23 26 27 30 32 35 40 37 38 38 35
39 39 40 41 37 34 33 32 31 30 28 22 16 14 13 13 12 11 13 14 14 15 15 14 15 14 14 14 15 16 16 18 23 26 27 29 28 27 29 34 33 32 30
39 39 40 37 32 30 29 29 28 27 25 18 13 12 12 11 10 10 11 12 12 14 13 13 13 12 13 14 14 14 17 20 22 24 27 24 20 23 24 27 28 29 30
39 39 39 35 31 28 26 25 24 24 19 13 11 10 11 10 10 11 11 12 12 13 12 12 12 12 13 14 14 15 19 21 22 22 24 21 20 23 24 26 27 30 28
38 39 38 34 30 27 24 22 20 20 15 12 11 11 11 12 12 13 13 13 13 12 12 12 11 13 13 14 13 19 21 21 21 21 22 21 22 22 26 27 29 27 29
38 39 38 33 29 25 23 21 18 16 13 11 11 12 13 14 14 14 14 13 14 13 12 12 12 13 13 8 20 22 22 22 21 21 21 22 25 29 28 26 28 29 29
38 40 37 33 29 25 23 21 16 12 13 11 11 14 13 14 15 14 14 14 14 12 12 12 13 15 10 22 26 26 23 22 22 22 22 22 26 27 31 31 31 29 29
37 40 37 33 28 25 23 19 11 11 10 11 11 13 14 14 15 14 13 13 13 13 12 11 12 11 12 23 27 28 23 23 22 21 22 22 22 28 30 31 30 34 31
36 39 34 30 26 24 20 14 10 9 10 11 11 13 15 14 14 14 13 13 13 13 12 12 12 12 13 24 26 28 23 22 21 21 22 23 26 30 27 26 34 25 24
38 37 32 26 24 20 15 10 9 8 9 11 12 13 14 14 13 13 12 13 13 13 13 12 13 12 13 23 26 26 22 20 21 21 22 27 27 27 29 33 25 23 24
34 31 26 22 17 11 8 8 7 7 8 11 13 14 15 14 12 13 13 13 14 13 14 13 13 17 14 22 26 25 21 20 22 23 27 28 24 28 33 23 22 24 23
29 25 22 17 12 9 9 8 7 7 11 13 14 14 14 13 13 13 14 14 14 14 14 13 13 14 17 20 26 27 21 22 25 29 24 21 28 35 27 25 21 23 24
28 22 17 13 11 11 9 7 6 10 13 14 14 13 12 12 13 15 16 16 15 14 14 13 14 17 18 24 25 26 27 27 26 24 22 25 34 26 24 22 24 25 24
26 22 18 13 11 11 9 7 9 12 13 13 11 11 11 12 13 15 15 15 14 15 14 14 16 19 20 21 26 27 28 29 24 24 32 25 23 23 21 22 23 23 21
24 20 15 10 11 11 10 10 11 12 12 11 10 11 11 14 13 14 15 15 15 15 15 17 18 20 20 22 22 23 25 25 29 32 20 19 20 22 21 19 19 20 21
22 17 13 13 11 10 10 11 11 12 10 10 10 11 12 13 15 15 15 15 16 18 18 18 19 20 21 20 24 24 20 25 27 20 16 15 19 19 17 17 18 19 20
18 16 13 11 10 10 10 11 12 12 11 10 10 11 14 15 15 15 15 20 22 23 23 23 22 21 24 25 25 24 26 26 23 17 14 18 19 18 17 17 18 19 20

GFSMW_sfc_dewp_006.txt.gz
Dewpoint
40 41 42 43 44 45 48 52 56 57 56 57 56 54 50 48 46 45 43 42 41 41 42 41 40 41 41 41 41 41 41 40 41 40 42 41 43 46 44 54 49 49 51
38 41 41 42 42 43 44 47 52 55 57 57 53 50 48 46 45 44 42 41 39 38 38 39 39 39 39 39 40 41 40 39 39 39 40 36 38 38 41 42 40 41 43
38 39 41 42 43 43 45 45 47 48 47 47 47 47 47 46 44 42 40 38 37 34 35 36 35 35 36 36 37 36 37 36 36 37 36 36 35 40 39 40 39 40 41
39 40 41 42 44 46 47 46 46 46 46 47 46 44 42 41 40 38 37 35 33 29 27 29 29 30 30 31 32 29 33 35 33 34 33 36 35 37 37 36 38 36 38
40 41 42 43 44 46 47 45 44 43 43 43 42 40 39 38 36 34 32 30 29 26 23 23 25 24 25 27 28 28 30 31 29 30 33 34 35 35 36 34 31 33 31
40 41 43 43 44 46 46 44 42 41 41 40 38 38 36 32 31 28 24 21 19 21 20 20 21 22 23 23 24 25 30 30 27 28 30 33 32 31 28 26 28 29 29
40 41 42 42 43 44 44 41 40 38 37 36 34 32 31 28 25 21 18 16 13 17 18 20 18 18 20 20 21 22 27 27 26 28 30 29 25 24 22 24 29 30 33
40 41 42 43 43 43 42 40 38 36 33 31 28 25 24 21 17 16 14 12 12 14 17 17 16 16 16 17 17 19 21 22 22 23 26 26 23 24 25 30 34 34 33
40 41 42 42 42 41 39 38 37 35 31 27 22 19 16 16 15 13 13 13 12 10 13 15 14 15 15 15 16 14 16 17 19 21 24 24 23 25 27 27 31 30 30
40 40 41 42 40 38 38 37 34 31 27 22 17 14 11 10 11 11 11 12 11 12 13 13 12 13 12 12 13 14 14 14 17 18 20 22 22 24 22 22 22 24 26
39 40 40 41 39 37 36 33 32 29 23 18 13 12 10 9 7 8 9 10 11 11 11 10 11 10 10 10 10 11 12 14 16 18 18 20 22 21 19 21 21 21 23
40 39 40 40 36 34 33 31 30 27 21 14 10 9 10 9 7 7 9 8 8 10 10 10 9 8 9 10 9 10 11 14 15 16 18 18 15 20 19 20 21 23 23
39 39 40 38 34 32 30 28 26 22 16 11 9 8 9 8 8 9 9 9 9 10 9 9 9 8 11 10 10 8 12 15 16 17 18 18 18 19 20 20 21 24 23
39 39 40 37 33 30 27 24 22 19 13 10 9 10 9 10 11 11 11 11 10 10 10 10 9 11 10 11 8 13 16 17 17 19 20 19 19 19 23 22 24 25 27
38 39 39 37 33 29 26 23 20 17 10 8 9 12 12 12 12 12 12 12 12 12 11 11 11 11 11 5 16 19 20 20 19 20 19 19 23 26 26 23 27 28 27
37 39 39 37 33 29 26 23 18 13 10 8 10 12 12 13 13 13 12 12 13 12 12 11 12 15 7 20 24 25 22 21 20 19 19 18 22 22 28 29 30 28 29
38 39 39 37 32 28 26 22 14 9 8 9 9 11 12 12 13 12 11 12 12 13 13 11 11 9 10 20 25 27 23 21 19 18 18 17 16 25 25 27 28 32 33
37 40 39 36 31 27 24 16 10 8 9 8 9 10 12 11 11 11 10 11 11 11 11 11 10 10 10 21 25 27 22 19 18 18 18 18 22 25 24 24 33 27 23
36 39 38 34 28 25 20 13 9 8 7 8 9 10 10 10 9 9 10 11 11 12 11 10 11 10 10 21 24 25 20 18 18 18 19 23 24 25 27 33 30 24 22
37 36 32 28 26 20 13 12 8 5 5 8 9 11 11 10 8 10 11 12 12 10 10 10 9 15 12 21 25 24 19 18 19 20 23 27 23 28 32 24 22 24 21
34 30 28 25 21 13 11 10 6 4 8 10 11 10 9 9 9 11 12 13 11 10 9 9 9 12 16 18 25 26 21 21 24 26 24 22 30 30 25 24 20 22 22
30 27 24 20 14 12 10 7 5 8 10 11 10 9 8 8 10 15 15 13 10 9 8 9 12 15 16 22 23 26 26 26 25 23 22 29 26 23 23 23 24 24 23
28 25 23 18 14 11 8 6 7 10 10 9 8 7 7 8 11 13 13 11 9 9 10 11 14 15 16 17 24 25 27 27 22 22 32 25 22 21 21 22 22 22 20
29 25 22 19 14 11 10 8 9 10 9 7 6 6 8 11 11 10 10 11 10 11 12 14 15 17 17 18 19 22 24 24 24 31 23 20 19 20 20 18 18 19 20
29 25 23 18 15 11 8 9 10 10 8 6 5 7 8 11 11 9 10 12 14 17 18 18 19 19 19 20 24 24 20 23 26 22 18 15 14 17 16 17 18 19 19
27 23 20 18 12 8 8 9 10 10 8 6 7 9 11 11 9 9 11 17 20 22 22 23 22 20 24 25 25 24 25 28 24 18 14 16 18 18 17 17 18 19 20

GFSMW_sfc_dewp_009.txt.gz
Dewpoint
40 41 43 43 45 49 52 54 54 56 56 57 55 52 49 48 46 44 42 40 39 38 40 40 39 40 40 39 38 38 38 39 38 38 39 38 40 36 40 38 38 41 42
38 40 41 41 41 44 49 51 55 56 54 52 51 49 47 45 44 43 40 37 35 35 35 35 35 35 36 35 35 35 35 34 35 34 35 33 33 34 35 36 37 36 41
37 39 40 42 43 43 46 47 48 49 49 50 49 47 47 46 42 40 38 36 32 28 28 29 28 29 32 33 33 32 33 33 33 33 28 30 28 32 35 33 34 31 31
37 39 40 42 44 46 47 46 46 46 46 46 45 44 41 39 38 37 35 33 30 25 22 23 25 25 26 27 30 25 30 33 31 31 24 28 28 30 28 29 31 29 25
38 39 41 43 45 47 47 45 44 43 43 42 41 39 38 37 35 33 31 27 26 24 21 20 22 22 24 25 26 28 28 31 28 27 28 27 30 28 25 23 24 24 24
39 40 42 44 45 46 45 45 41 40 39 39 38 37 36 33 32 29 25 22 20 21 20 20 20 21 22 23 25 27 29 29 28 26 25 23 24 24 22 20 22 23 27
39 40 41 42 44 44 43 40 39 37 36 35 34 33 33 30 27 23 20 17 15 17 18 19 17 18 22 22 23 24 25 24 26 26 23 22 23 24 22 22 24 25 28
39 40 41 43 44 43 41 39 37 35 33 31 29 27 27 24 20 18 16 14 13 14 15 16 15 14 15 16 18 21 22 22 23 26 25 23 24 23 23 25 26 26 24
40 40 42 43 43 42 40 39 36 33 30 28 25 21 19 19 18 15 14 14 12 9 12 14 14 14 14 14 16 15 17 18 19 22 24 22 21 24 24 26 26 23 21
39 40 41 42 41 40 39 38 35 32 28 24 21 18 14 13 12 12 12 12 10 11 12 12 11 11 11 11 14 15 16 15 17 17 19 20 20 21 23 24 23 23 22
39 40 40 41 40 39 38 36 33 29 25 21 18 16 12 11 10 9 10 9 9 9 10 9 9 9 9 10 11 12 13 13 15 18 19 20 20 20 20 22 22 23 23
39 39 40 41 39 38 36 34 33 28 24 18 14 13 13 12 11 9 9 7 8 8 9 9 9 9 9 11 10 11 11 11 14 17 18 19 16 22 22 21 22 22 22
39 38 40 40 37 36 34 32 30 26 19 16 13 12 13 13 11 10 9 9 9 9 9 10 10 10 13 12 11 10 9 14 16 18 19 19 20 21 22 22 21 23 22
39 38 40 39 37 35 33 30 27 22 18 14 12 13 13 12 12 12 11 10 10 10 11 11 11 13 12 13 13 11 15 17 18 20 21 20 20 20 22 22 24 24 27
38 38 40 38 36 34 31 28 24 20 15 12 12 14 13 13 12 13 13 11 12 12 13 12 14 14 14 10 16 18 19 21 21 20 20 20 24 26 24 20 24 26 27
37 38 40 39 36 33 30 27 23 19 14 11 11 12 12 12 12 13 12 12 13 13 13 14 16 20 12 22 23 23 21 21 21 20 19 19 24 22 26 28 29 27 26
36 38 39 39 37 33 30 25 20 15 12 11 10 10 11 11 12 11 10 12 12 13 14 14 14 13 12 22 23 25 21 22 20 19 18 18 16 23 24 28 29 30 31
37 39 39 39 36 32 28 23 15 13 12 11 9 10 10 9 10 9 10 10 11 12 13 13 12 12 11 21 23 25 22 21 20 18 19 19 21 25 25 24 31 33 27
37 39 40 37 33 29 24 17 15 13 10 9 8 8 8 8 8 8 9 10 12 13 12 11 12 11 9 20 23 24 21 20 19 19 20 21 23 26 31 29 28 19 19
38 39 37 32 30 26 20 18 15 11 7 8 8 8 9 8 7 8 10 12 13 12 10 11 9 14 10 20 24 23 21 20 20 21 24 27 24 29 31 23 18 20 21
36 34 32 30 27 20 18 17 11 7 8 9 8 8 8 7 7 9 12 15 13 11 10 9 8 9 14 17 24 25 21 21 22 25 22 21 27 30 26 24 18 21 22
32 31 29 25 19 17 17 12 9 8 9 9 8 8 7 6 10 17 18 16 12 10 8 8 9 14 14 21 22 25 26 25 23 21 20 25 31 24 23 21 23 24 23
30 28 26 20 18 16 14 10 9 8 8 8 7 7 6 8 11 16 16 13 10 8 9 9 12 15 17 18 24 25 26 26 21 21 26 30 23 22 20 21 22 22 19
29 27 24 21 18 14 11 8 9 8 8 7 6 5 7 11 11 11 12 11 9 10 11 14 17 19 19 20 20 21 23 24 24 28 25 21 20 20 20 18 18 18 18
31 28 26 24 19 14 10 9 9 8 8 6 5 7 9 10 12 11 10 9 11 14 16 18 19 20 19 20 24 23 20 22 26 23 18 16 15 16 16 16 17 18 18
31 28 26 22 18 13 9 8 9 9 8 6 7 10 11 12 11 10 11 17 19 20 21 21 20 19 23 24 25 24 25 27 24 18 15 16 17 17 16 16 17 18 20

GFSMW_sfc_dewp_012.txt.gz
Dewpoint
40 42 44 46 50 53 53 55 56 56 57 58 52 49 48 46 44 42 38 37 36 38 37 39 37 37 37 35 33 34 33 34 34 35 31 33 33 32 29 28 34 34 33
39 41 42 43 47 50 52 55 55 53 52 51 50 49 46 45 43 42 38 33 31 31 29 31 32 30 34 32 31 31 34 33 34 31 30 29 28 28 29 32 31 30 29
39 40 41 43 45 47 47 49 50 50 50 49 47 46 47 45 42 40 37 33 27 26 26 27 27 27 30 31 29 29 29 33 32 30 27 28 27 25 29 28 30 21 26
38 40 41 43 45 47 47 47 47 48 48 48 47 44 41 39 39 37 35 32 27 24 23 24 25 25 28 26 27 26 28 30 30 31 26 27 26 24 25 27 23 25 20
38 40 42 45 46 47 46 45 44 43 43 41 41 40 38 37 36 33 29 25 25 23 22 23 23 23 26 25 24 25 25 29 28 28 28 25 26 23 22 22 21 21 22
39 41 44 45 46 46 45 42 40 40 40 38 38 37 35 33 31 27 25 23 24 25 21 22 21 21 23 23 25 23 24 25 25 27 25 24 21 20 21 21 20 20 20
40 42 43 44 45 44 42 40 39 37 36 35 33 32 30 27 23 22 21 17 19 21 18 19 18 19 20 21 21 22 22 23 23 24 22 25 22 21 22 20 21 21 21
40 41 42 43 44 43 40 38 36 34 32 30 27 26 25 25 22 19 18 16 16 16 15 17 16 15 16 18 17 21 22 18 22 20 22 22 22 22 21 21 23 20 20
40 41 42 44 43 41 39 37 34 32 29 26 23 20 18 18 17 15 16 17 14 10 13 15 13 14 14 15 15 16 16 17 18 20 21 20 20 21 22 24 22 22 19
40 40 42 43 42 40 39 36 32 29 26 23 20 16 13 12 13 13 11 12 11 12 13 12 12 12 12 13 13 16 17 14 16 16 16 17 19 20 21 22 22 22 21
39 40 41 42 40 39 38 35 31 26 24 21 18 15 13 12 11 11 10 9 10 10 11 11 11 11 11 11 12 13 13 12 13 14 15 18 18 19 20 22 23 22 22
39 40 41 40 39 38 36 34 30 26 22 18 15 14 14 13 11 10 10 10 9 10 10 11 11 12 13 13 13 12 13 12 14 15 18 18 18 20 20 22 21 22 21
39 40 41 39 38 37 35 33 30 23 19 16 15 14 15 13 12 11 11 11 11 11 12 13 13 14 16 15 14 13 13 16 17 19 20 20 20 20 21 21 20 21 21
39 39 40 39 37 36 34 31 27 21 18 15 15 15 13 13 13 13 13 13 12 12 13 14 14 16 16 15 15 14 17 18 19 21 22 21 21 20 21 20 21 21 24
38 39 40 38 37 34 32 28 24 20 16 14 17 15 14 14 14 15 15 14 14 14 15 15 16 16 16 14 16 17 18 19 20 21 21 22 24 27 24 20 22 24 23
38 39 40 38 35 33 29 26 23 18 15 14 15 15 14 13 14 14 14 14 15 14 14 14 17 20 13 23 24 22 18 19 20 21 21 20 22 22 27 28 28 27 28
38 39 40 38 35 32 28 24 20 16 14 14 13 13 13 13 13 12 12 13 12 12 13 14 14 14 13 22 24 24 18 21 21 20 20 18 18 23 22 27 31 35 33
38 39 40 38 34 31 27 21 16 15 15 13 12 12 12 11 11 10 11 11 11 12 13 13 13 12 11 21 22 24 19 20 21 21 20 20 20 23 25 26 30 29 23
39 40 39 34 30 27 19 16 16 14 13 12 10 9 9 9 9 10 9 10 12 14 14 12 11 10 9 21 22 22 19 19 20 21 21 24 23 26 28 27 30 21 21
39 37 33 31 28 22 18 17 14 12 9 9 10 9 10 9 8 9 9 12 15 14 12 11 10 15 9 20 23 22 19 19 21 21 25 27 23 27 31 25 20 22 17
34 32 31 29 24 20 19 15 11 8 10 10 10 9 9 8 7 10 12 15 14 13 12 10 8 9 13 16 24 25 20 21 21 27 22 20 26 32 29 25 19 19 22
32 30 26 21 18 19 15 11 9 10 10 10 10 9 8 7 9 15 17 16 13 11 10 9 11 13 16 23 24 26 26 25 24 22 20 22 29 25 24 22 23 24 22
30 27 21 19 18 16 14 10 10 10 9 8 8 7 7 7 11 14 15 14 11 10 10 10 13 17 19 19 25 26 26 27 22 21 26 31 25 22 20 22 23 22 17
29 25 21 19 16 12 10 10 10 10 9 7 7 6 7 12 12 13 14 13 10 10 10 13 16 17 18 19 20 20 23 24 24 27 28 22 20 21 20 18 17 17 18
29 26 24 21 16 13 10 11 10 9 8 7 6 8 11 12 13 13 12 11 12 15 15 16 17 17 17 18 23 23 19 21 24 24 18 15 15 16 16 16 16 17 19
30 29 26 20 17 13 10 11 11 10 9 7 9 11 13 14 14 12 12 18 19 21 21 21 20 17 22 24 24 24 24 26 24 18 14 16 17 16 16 16 18 19 21

GFSMW_sfc_dewp_015.txt.gz
Dewpoint
41 43 45 50 52 53 54 55 56 57 53 50 47 45 45 40 38 35 33 32 33 32 31 33 31 33 33 30 29 31 31 32 33 33 25 32 32 28 21 24 29 29 30
41 43 44 48 50 52 53 53 52 52 51 50 48 46 43 41 39 37 30 27 26 27 26 28 28 28 31 28 28 28 30 32 32 29 30 27 26 24 23 26 21 27 22
40 40 43 46 47 48 49 50 49 48 47 46 44 44 44 42 39 36 32 26 24 25 25 25 25 27 29 28 26 27 27 30 31 29 25 25 25 22 27 19 26 17 23
40 41 42 44 46 47 48 48 49 48 47 45 44 43 40 38 37 36 32 27 22 22 23 24 24 25 27 24 25 25 26 27 27 29 27 26 25 24 21 25 19 24 20
40 41 43 45 46 45 44 43 43 43 43 43 41 39 37 36 35 30 27 24 22 21 22 22 22 22 25 22 22 22 22 25 25 26 27 23 25 23 22 18 20 21 21
40 43 45 46 45 43 41 40 39 38 38 39 38 36 33 29 27 24 23 23 24 23 20 20 19 19 21 21 22 21 20 20 23 22 24 22 19 20 18 16 17 19 18
42 44 44 44 43 41 40 38 36 35 34 32 30 28 25 23 21 20 18 17 18 19 16 18 16 17 18 19 19 19 18 19 19 20 21 21 23 22 18 20 19 17 19
42 44 44 44 42 40 38 36 34 32 30 28 26 24 22 22 20 18 17 16 15 15 14 15 14 14 14 16 16 19 19 17 20 17 18 19 23 21 21 20 20 20 17
42 43 44 43 42 39 37 34 32 29 26 23 20 18 18 17 16 14 15 15 13 12 12 13 12 12 13 14 14 15 16 16 17 19 20 20 17 19 22 23 23 21 19
41 42 43 43 41 38 36 33 30 27 24 20 16 14 12 13 13 12 10 10 10 11 11 11 11 12 12 13 13 16 17 15 17 16 16 17 17 19 20 22 24 23 21
40 42 43 42 40 38 34 31 28 24 20 18 14 12 13 12 11 10 10 9 10 10 11 11 12 12 13 13 14 14 14 14 15 16 17 19 19 20 21 22 22 23 23
40 42 42 41 39 37 34 29 26 23 20 17 14 14 14 12 11 10 10 11 10 11 11 12 13 13 14 14 14 14 15 15 16 18 20 20 20 22 22 22 22 22 21
41 41 41 39 38 36 32 29 25 21 17 16 15 15 13 12 11 11 11 12 12 12 13 14 15 15 17 17 16 15 15 16 18 20 21 21 21 22 22 22 21 21 21
40 41 39 38 38 35 33 30 23 19 16 16 16 14 13 13 12 13 14 14 14 13 14 15 15 17 17 17 17 16 17 18 19 22 22 21 22 22 22 21 21 21 22
39 40 39 38 37 34 32 26 20 17 16 16 16 15 15 14 14 15 15 14 14 14 16 15 16 17 17 13 17 18 19 19 20 21 21 22 24 27 25 21 21 22 23
39 40 39 37 36 33 29 22 19 16 16 17 16 16 15 13 14 14 14 13 14 14 13 14 16 18 13 23 24 22 18 18 20 21 20 21 24 23 27 28 29 28 26
38 40 39 37 34 30 25 20 16 15 15 14 15 14 14 13 13 12 11 12 11 12 13 13 14 14 14 23 24 24 17 19 21 20 21 20 20 24 23 27 29 31 33
39 40 39 35 32 27 23 17 15 15 16 14 13 13 13 11 11 10 10 10 10 12 14 14 14 12 11 22 23 25 19 19 20 21 21 21 22 26 24 22 26 31 27
39 39 35 31 27 22 17 15 15 15 14 12 11 10 10 9 9 9 9 9 12 15 14 13 12 12 10 21 24 23 19 18 19 21 22 25 24 26 26 26 30 26 24
35 31 29 24 19 16 16 14 13 13 11 10 11 10 10 9 8 8 8 11 14 14 14 13 12 15 10 22 25 24 20 20 20 22 26 27 23 25 31 25 22 21 17
31 29 26 21 18 17 15 14 11 9 11 11 10 10 9 8 7 9 12 15 15 14 13 11 10 11 14 19 25 26 21 20 24 26 22 21 26 33 26 25 17 18 22
30 26 23 20 19 18 13 10 9 11 11 11 10 9 8 7 9 14 15 15 14 12 10 10 11 14 17 23 24 26 26 26 23 22 21 23 32 24 23 21 24 24 22
25 22 19 18 17 13 11 10 10 11 10 9 8 7 6 7 12 13 14 14 12 11 11 11 12 16 17 19 24 26 27 26 21 23 27 28 23 22 20 22 23 22 17
23 20 18 16 13 12 11 10 10 10 9 7 6 6 9 14 12 13 14 13 12 12 12 14 16 17 17 18 19 19 21 23 25 28 22 20 19 21 20 18 17 17 19
24 21 19 16 13 10 10 10 10 9 8 6 6 10 12 13 14 14 13 14 14 17 16 17 17 16 17 17 22 22 19 22 24 21 16 14 15 16 15 16 17 18 19
27 25 21 17 14 10 11 11 11 10 8 8 10 12 14 14 14 13 14 18 20 21 21 21 20 17 22 23 23 24 25 25 23 17 14 15 17 17 16 16 18 19 20

GFSMW_sfc_dewp_018.txt.gz
Dewpoint
41 42 45 49 52 53 55 55 56 50 48 46 44 43 39 36 34 32 30 30 29 29 30 30 30 32 29 28 26 29 29 30 32 29 28 30 30 21 16 24 22 26 20
41 43 48 51 53 54 55 55 54 51 49 47 45 42 39 37 34 30 26 25 26 26 26 27 28 28 27 25 25 26 27 30 31 27 29 25 26 23 17 24 20 20 18
41 43 48 49 51 51 51 51 50 48 47 44 41 39 37 37 34 30 26 24 23 25 25 25 25 26 26 25 25 25 25 26 28 27 23 21 22 21 25 19 22 17 22
41 43 46 48 49 48 49 48 48 46 44 43 39 36 35 34 36 32 27 23 21 23 23 23 23 23 25 22 23 23 24 24 23 27 25 25 24 20 20 23 19 21 17
41 44 46 47 47 47 47 47 46 45 45 44 41 39 37 36 34 29 24 20 20 21 21 21 21 21 23 21 20 21 19 23 23 24 25 23 24 23 24 18 17 16 19
41 43 45 45 44 43 42 43 43 42 42 41 38 36 34 30 28 26 24 23 22 22 19 19 18 18 19 20 21 19 18 19 20 20 21 21 19 16 19 15 13 14 17
41 44 44 43 41 40 39 38 39 37 37 35 34 31 27 23 20 19 20 18 17 17 16 17 15 16 16 18 18 17 17 18 17 18 18 20 20 22 21 16 15 16 17
42 44 43 42 40 38 37 35 34 32 30 29 26 22 21 22 20 17 17 16 15 15 14 14 13 12 14 15 15 18 18 16 18 16 17 19 21 21 19 18 19 18 17
43 43 43 41 39 37 35 33 31 28 26 23 21 19 18 18 17 15 14 14 13 12 12 12 12 12 13 13 14 15 15 16 17 18 18 18 19 21 20 21 22 21 19
43 43 42 41 39 37 34 31 28 25 21 19 16 15 14 14 13 12 10 10 10 10 11 11 12 12 13 14 13 16 17 16 17 17 17 18 20 20 21 22 23 23 21
43 43 42 41 38 35 32 29 26 22 18 15 13 12 12 12 11 10 10 9 10 10 11 12 13 13 14 14 14 15 16 15 16 17 19 20 21 21 21 23 23 23 23
42 43 42 40 37 33 30 27 24 20 17 14 13 14 13 12 10 10 10 11 10 11 12 13 14 14 15 15 15 16 16 16 15 18 20 21 20 21 22 23 23 23 22
42 42 41 39 36 33 29 25 22 19 16 15 15 14 13 12 11 11 12 12 12 12 13 14 15 15 17 17 17 17 16 16 17 19 20 22 21 21 22 22 22 23 22
41 42 40 38 36 32 28 24 20 17 16 16 15 14 13 12 12 13 14 14 13 13 14 15 15 17 17 17 17 17 18 18 19 21 22 22 21 21 23 22 22 22 22
41 41 39 38 35 32 28 23 18 16 16 16 16 15 15 14 14 14 14 14 14 14 14 14 16 17 16 12 19 19 19 19 19 20 21 22 23 27 26 22 23 23 25
40 40 39 37 35 32 27 20 17 16 17 17 17 17 15 14 15 14 13 12 13 12 13 14 16 18 13 23 25 23 19 18 18 19 20 21 24 24 28 28 29 27 23
40 39 38 37 35 31 23 18 15 17 16 17 16 15 14 13 13 12 11 11 10 12 14 14 14 14 13 23 25 26 20 19 20 20 20 20 20 26 25 28 27 27 31
40 40 38 36 33 27 21 16 15 15 16 16 14 14 14 12 11 10 9 9 10 12 14 14 14 13 11 23 25 27 21 20 20 20 21 21 24 25 22 21 27 30 25
40 39 37 32 26 21 16 14 15 15 15 13 13 11 10 9 9 8 8 8 11 14 14 14 13 11 12 22 25 25 21 21 21 21 22 25 23 25 27 29 26 22 19
35 32 28 24 20 16 15 14 14 13 12 12 11 10 11 9 7 7 8 11 14 14 14 12 11 16 12 21 25 24 20 20 21 22 26 27 23 28 31 21 19 18 16
26 25 23 19 16 15 14 13 12 11 12 12 11 10 9 8 7 9 12 14 14 13 12 11 11 11 14 17 25 26 21 21 24 26 21 21 28 28 25 24 17 19 22
25 22 19 17 17 15 13 11 10 11 11 11 10 9 7 7 11 14 15 15 13 11 11 11 12 14 15 23 24 25 26 26 21 21 22 26 27 24 23 21 24 25 23
23 21 19 17 14 12 11 10 10 11 11 9 8 6 6 10 12 14 14 14 12 12 13 13 14 16 17 18 24 25 26 24 22 24 26 26 23 22 20 22 23 22 17
21 19 17 15 12 11 11 10 11 11 8 7 5 7 11 14 13 14 13 14 14 14 14 16 16 17 17 18 18 19 19 23 25 25 21 20 19 21 20 18 17 17 18
20 18 16 14 12 11 10 11 10 9 7 5 7 10 12 14 14 13 14 16 16 17 17 17 17 17 17 18 22 21 19 21 22 21 16 14 14 16 15 16 16 17 18
21 19 16 13 11 10 10 11 11 9 7 7 10 12 15 14 13 14 14 19 20 21 21 21 19 18 22 23 23 24 24 24 23 16 14 15 16 16 16 16 17 18 19

GFSMW_sfc_dewp_021.txt.gz
Dewpoint
38 41 43 45 49 52 52 49 54 49 47 45 43 42 38 35 33 31 29 28 28 28 28 30 29 28 27 25 24 26 27 28 30 27 26 28 28 22 18 25 20 22 18
40 41 44 49 52 53 54 54 50 48 48 46 42 40 36 32 29 28 25 26 26 26 25 28 27 26 25 24 24 24 25 27 29 26 27 22 22 23 16 22 22 19 21
39 41 47 50 52 53 53 52 50 48 46 41 38 34 31 29 28 25 25 24 24 25 25 25 25 25 25 24 23 24 22 23 24 26 18 15 18 22 22 16 22 16 21
39 42 48 50 51 52 52 50 48 45 42 40 37 33 32 29 31 27 23 22 22 23 24 23 22 23 23 21 21 22 22 22 22 25 22 23 23 19 18 21 16 20 15
40 43 48 50 50 50 49 48 46 44 42 40 37 36 34 33 31 24 21 19 20 21 21 20 20 21 23 20 19 19 18 22 21 22 23 22 22 22 22 14 18 16 14
40 44 48 48 47 47 47 46 45 44 42 40 38 35 33 29 26 24 22 21 21 21 18 18 18 17 19 19 19 17 16 17 18 18 19 19 17 17 17 16 14 13 13
42 45 46 46 45 45 44 44 44 41 39 37 35 33 30 27 24 23 23 19 17 17 15 16 14 15 16 17 17 17 16 17 16 16 17 19 19 20 21 17 16 15 15
42 45 46 46 44 42 42 42 41 37 35 33 30 26 23 24 21 20 18 16 15 15 14 13 12 12 13 14 14 17 18 16 18 15 17 18 19 20 19 19 19 17 16
42 45 45 43 41 39 38 38 36 32 30 26 23 20 20 19 17 15 15 15 14 12 12 11 11 12 13 14 14 15 15 16 17 18 18 17 19 21 22 23 22 21 19
42 44 43 40 39 36 33 32 31 28 23 20 18 17 15 14 14 13 11 11 10 11 11 11 12 13 14 14 14 16 17 16 17 18 17 18 20 21 23 23 23 23 22
42 43 41 39 36 33 31 28 24 21 18 16 15 14 13 12 11 10 10 10 10 10 11 13 13 14 14 15 15 15 16 16 17 16 18 20 21 22 21 22 23 23 23
43 42 40 37 34 32 29 25 21 18 16 14 13 13 13 11 10 10 10 11 10 12 12 14 14 14 16 16 16 16 16 17 17 17 19 20 19 22 22 22 22 23 23
42 41 39 36 33 30 27 23 19 16 14 14 14 13 12 12 11 11 12 12 12 12 14 14 15 15 17 17 16 16 17 17 18 19 19 20 21 21 22 22 22 23 23
42 41 39 36 33 30 26 21 18 15 15 15 14 14 13 12 12 13 13 14 13 13 14 14 15 17 17 16 16 18 19 19 19 20 21 21 21 21 22 23 23 25 22
42 40 38 36 32 28 24 20 17 16 16 15 16 15 14 14 15 15 14 14 14 13 13 14 16 17 15 11 20 21 21 20 19 19 20 21 24 27 25 22 22 21 23
41 40 39 36 32 28 23 18 16 16 16 16 17 17 16 15 15 14 13 12 12 12 14 15 16 16 12 22 26 25 23 20 19 20 20 20 24 24 28 28 28 26 23
41 40 38 36 32 27 21 17 16 17 16 17 17 16 15 14 13 11 11 10 10 13 14 14 14 13 13 22 26 27 23 21 21 20 20 20 20 25 25 28 28 31 32
41 40 38 36 32 25 20 16 16 16 17 17 15 15 15 12 11 10 8 8 11 13 14 14 13 12 11 24 25 27 22 21 21 21 21 21 22 26 24 24 30 24 20
41 39 38 33 27 21 17 16 16 16 16 15 14 12 11 10 9 8 7 9 12 14 14 13 12 11 12 23 25 25 21 20 21 21 21 23 25 26 28 28 22 19 18
38 35 30 26 21 17 15 15 14 14 13 13 12 11 11 8 7 7 10 12 14 13 13 11 12 16 13 22 25 24 20 20 21 23 26 27 23 27 30 20 19 18 16
29 27 26 22 17 15 15 14 13 13 13 12 11 10 9 7 7 11 13 14 13 12 12 12 13 13 15 19 25 26 21 21 22 20 20 22 28 28 25 24 18 19 24
24 22 19 16 15 15 14 13 12 12 12 12 11 9 7 9 13 14 15 14 12 12 13 13 14 16 16 23 23 25 26 25 19 22 22 23 27 24 23 22 24 25 23
21 20 17 15 13 13 13 11 11 12 11 9 7 6 11 12 13 14 14 13 14 14 14 14 15 17 17 18 24 25 26 24 23 23 24 25 23 22 20 22 24 22 17
20 17 15 13 12 12 12 11 12 11 8 6 6 11 15 13 13 13 13 15 15 15 15 16 16 17 17 18 19 20 20 24 22 23 20 20 19 20 20 18 17 16 17
19 18 15 13 12 11 10 11 10 8 6 6 9 12 13 14 13 13 14 17 17 18 18 18 18 17 17 18 22 22 20 21 22 21 16 14 14 15 15 15 16 17 17
18 16 14 13 11 10 10 10 10 8 7 8 10 16 14 14 13 14 15 18 20 21 21 21 19 18 21 23 24 24 24 24 23 17 14 15 15 15 15 15 16 17 18

GFSMW_sfc_dewp_024.txt.gz
Dewpoint
40 39 40 43 46 49 49 55 56 50 49 46 44 43 40 37 33 31 29 28 28 28 29 29 26 26 25 23 22 23 23 26 28 23 24 26 26 26 22 22 19 21 19
38 39 42 45 49 51 51 53 52 49 49 48 43 48 37 32 29 29 26 26 25 26 26 26 25 23 24 22 22 21 22 23 27 21 25 19 18 20 16 21 20 18 21
40 39 41 46 50 51 52 52 49 48 46 41 37 35 31 27 27 25 25 25 24 25 25 24 24 23 24 24 23 21 20 20 22 26 16 12 13 22 21 18 23 16 20
39 39 41 48 50 51 52 50 48 46 42 40 37 34 34 27 27 24 24 23 23 23 23 23 22 22 23 20 21 20 21 20 20 22 21 21 22 17 16 19 16 19 15
40 39 43 47 50 51 50 49 46 44 41 39 37 36 32 28 25 22 20 20 20 21 21 20 20 21 23 19 18 18 17 21 19 20 21 20 21 20 21 14 17 15 15
39 40 44 50 50 50 48 46 44 42 40 38 36 34 28 23 22 21 20 21 21 21 18 18 18 18 19 18 18 17 16 17 16 18 17 18 15 16 17 15 15 15 15
39 44 47 49 48 48 47 45 44 41 39 37 36 31 26 22 20 20 20 18 17 18 15 14 14 15 16 17 17 16 15 16 16 16 16 18 18 19 20 18 17 16 16
40 44 47 49 49 48 46 45 43 40 38 35 32 29 26 25 23 22 19 17 16 16 14 13 12 13 14 15 15 18 17 16 17 15 16 18 19 19 19 19 19 17 15
41 44 48 49 48 46 45 44 41 37 34 30 27 24 23 22 20 16 16 16 15 13 12 12 12 13 14 14 14 15 16 16 17 17 18 18 19 20 22 22 22 20 17
41 44 47 46 45 44 40 39 37 33 27 24 22 20 17 15 15 14 13 12 11 12 12 12 13 14 14 15 15 16 17 16 17 18 17 17 19 20 22 23 23 23 21
41 45 45 42 38 37 36 33 29 25 21 19 16 15 14 13 11 11 11 11 11 11 12 13 14 14 15 15 15 15 16 16 17 18 18 19 20 21 22 23 23 22 23
43 44 41 37 36 33 31 29 25 21 18 15 14 13 12 11 10 10 11 11 11 13 13 14 14 14 16 16 15 15 16 17 18 18 19 19 18 21 22 22 22 22 23
41 39 37 36 33 30 26 23 20 16 15 14 13 13 12 11 11 11 12 12 13 13 14 14 15 15 17 15 15 15 17 18 19 19 20 20 20 21 21 22 22 23 23
41 40 37 34 31 27 23 19 15 14 14 14 13 13 13 12 13 14 13 14 14 13 13 14 15 16 15 14 14 19 20 20 20 20 21 20 21 21 22 22 23 22 21
40 38 36 32 29 24 20 17 15 15 14 14 15 15 15 15 15 15 14 14 13 13 15 14 15 15 14 11 21 23 22 21 20 21 20 21 23 27 26 22 22 22 22
41 38 35 32 28 23 19 16 15 15 15 16 17 16 16 16 15 14 13 12 13 14 15 14 15 15 12 22 25 25 23 22 21 20 21 21 24 24 28 28 28 27 27
41 38 35 32 28 23 18 16 15 16 16 17 17 16 16 15 14 12 11 11 12 13 14 14 13 12 12 23 26 26 23 22 21 21 21 21 21 25 23 28 29 31 29
41 39 36 32 27 21 18 16 16 17 17 17 16 16 15 13 12 9 9 10 12 13 14 13 12 12 12 24 25 26 22 22 21 21 21 21 21 23 25 24 31 24 21
41 39 36 31 24 19 17 16 17 17 17 15 15 13 12 10 9 8 9 11 13 13 13 12 12 12 14 24 25 25 22 21 20 21 21 22 23 26 28 28 24 20 19
39 36 31 26 20 17 16 16 16 15 15 14 13 12 11 9 7 9 11 13 13 12 12 12 13 18 14 23 25 24 21 20 20 21 22 25 24 27 31 21 19 19 17
32 29 27 23 18 16 16 15 14 14 14 13 12 11 9 8 10 12 13 13 12 12 12 13 15 15 17 20 25 25 21 21 21 20 21 23 27 27 25 25 18 19 24
27 23 20 17 16 16 15 14 13 13 12 12 10 8 9 12 14 14 14 13 13 13 14 15 16 16 17 23 24 25 26 25 20 21 22 21 26 25 24 22 25 26 23
22 20 17 15 15 15 14 12 12 12 10 8 7 10 12 13 14 13 13 14 14 14 15 16 16 17 17 18 24 25 26 25 23 21 24 25 24 22 20 22 24 23 17
19 18 16 14 13 12 12 11 11 10 7 6 10 15 13 13 13 13 14 16 15 15 16 17 17 18 17 18 19 20 21 25 22 24 21 21 20 20 20 17 17 16 16
18 17 15 14 12 11 11 10 9 7 6 9 11 13 14 13 13 14 14 17 17 18 18 18 18 17 17 18 22 22 21 21 22 21 16 14 14 15 14 15 15 16 16
17 15 13 12 11 10 10 9 9 8 8 9 14 15 14 14 14 14 15 18 19 21 21 20 19 18 21 23 24 24 24 24 24 17 14 14 15 15 14 15 15 16 18

GFSMW_sfc_dewp_027.txt.gz
Dewpoint
42 43 43 42 43 46 49 52 59 61 56 52 51 50 47 44 43 35 32 31 33 29 29 28 26 26 24 23 21 24 22 24 24 21 22 24 25 28 27 20 21 23 22
41 42 41 42 44 46 49 55 58 56 55 54 52 52 49 42 35 33 33 32 29 28 26 26 25 25 24 23 22 22 23 23 25 19 22 18 16 20 16 21 21 20 20
37 41 41 42 46 48 51 54 54 53 51 48 43 41 41 38 29 28 32 31 27 27 25 25 24 25 26 24 24 24 23 20 23 23 13 15 13 18 20 18 20 17 17
35 39 41 43 46 50 53 53 51 50 46 46 44 44 43 39 30 30 27 26 25 25 24 24 24 24 24 24 22 21 23 22 20 22 18 19 18 14 12 18 17 18 14
37 39 41 43 46 52 54 52 50 47 44 45 45 48 47 38 26 24 22 22 23 23 23 23 23 22 22 21 20 20 21 21 18 20 20 19 19 18 17 11 14 15 16
38 40 42 44 48 53 53 50 48 45 43 43 45 43 40 25 23 22 21 20 21 21 21 21 21 21 21 21 21 21 21 20 19 18 18 16 14 12 14 13 14 15 15
36 40 43 47 50 52 51 48 47 43 41 40 39 35 28 23 22 21 21 20 18 19 18 18 17 18 21 21 21 20 20 20 19 19 17 17 17 17 17 17 17 16 17
38 40 44 47 49 51 49 47 45 41 40 39 35 29 26 24 22 22 20 18 18 17 16 16 16 16 17 17 18 20 20 20 20 19 19 18 18 19 18 19 19 18 14
38 41 45 48 50 50 49 47 44 41 39 35 30 26 26 26 24 20 19 18 16 14 15 15 15 16 17 17 17 17 17 18 19 20 20 19 19 20 20 21 21 19 16
36 42 46 48 50 50 47 45 42 39 35 30 27 24 22 21 19 18 16 16 14 14 14 15 15 16 16 16 17 17 18 17 19 19 19 19 20 20 21 22 22 22 20
37 42 46 48 48 45 44 40 37 33 28 25 21 20 18 16 15 14 13 13 13 14 14 15 15 15 15 16 15 15 17 17 19 20 20 20 21 20 21 22 22 22 21
40 45 45 42 42 41 38 36 32 27 24 20 18 16 15 14 12 11 12 12 12 14 14 14 14 15 16 15 13 14 17 19 20 20 20 20 19 22 21 21 21 21 22
41 40 40 40 39 38 33 30 26 20 17 16 15 14 13 12 11 12 12 13 14 14 14 15 15 14 15 14 13 16 19 21 21 21 21 21 20 20 20 21 22 23 22
39 38 37 36 33 31 28 23 19 17 16 15 14 14 13 13 13 13 13 14 13 14 15 15 15 15 13 13 15 21 22 22 22 22 22 21 20 21 23 23 24 24 24
40 38 35 32 28 25 22 19 16 15 14 15 16 15 15 15 15 15 15 14 14 15 15 14 15 14 13 10 21 24 24 23 23 22 21 21 24 28 27 23 24 23 24
41 38 34 30 26 23 20 18 15 15 16 16 16 16 16 15 16 15 13 15 16 15 14 14 15 15 10 22 26 26 23 23 22 21 21 21 24 25 28 28 28 27 26
40 36 32 29 25 21 19 19 15 16 16 16 16 16 15 14 14 12 12 14 14 14 14 13 12 12 13 23 26 26 23 22 22 21 21 20 21 25 23 27 29 30 33
39 36 32 27 22 19 17 16 16 17 17 17 16 16 14 13 11 10 12 12 13 14 13 12 12 13 14 24 25 26 23 22 22 22 21 21 22 23 25 24 31 29 21
39 36 31 25 21 18 16 16 17 17 17 16 15 13 11 10 9 11 11 12 13 13 12 12 13 14 17 24 25 25 22 21 21 21 22 22 21 26 27 28 26 20 19
38 33 28 23 19 17 16 16 16 16 15 15 13 12 11 8 9 12 13 13 13 11 11 12 14 18 15 22 25 24 21 21 21 21 20 24 24 27 29 23 21 21 17
33 28 25 22 18 17 17 16 16 15 14 13 11 10 9 10 12 13 13 12 12 12 13 14 16 16 18 19 25 25 21 21 21 20 20 21 26 28 26 25 19 19 25
27 24 21 18 17 17 16 15 14 13 12 11 9 9 12 13 14 15 14 13 13 13 14 16 16 17 17 22 23 25 25 25 21 21 20 21 26 25 24 22 24 26 24
22 20 18 16 16 16 15 13 12 11 10 8 11 12 13 13 14 14 15 13 14 14 16 16 17 16 17 18 24 25 26 25 23 21 24 25 24 22 20 22 24 23 16
19 18 17 15 13 13 13 12 11 9 8 10 12 13 13 13 13 13 15 15 15 16 16 17 17 17 17 18 18 20 21 24 22 24 23 21 20 20 20 17 16 15 16
19 17 15 14 12 12 11 10 9 8 9 12 14 15 15 13 13 14 15 17 17 18 18 18 17 17 17 17 22 22 21 22 22 22 17 13 13 14 14 14 15 16 16
16 15 14 12 11 10 9 8 9 10 11 12 13 14 14 14 14 14 14 18 19 20 20 20 19 17 21 23 24 24 24 24 24 18 13 14 14 14 14 14 15 16 19

GFSMW_sfc_dewp_030.txt.gz
Dewpoint
37 40 42 43 44 44 45 45 48 53 57 59 61 62 59 57 53 51 47 41 39 35 33 30 28 28 27 25 22 23 24 25 23 23 23 25 24 25 27 26 20 23 21
32 35 39 41 42 43 44 46 50 54 58 59 58 59 57 54 50 47 45 40 36 32 32 30 28 27 27 25 24 25 25 24 23 20 24 21 18 20 22 21 20 16 19
28 30 33 38 42 43 45 47 51 57 58 57 57 53 46 42 40 40 42 37 33 28 28 30 27 28 28 27 26 25 23 23 24 21 14 17 18 16 18 19 16 17 16
30 30 31 33 38 43 49 50 54 56 57 57 52 50 50 45 44 39 37 34 31 32 27 27 26 27 26 26 24 21 23 22 22 23 16 17 15 15 14 17 16 16 14
27 28 32 34 36 44 50 52 54 55 55 53 53 53 52 48 42 37 32 27 26 27 25 25 25 24 24 23 22 23 21 21 18 21 20 18 19 16 16 14 14 15 16
29 31 33 36 37 44 52 53 53 53 53 54 53 54 52 42 35 28 29 28 27 26 24 24 24 23 23 23 22 22 22 21 20 19 18 15 14 11 12 12 13 14 16
27 28 33 39 41 44 52 53 52 51 51 52 52 52 46 44 34 28 28 24 23 23 23 22 21 21 23 22 22 22 22 22 20 21 16 16 16 15 15 15 16 15 16
37 31 32 38 42 47 51 52 51 49 50 51 51 46 41 38 28 25 24 22 23 22 22 20 19 18 18 19 20 21 22 22 21 21 20 18 17 17 17 18 18 16 15
40 37 35 38 42 47 50 51 50 49 48 48 42 34 30 29 28 27 24 23 21 18 18 18 17 17 18 17 18 17 18 18 19 20 21 20 19 20 20 20 20 19 16
41 40 37 39 44 47 50 51 49 47 47 44 39 32 27 27 29 22 22 22 17 17 17 17 16 16 16 16 18 18 18 16 18 18 20 20 19 20 20 21 20 20 19
42 41 38 42 47 49 51 49 47 45 42 38 33 29 26 23 26 21 20 18 17 16 15 15 15 15 15 16 15 14 15 16 18 20 20 20 21 20 19 20 20 20 19
42 43 43 45 48 49 48 47 44 41 38 32 29 23 21 20 19 17 17 16 15 15 14 13 13 13 15 13 11 12 16 18 19 20 21 20 18 20 19 18 19 19 20
42 42 43 44 46 47 45 43 40 34 29 27 22 19 19 18 17 16 15 14 14 14 13 14 14 13 14 12 11 14 17 20 20 21 21 20 18 19 19 20 20 22 20
42 41 42 43 44 44 42 38 31 28 26 20 19 19 18 18 17 16 15 15 14 14 15 14 14 14 12 12 14 18 21 21 21 22 22 21 19 19 22 22 23 20 22
42 40 40 40 41 38 33 28 24 21 19 18 19 19 18 17 16 16 15 14 14 15 15 14 14 14 12 9 20 22 22 22 21 20 20 20 22 26 27 23 22 22 23
40 41 38 38 36 31 25 21 18 18 25 22 19 19 17 17 17 16 15 16 17 16 15 14 17 18 9 20 25 26 22 21 20 19 18 19 22 22 27 27 28 27 27
41 41 37 36 31 26 21 18 21 22 22 20 18 17 17 16 16 14 14 17 16 16 15 13 13 12 13 21 25 26 22 21 19 19 19 18 18 23 20 24 27 29 31
42 40 36 30 27 25 21 22 21 21 19 18 17 16 16 14 13 12 14 15 15 15 13 13 12 13 13 22 25 26 22 20 20 20 20 20 20 21 22 22 30 30 22
42 37 32 24 23 23 18 18 18 18 18 17 16 14 13 11 11 13 14 14 15 14 13 12 13 13 13 20 25 25 20 18 19 19 19 20 20 24 27 28 29 19 18
37 33 29 26 24 20 19 18 17 17 16 16 14 12 11 10 11 14 15 14 13 12 11 12 13 15 13 18 24 24 19 18 18 18 18 23 22 26 27 23 20 21 16
31 28 26 23 19 18 18 17 17 16 15 14 12 11 10 11 14 15 14 14 12 12 11 12 13 13 14 16 23 25 21 19 19 19 17 18 24 27 26 26 19 18 23
29 25 22 19 18 18 17 16 16 14 13 12 10 10 12 13 16 18 16 14 13 12 11 12 11 12 13 17 20 24 25 25 20 19 18 20 26 26 25 23 23 25 25
26 24 22 19 18 18 16 14 13 12 11 10 12 13 14 15 17 17 17 14 13 11 11 11 11 11 13 14 20 23 24 24 22 21 23 26 24 23 20 21 24 23 17
22 21 20 18 17 16 15 13 12 10 10 11 12 13 14 14 14 14 15 14 12 11 12 12 12 13 13 13 15 18 19 22 22 24 23 21 20 19 19 16 16 16 17
21 20 18 17 15 14 12 11 10 11 11 11 13 15 15 14 14 14 15 14 14 17 14 14 13 13 13 14 22 22 20 22 22 23 17 13 12 14 13 14 15 16 17
19 18 16 15 13 11 10 10 11 12 12 12 13 14 14 14 14 13 12 17 18 19 18 18 18 16 20 22 24 24 25 24 24 18 13 13 14 14 14 15 16 17 20

GFSMW_sfc_dewp_033.txt.gz
Dewpoint
35 37 39 40 39 40 42 43 44 47 49 54 58 60 62 65 64 64 59 55 50 43 41 37 35 34 33 31 28 28 29 29 28 31 33 32 28 26 28 30 26 26 27
30 32 35 38 40 40 42 43 44 46 50 55 59 61 63 62 60 57 55 49 43 40 35 34 35 34 32 30 29 30 30 29 28 24 31 29 26 24 27 26 21 21 24
27 27 29 34 40 41 43 44 45 49 53 56 59 61 56 51 48 49 49 46 43 39 35 35 33 34 34 34 33 32 29 29 28 24 18 25 25 21 26 25 23 20 23
26 28 29 30 34 41 47 47 47 50 55 59 58 59 53 50 48 47 46 43 36 37 34 37 33 33 32 31 31 27 28 27 27 27 18 20 18 19 18 24 23 21 16
25 26 29 33 34 39 48 50 50 51 56 58 58 57 52 51 47 44 41 38 35 32 31 34 34 31 31 28 26 27 25 24 20 23 23 20 22 19 20 19 20 19 19
23 26 29 30 33 40 45 52 51 53 56 58 56 54 55 49 43 40 36 35 34 33 30 30 31 29 29 28 28 27 26 23 21 20 19 17 16 14 15 15 17 16 19
31 34 30 28 34 39 42 50 52 53 55 56 54 53 54 46 44 39 36 34 33 32 30 29 27 27 29 27 26 26 25 23 22 23 20 17 17 16 16 17 18 18 19
34 37 39 35 34 42 43 47 51 52 53 53 54 55 49 46 41 40 35 32 34 30 26 27 26 23 22 22 23 25 24 23 24 25 24 21 20 19 18 21 21 19 19
37 38 40 39 31 37 43 48 51 51 52 53 54 53 46 43 37 36 32 28 28 26 24 24 22 20 20 20 20 19 19 20 21 24 26 23 21 22 23 23 23 22 19
36 39 40 39 35 37 43 49 50 50 50 52 52 48 41 33 31 30 29 27 25 23 23 22 20 19 19 18 18 19 19 17 19 20 20 22 22 22 22 23 23 22 21
37 38 41 39 38 40 44 48 49 49 50 49 42 36 33 31 28 28 24 25 21 21 21 19 18 17 17 16 16 15 15 16 19 21 21 21 22 21 21 22 22 21 21
38 40 42 43 44 45 48 49 49 48 48 43 36 32 28 26 26 23 25 20 19 20 18 17 15 15 15 14 12 12 15 17 19 20 21 20 18 23 21 20 21 21 21
38 40 42 43 45 47 48 48 47 45 41 36 33 28 25 24 22 21 22 21 19 17 15 15 15 15 15 13 11 13 15 18 20 21 21 21 21 22 21 21 21 23 22
35 41 42 43 44 46 46 45 42 38 36 32 28 27 24 22 19 22 20 21 17 16 16 15 15 15 13 13 13 18 20 21 21 21 22 21 21 20 23 23 24 22 22
36 42 41 42 43 44 43 38 34 32 29 27 26 23 20 20 22 20 21 18 17 16 16 15 16 15 13 11 20 21 22 21 21 21 20 20 23 25 25 23 24 24 23
34 41 40 40 42 40 35 32 29 26 24 23 22 21 20 20 21 19 18 19 19 16 16 16 20 21 9 21 25 26 23 21 20 20 18 19 23 22 25 27 27 25 24
40 41 39 39 37 30 26 22 23 24 24 23 22 22 23 22 22 18 18 20 18 17 16 15 14 13 14 20 25 26 23 21 20 19 20 19 17 23 21 24 26 27 29
42 41 38 35 29 23 21 25 27 26 26 25 25 23 19 18 17 17 18 17 16 17 15 14 13 13 14 20 23 26 22 19 20 19 20 20 20 21 22 23 27 28 27
42 39 33 27 23 22 24 26 25 26 26 25 27 22 17 15 15 16 16 15 16 15 14 12 13 13 12 19 22 24 20 17 18 18 19 20 20 23 26 24 26 23 21
37 29 25 22 22 24 27 27 27 27 27 24 17 15 15 15 15 16 16 16 15 13 12 13 13 13 13 14 20 23 19 17 19 18 19 23 21 25 26 23 22 21 19
30 28 28 28 32 34 35 34 29 26 22 16 14 14 14 15 16 16 16 15 13 12 12 13 12 12 13 15 20 23 21 20 21 21 19 19 24 26 27 27 21 20 22
28 27 26 24 24 23 20 18 17 15 15 14 13 14 14 14 18 21 20 17 14 13 12 11 11 13 12 15 18 22 24 24 21 20 20 21 26 26 26 24 24 25 25
24 22 20 19 19 18 17 15 15 13 12 13 13 14 16 18 20 21 21 16 13 11 11 9 11 12 14 14 18 20 23 24 21 21 24 26 25 24 21 21 23 22 18
26 23 21 19 17 15 15 13 12 13 13 13 14 15 15 15 15 16 17 15 12 10 10 10 12 13 13 14 15 18 21 23 22 25 24 23 22 19 18 17 16 17 17
23 22 20 18 16 13 12 12 13 13 13 13 14 15 15 14 15 15 15 14 14 15 14 14 14 14 14 15 22 22 21 22 24 23 20 16 13 15 14 15 16 18 18
21 20 19 17 14 11 11 13 15 15 14 14 14 15 15 15 15 14 13 19 17 17 19 18 17 16 20 21 24 24 25 25 25 19 15 14 16 16 15 16 17 18 21

GFSMW_sfc_dewp_036.txt.gz
Dewpoint
35 36 37 39 38 37 37 44 46 46 47 51 58 60 60 63 64 64 62 57 53 50 44 40 37 36 34 32 29 30 30 29 28 29 29 29 25 27 28 28 27 25 24
32 33 34 38 39 40 39 39 44 46 46 49 55 59 62 61 60 60 59 54 48 44 38 37 35 34 33 30 28 30 30 29 27 23 27 26 26 25 23 29 19 19 21
29 30 31 33 37 39 40 41 43 45 47 51 57 58 54 53 52 53 52 49 47 45 40 38 36 34 35 34 32 30 29 29 27 23 20 21 23 20 24 23 22 18 21
28 29 29 29 31 36 40 42 45 45 49 54 58 58 58 55 51 49 49 47 47 42 41 41 41 36 35 32 30 30 27 27 27 27 20 19 18 19 19 23 21 21 15
26 27 29 30 32 33 41 42 44 46 50 54 58 58 55 51 48 45 44 42 43 38 36 36 35 34 36 28 27 26 25 24 24 24 24 19 22 20 20 19 20 20 20
25 28 30 31 33 34 37 45 46 48 53 56 58 55 52 48 46 42 40 39 39 40 35 36 35 32 30 29 29 26 24 23 23 22 20 19 18 16 16 16 16 17 18
27 31 36 39 36 33 38 40 49 48 55 57 57 53 52 47 44 42 39 36 34 37 36 36 31 29 30 29 28 27 24 23 24 23 22 21 19 19 18 18 19 19 20
31 36 38 40 41 37 38 39 48 50 55 57 54 53 48 45 43 42 38 36 36 35 33 32 28 26 26 26 26 27 26 24 24 22 23 23 22 22 20 21 21 19 20
36 36 38 40 40 38 40 41 48 51 54 55 54 52 46 44 41 38 36 36 34 33 31 29 25 23 23 23 23 23 22 20 22 22 22 23 23 23 23 24 23 22 18
36 37 38 40 41 39 39 43 49 51 53 53 52 46 44 40 38 36 33 30 30 26 24 23 21 21 21 20 21 20 19 18 20 21 19 21 22 22 23 23 24 23 21
38 38 39 42 43 40 40 45 49 51 51 53 47 39 35 34 32 29 27 26 24 24 23 21 20 20 19 18 18 17 17 16 18 20 21 22 22 22 22 22 23 22 21
36 38 40 42 43 44 44 47 49 50 49 40 35 31 30 29 27 26 24 24 26 22 20 19 18 18 17 15 14 14 14 17 19 20 21 21 20 22 22 21 21 21 22
34 39 41 42 43 47 48 48 49 48 38 33 31 30 28 27 25 23 24 23 22 23 18 17 17 17 18 14 13 14 16 18 20 21 21 21 21 21 22 21 21 23 23
31 41 41 42 43 47 50 47 41 37 33 30 28 27 27 25 22 22 21 21 23 18 17 17 17 18 16 15 15 19 20 22 22 23 22 21 21 21 21 22 23 23 23
31 41 41 42 43 45 44 37 35 32 28 27 26 25 22 22 21 23 22 20 19 18 17 17 17 17 16 16 23 24 24 23 21 21 21 21 24 26 25 22 23 24 24
33 41 41 41 44 39 33 30 30 28 27 25 23 22 22 23 23 24 23 23 19 17 18 18 23 22 12 24 25 26 25 23 21 21 20 20 24 23 25 26 27 25 24
41 41 40 41 32 30 29 25 25 24 23 22 21 22 22 22 23 22 21 19 18 18 17 16 16 15 20 24 23 25 24 23 22 21 20 19 18 23 22 25 26 26 28
41 42 39 30 27 24 24 24 24 24 24 24 25 25 28 29 28 25 26 25 19 17 16 14 14 15 19 22 21 25 23 22 20 19 19 19 19 21 23 22 24 25 26
41 37 29 23 22 24 25 26 28 29 30 32 32 32 32 32 30 23 17 17 16 15 14 14 14 13 16 21 20 23 22 19 18 19 19 21 21 25 26 25 24 23 23
28 24 23 24 26 26 29 30 30 32 33 33 33 33 32 27 18 17 17 17 17 13 14 13 13 19 12 16 18 22 21 20 20 21 21 25 22 26 26 23 23 22 20
24 24 26 28 29 33 33 33 33 33 33 32 31 26 18 17 16 16 16 15 13 12 12 12 13 11 13 14 18 21 21 22 22 23 21 20 25 27 27 27 22 21 22
37 36 35 36 38 37 36 35 34 34 32 23 18 16 16 16 19 20 18 15 14 13 12 11 11 12 12 16 18 20 22 23 21 20 20 21 27 27 26 24 24 24 24
34 37 38 38 38 36 30 27 21 14 14 15 16 18 19 21 22 20 18 15 13 11 11 10 12 13 14 14 21 23 24 25 22 21 24 26 26 25 22 21 23 22 17
20 20 17 16 15 15 14 13 13 15 15 15 16 17 17 17 17 17 18 15 12 11 11 12 14 15 15 15 18 20 21 24 22 25 24 24 23 21 19 18 17 17 18
22 19 16 15 13 12 13 14 15 15 14 15 16 17 16 16 15 16 17 15 18 17 17 17 16 15 16 16 22 23 21 22 23 24 20 17 15 16 16 16 16 17 18
19 17 15 13 12 13 14 15 16 15 15 15 16 17 16 16 15 14 16 19 18 16 17 17 17 18 19 22 23 24 25 25 25 19 15 15 16 17 16 16 17 18 20

GFSMW_sfc_dewp_039.txt.gz
Dewpoint
35 36 36 36 34 35 38 43 50 59 61 62 63 63 62 62 62 62 60 58 53 49 47 44 39 36 32 31 29 30 28 27 27 27 26 30 26 27 27 28 26 25 24
32 33 35 36 38 39 38 37 44 53 58 60 62 63 62 61 62 63 60 56 52 48 45 40 36 35 33 30 29 30 31 28 26 23 28 24 24 25 23 29 22 19 22
29 30 31 32 34 38 39 40 40 46 49 52 59 57 57 56 56 56 55 52 48 48 44 37 36 34 33 32 30 31 30 30 27 21 21 22 22 20 23 24 22 18 21
28 29 30 30 30 33 39 40 42 44 46 49 57 59 59 59 55 52 51 48 45 46 44 39 38 39 38 33 32 29 29 30 27 26 22 19 18 17 14 21 21 20 18
28 28 29 30 30 31 34 40 40 44 47 48 57 58 59 55 51 49 48 46 47 46 42 40 41 37 37 37 31 27 25 27 26 27 24 20 22 20 20 18 19 19 19
25 27 30 34 34 33 33 40 43 43 46 49 58 58 54 51 50 47 45 46 45 42 41 37 38 36 33 33 34 26 23 23 22 22 21 20 18 17 16 16 16 16 18
27 33 37 39 40 40 39 36 39 44 47 53 59 56 53 52 50 46 45 42 39 39 37 37 37 39 35 35 33 28 24 24 24 22 22 21 19 19 19 18 19 19 21
33 36 38 39 39 40 41 39 37 42 49 57 56 54 50 50 49 47 44 42 39 35 36 35 34 32 32 30 28 28 26 24 25 23 23 23 23 22 20 21 21 20 20
36 36 37 38 39 41 42 40 39 46 53 56 54 50 49 49 47 44 43 40 39 35 33 32 31 31 29 27 25 24 21 21 23 23 23 23 23 23 24 24 23 21 19
36 37 38 39 41 42 44 41 40 47 55 55 51 47 47 45 43 40 38 36 34 32 30 30 30 30 27 23 23 22 20 19 21 22 19 21 23 22 23 23 23 23 21
37 37 38 41 42 43 44 43 44 51 53 50 47 46 44 41 39 38 35 33 31 29 28 27 27 25 25 20 20 20 18 17 18 20 21 22 22 22 22 22 22 21 21
35 37 40 41 42 42 44 47 47 52 50 45 43 40 39 37 34 33 32 30 26 25 24 25 22 20 19 18 16 14 15 17 19 20 21 21 20 21 22 22 21 21 22
33 38 41 41 42 43 49 49 48 40 40 36 33 33 31 29 27 27 26 27 26 24 23 24 23 19 17 15 14 16 17 19 20 21 21 21 22 22 22 21 21 23 22
31 39 41 42 42 46 44 41 38 35 36 33 31 29 28 25 25 25 25 25 27 25 24 21 20 20 17 16 18 20 22 22 22 23 23 22 21 21 21 21 22 22 23
33 41 41 42 43 41 39 36 38 36 35 33 31 29 26 24 24 24 25 25 25 24 24 26 26 20 20 20 24 25 24 23 23 22 21 21 23 26 25 22 23 23 23
40 41 41 42 35 33 33 33 35 34 32 31 27 25 24 23 24 25 26 27 29 29 28 26 24 21 19 28 28 27 26 24 22 22 22 21 25 23 25 26 26 25 23
40 41 40 33 30 30 28 30 30 29 27 25 24 24 24 25 27 27 28 30 30 31 30 28 24 19 23 26 26 26 25 23 22 21 20 19 18 24 21 25 26 27 27
42 41 31 28 26 25 25 24 24 24 24 24 25 27 28 30 31 31 31 31 30 30 25 17 15 19 23 25 24 26 22 21 20 19 19 19 20 21 24 23 25 25 25
36 28 25 24 25 25 25 26 28 29 28 29 32 32 33 34 34 33 34 33 32 23 16 15 16 15 22 23 22 23 22 20 20 21 21 23 22 26 27 25 24 23 24
24 24 26 27 27 28 30 31 31 32 33 34 35 36 36 35 34 33 28 20 16 14 15 15 13 18 12 19 18 21 21 20 21 22 22 27 23 26 27 24 24 22 20
26 27 28 29 31 33 34 34 34 34 36 36 36 34 33 29 18 16 16 15 13 13 13 13 13 12 13 14 17 20 20 20 21 23 22 21 26 27 28 27 22 21 22
33 34 33 35 36 35 35 34 33 35 34 33 31 28 26 22 20 19 18 14 13 13 12 10 12 13 13 20 20 22 23 24 21 21 21 21 27 27 26 23 24 24 23
37 37 37 37 36 36 36 34 33 32 30 25 20 19 19 19 19 18 17 14 12 12 10 10 13 14 15 15 23 24 24 25 23 22 24 27 26 24 21 22 23 22 17
31 34 31 30 30 30 29 28 25 19 17 18 19 19 19 18 17 17 17 14 12 13 13 14 14 15 15 16 17 20 22 24 23 25 24 23 20 20 20 18 18 17 17
19 18 16 15 14 14 14 16 16 16 16 16 17 18 17 16 16 17 15 17 17 15 14 16 16 16 16 17 23 23 21 23 24 23 19 16 15 16 16 16 16 17 18
17 16 15 14 14 14 15 16 16 16 16 16 16 17 16 16 15 15 16 20 19 18 18 17 16 16 17 20 22 24 25 25 23 16 14 15 16 16 16 16 16 17 20

GFSMW_sfc_dewp_042.txt.gz
Dewpoint
34 36 36 35 35 35 35 41 55 60 64 64 64 63 63 63 61 61 59 57 56 53 50 47 41 37 34 32 28 29 26 26 27 27 27 31 26 27 27 27 25 26 25
31 33 34 36 36 37 35 35 44 56 61 64 64 64 63 62 62 62 60 58 55 52 52 45 40 35 33 30 30 31 30 28 25 25 28 24 24 25 23 28 25 22 24
30 30 32 33 34 35 37 39 39 48 58 62 62 59 58 58 58 59 59 57 55 54 53 44 42 34 34 32 30 31 30 29 25 22 25 25 24 20 22 24 21 19 22
29 29 29 31 31 32 34 38 40 42 50 57 61 60 59 59 60 60 57 53 52 54 50 44 40 43 37 31 32 32 33 29 26 25 22 20 19 17 14 21 22 19 17
29 29 29 30 31 31 31 33 37 41 44 48 58 60 59 60 54 52 53 51 52 52 49 44 42 42 39 39 36 36 34 30 28 28 24 20 22 20 19 15 19 20 19
25 27 29 35 37 37 35 34 37 40 43 46 52 58 59 53 52 51 49 49 49 49 47 45 43 42 41 38 37 35 35 31 26 24 21 20 18 18 18 17 17 17 19
25 32 37 39 41 41 40 40 38 38 40 45 51 56 58 54 53 51 50 47 45 44 44 44 42 40 39 36 34 31 29 27 24 22 22 21 19 19 19 18 18 18 21
27 36 38 39 38 39 40 41 42 41 40 42 52 57 56 55 53 52 50 48 46 45 44 42 41 38 36 33 33 33 33 28 26 23 23 23 22 22 20 21 20 19 20
32 36 37 38 39 39 40 42 43 43 40 43 55 55 54 53 50 48 47 46 45 43 41 41 38 35 31 30 30 31 31 25 25 24 23 23 23 23 24 24 23 21 18
36 37 38 38 39 41 42 43 44 43 41 51 54 51 51 51 49 46 45 45 42 40 39 36 32 30 29 29 28 28 24 23 24 24 21 21 23 23 23 23 23 24 21
33 33 37 39 41 41 41 43 47 46 49 52 49 48 48 47 46 45 43 42 40 37 36 33 29 28 28 27 27 24 20 20 21 21 20 21 22 22 22 23 23 22 21
39 40 36 39 40 41 42 46 49 48 50 48 47 46 44 44 44 42 41 39 36 34 32 28 26 27 28 26 24 23 20 19 20 21 21 21 21 21 22 22 21 21 21
40 40 36 40 41 42 46 47 46 46 45 43 42 42 42 43 41 39 36 31 31 27 25 24 23 21 21 20 17 17 18 19 20 21 22 21 22 22 22 22 21 22 21
40 38 39 41 42 45 41 38 36 37 38 39 40 39 40 39 37 33 27 26 25 26 27 27 27 27 27 28 25 25 27 28 26 24 24 22 22 21 22 22 22 22 22
41 42 42 43 41 38 36 36 36 36 37 38 35 33 30 30 28 27 26 27 28 29 29 30 30 29 31 32 33 33 31 26 23 23 22 22 23 27 26 23 23 23 23
42 41 42 39 35 34 32 34 36 38 41 38 34 31 31 32 26 25 28 28 29 29 29 28 29 31 29 34 32 28 27 24 22 22 22 21 24 24 27 27 26 25 24
37 41 40 32 30 29 30 31 31 33 30 29 30 29 27 28 29 31 32 33 33 33 33 32 32 33 34 34 32 30 25 22 21 20 19 19 19 24 21 26 27 27 28
36 41 31 26 25 27 27 29 31 32 32 32 30 31 30 32 33 33 33 33 33 33 33 32 29 27 28 30 27 27 21 20 20 20 20 21 22 23 24 24 24 25 25
25 25 26 25 25 26 27 27 29 31 32 32 32 33 34 34 34 34 34 34 34 33 31 29 26 23 24 26 25 24 21 20 20 21 22 24 23 26 27 25 24 24 24
27 27 27 29 30 30 30 30 31 31 32 34 35 37 36 35 35 35 34 32 30 25 20 17 15 22 19 23 22 24 20 19 20 21 22 26 24 26 27 25 24 22 20
29 30 31 32 34 34 33 33 34 34 36 37 36 36 36 35 34 32 29 23 16 14 14 13 13 14 13 14 18 20 20 20 21 22 21 21 26 28 28 27 21 20 22
34 34 35 35 36 35 35 34 32 34 35 33 33 31 30 30 26 21 18 14 13 13 11 11 13 14 14 23 23 25 24 25 22 21 21 22 28 27 25 23 24 25 23
36 36 36 36 36 36 35 32 33 33 32 31 27 21 19 18 18 17 16 13 12 11 10 11 13 14 15 16 22 24 25 25 23 23 25 27 25 23 20 22 23 22 17
36 35 34 34 33 34 34 33 32 30 23 19 19 19 18 17 16 16 15 13 13 13 12 13 12 14 16 17 19 21 22 25 24 25 23 20 19 20 20 18 18 17 17
25 22 22 22 24 23 23 24 22 19 18 18 19 19 18 16 16 16 16 16 14 11 12 15 15 15 15 16 21 22 21 23 24 20 16 15 16 16 16 16 16 17 17
18 16 16 16 15 16 16 17 18 18 17 16 16 16 16 15 15 16 17 22 20 20 19 20 17 16 18 21 23 24 24 24 22 16 15 15 16 16 16 16 16 17 19

GFSMW_sfc_dewp_045.txt.gz
Dewpoint
35 35 36 36 36 36 36 38 54 60 64 65 65 64 63 64 62 62 61 59 56 55 55 52 46 43 37 33 30 29 26 26 26 28 28 30 27 27 26 27 26 27 26
31 32 34 35 36 36 36 35 42 58 62 64 64 64 64 64 64 62 61 59 57 56 55 51 46 41 36 31 29 30 29 27 27 27 28 25 24 25 23 28 26 24 26
30 30 30 33 34 35 36 37 37 45 60 63 63 59 60 58 58 59 61 59 57 56 56 51 47 40 38 36 30 31 30 28 25 23 28 26 26 23 22 24 21 19 23
29 30 30 30 31 32 35 36 38 40 47 61 63 62 61 60 61 62 61 58 57 57 56 53 46 45 44 39 42 39 38 31 27 26 21 20 23 22 16 20 21 19 18
25 28 30 30 31 31 32 33 34 38 41 51 61 62 61 60 60 60 60 56 54 56 55 51 50 47 46 46 43 42 39 35 33 30 26 21 23 20 18 15 18 20 20
25 26 28 33 37 38 36 35 34 35 38 42 52 60 61 56 54 53 57 54 52 53 52 50 49 48 46 44 42 41 37 36 34 30 24 22 20 18 18 17 17 17 18
23 29 36 38 39 40 40 40 39 39 40 41 44 55 59 56 56 55 56 53 51 49 49 47 46 46 46 44 40 37 36 34 32 29 24 23 20 20 19 18 18 17 20
30 35 37 38 38 37 38 39 41 42 42 41 42 49 55 57 57 55 54 53 53 53 47 48 46 45 43 40 36 36 35 32 32 26 25 23 23 22 21 21 20 17 19
34 35 37 38 38 38 39 40 41 43 44 43 42 49 54 56 55 54 53 53 50 48 47 45 43 42 40 35 32 31 32 30 32 27 25 24 25 24 24 24 23 20 16
32 33 34 35 38 39 40 41 42 43 45 45 45 49 54 55 54 51 49 47 46 46 44 42 41 38 33 31 30 31 28 26 28 27 24 23 24 24 24 24 23 23 21
39 39 35 36 37 38 41 40 43 46 47 48 49 49 48 48 46 47 46 45 44 42 42 39 36 30 29 28 27 24 23 23 23 22 22 22 23 24 22 23 23 23 22
42 42 42 41 40 38 41 42 48 47 48 48 46 45 45 45 44 44 44 43 42 43 39 36 30 28 27 25 23 25 28 29 29 29 26 23 21 23 23 24 23 22 22
41 41 41 41 38 42 45 43 40 40 42 44 43 42 43 43 43 44 43 40 38 37 34 29 28 27 26 25 25 25 25 26 26 27 24 26 28 29 27 23 22 22 21
42 41 42 42 44 41 38 36 35 37 39 40 41 41 42 42 42 39 40 38 33 32 27 26 27 27 27 28 29 30 32 33 33 32 31 30 29 25 23 22 22 22 22
39 41 42 42 41 36 34 35 38 38 37 37 37 37 37 36 34 32 33 31 30 29 28 30 31 32 34 34 35 35 35 34 32 31 27 25 25 27 27 24 24 23 23
32 32 40 37 33 31 31 33 34 36 36 35 35 33 31 31 33 32 32 30 30 30 30 30 32 34 36 38 37 32 31 29 25 25 23 21 22 24 27 27 28 26 24
27 32 39 32 29 29 30 32 31 31 30 30 31 32 33 33 34 33 32 33 33 33 33 33 35 35 37 39 37 35 29 26 21 19 19 19 20 24 22 26 28 27 29
25 28 28 26 26 27 30 33 34 34 34 34 34 34 35 35 34 35 34 34 34 33 33 34 34 34 36 36 33 28 21 20 20 20 20 21 23 23 25 24 24 25 25
26 26 26 27 28 27 30 32 33 34 35 35 36 35 35 34 34 34 34 34 34 33 33 32 31 31 32 30 30 23 21 19 19 21 22 23 23 26 26 25 24 25 24
28 30 31 30 30 30 31 31 32 33 34 35 36 36 36 35 35 34 33 34 34 32 32 32 29 29 24 27 25 25 20 19 19 21 22 25 23 26 27 26 24 21 19
31 33 34 34 35 35 35 34 34 34 36 36 35 36 36 35 34 34 33 32 30 28 21 15 14 13 15 16 20 24 20 20 21 22 21 21 26 28 27 26 20 20 22
34 34 34 35 35 35 34 33 32 34 35 35 35 34 34 33 30 27 23 18 15 14 12 12 14 14 14 25 24 23 23 24 22 21 22 22 28 27 26 23 24 25 24
36 36 36 35 36 35 34 33 34 34 33 31 29 23 20 20 19 17 15 13 12 11 11 12 13 13 15 15 23 24 24 24 23 23 26 27 24 23 21 22 23 23 17
35 35 34 34 34 34 34 33 32 30 26 20 18 17 16 16 15 14 14 13 13 13 12 12 11 13 15 16 19 21 22 24 23 25 20 19 19 20 19 18 18 17 17
28 29 29 31 31 32 32 31 22 20 19 18 19 17 16 15 16 16 14 12 11 11 12 13 13 14 14 16 22 23 22 23 23 19 15 15 15 16 16 16 17 17 17
19 19 20 21 19 19 18 19 19 19 18 17 16 16 15 16 17 18 19 23 22 22 22 21 16 16 19 22 23 24 23 22 22 16 14 14 15 15 15 16 16 17 18

GFSMW_sfc_dewp_048.txt.gz
Dewpoint
35 36 36 36 37 37 36 37 41 59 66 67 66 65 64 64 63 63 62 59 57 58 58 57 55 52 49 43 33 30 27 27 28 28 28 29 27 25 26 28 28 28 26
31 32 34 35 36 36 36 36 38 46 60 65 65 65 64 64 64 63 62 61 57 57 57 57 54 51 46 37 32 30 30 28 29 28 29 26 25 26 24 28 26 25 26
28 29 30 31 32 34 35 36 36 41 55 63 64 60 61 60 63 61 62 61 59 57 57 56 54 50 46 40 34 34 35 32 27 26 30 27 27 24 22 24 24 21 24
24 27 29 30 30 31 33 35 37 38 44 60 63 62 62 61 62 62 62 61 59 58 57 56 54 51 48 47 42 43 44 46 38 29 24 21 26 26 19 21 21 20 19
24 28 29 28 31 32 32 32 34 38 41 46 62 62 61 61 59 61 60 59 57 58 58 56 54 50 47 47 45 43 42 44 40 36 34 27 24 19 21 18 20 21 20
29 31 36 39 39 40 40 38 33 33 36 42 51 60 61 60 56 56 59 56 55 57 57 56 53 50 47 46 47 45 42 41 39 35 32 28 25 21 19 18 19 18 18
33 35 36 37 38 38 37 38 40 40 40 40 41 51 59 59 56 57 58 57 55 55 55 54 52 49 48 48 47 45 43 40 36 35 33 29 25 24 21 20 19 16 19
33 34 35 36 36 37 38 38 38 40 41 42 41 42 48 55 57 57 57 57 55 55 55 53 52 49 48 46 44 43 42 36 35 31 29 27 26 22 21 23 22 18 19
31 34 36 37 36 36 38 39 39 40 41 43 44 43 44 49 54 55 56 56 54 54 52 51 49 50 47 44 42 38 33 31 30 27 26 26 26 26 26 25 24 20 15
36 38 39 39 37 38 40 40 40 40 42 46 46 46 46 49 52 53 52 51 49 48 48 48 48 46 44 40 37 32 29 27 28 27 25 25 26 26 26 27 25 24 21
41 42 42 41 41 42 40 39 40 44 46 47 48 47 47 49 48 48 46 45 45 45 46 43 42 40 36 34 30 27 25 25 25 25 25 25 25 25 25 28 27 25 25
42 41 41 42 42 40 41 43 40 41 42 44 45 45 47 47 46 44 44 44 43 43 42 40 37 35 32 28 26 23 25 25 25 29 29 28 27 28 26 26 27 27 26
41 41 42 42 42 41 38 37 37 38 40 42 43 43 45 45 45 45 44 43 42 40 37 34 32 29 29 27 26 28 29 28 29 29 29 29 31 33 33 32 29 28 25
38 36 35 41 40 36 36 37 37 37 38 39 41 42 43 43 42 41 39 37 36 34 32 31 28 28 27 28 28 30 32 33 34 34 33 33 33 33 32 31 29 24 23
31 31 30 38 35 32 34 35 36 36 36 35 35 36 37 36 37 36 35 33 32 32 30 30 31 32 33 34 35 36 36 35 33 33 32 32 31 30 30 28 25 24 23
29 27 32 37 31 30 31 31 31 33 34 33 33 32 33 33 33 33 34 34 34 35 34 35 35 36 37 39 39 35 33 33 33 32 31 30 27 28 26 26 27 26 24
26 27 29 28 29 30 32 33 32 33 33 33 34 34 34 33 33 32 33 33 35 35 36 36 37 37 38 39 39 37 33 32 30 26 21 20 21 25 23 25 27 27 28
26 25 25 25 26 30 33 34 35 35 35 35 35 35 35 35 35 34 34 34 34 34 35 35 36 36 38 39 35 30 23 21 21 21 21 21 23 24 24 24 25 25 25
28 28 29 29 29 30 32 33 33 34 35 35 35 36 36 35 34 33 33 32 34 33 33 33 33 34 35 35 32 28 23 20 20 21 21 23 23 25 26 25 25 25 24
30 31 32 32 32 32 34 35 35 35 35 36 36 36 35 35 34 34 34 34 34 33 33 32 33 34 31 33 32 24 20 18 20 21 21 24 23 26 27 26 24 20 19
33 34 34 34 34 35 35 34 34 35 35 36 36 35 35 34 33 33 33 32 32 30 23 19 17 18 18 21 28 27 20 21 22 22 21 21 26 27 28 26 20 20 22
34 35 35 34 35 34 34 34 33 35 36 35 34 34 35 35 34 31 29 23 18 15 14 14 14 14 15 25 25 24 24 24 22 22 22 23 28 26 25 22 23 24 23
35 36 35 35 35 34 35 34 34 35 34 33 31 31 29 24 20 17 15 12 11 12 12 12 13 13 15 17 25 24 24 24 23 24 25 24 23 21 20 21 23 21 17
34 35 34 34 34 34 34 33 33 30 23 18 17 16 15 14 13 14 14 13 13 12 12 10 11 13 15 17 19 21 22 24 24 23 18 19 18 19 19 18 17 17 17
34 34 33 33 33 33 32 26 23 20 18 18 17 16 15 15 15 14 11 9 9 11 10 12 13 13 14 17 23 23 22 22 22 19 15 14 14 15 15 16 17 17 17
24 26 27 28 27 27 23 20 20 19 17 16 15 16 17 17 18 19 20 24 23 24 22 21 17 16 19 22 23 23 22 21 21 15 13 14 15 15 15 16 16 17 18

GFSMW_sfc_dewp_051.txt.gz
Dewpoint
32 36 38 38 38 39 39 38 41 55 66 65 65 65 64 64 64 65 63 61 60 61 62 61 61 60 59 57 50 40 35 33 31 32 32 32 31 29 31 36 34 34 33
30 30 32 35 36 37 38 38 39 41 56 64 64 64 64 65 65 64 64 63 60 60 61 61 60 59 58 55 49 40 35 34 32 33 34 32 29 29 28 30 31 30 30
25 27 29 30 33 33 36 37 39 41 45 60 65 65 64 64 64 64 63 63 61 60 61 60 60 58 56 53 49 42 40 37 32 32 34 32 34 29 27 28 29 28 29
26 31 36 36 35 36 38 37 38 40 42 51 62 63 60 61 62 63 63 63 63 60 60 59 59 58 57 55 51 44 44 43 39 34 29 27 32 34 27 24 26 24 24
31 35 38 40 40 43 43 41 37 36 40 43 56 62 62 61 63 63 63 63 62 61 59 59 58 56 56 55 51 46 44 45 42 42 34 32 30 25 31 26 25 23 23
34 36 38 40 40 42 42 42 42 41 39 40 44 59 62 62 62 62 62 62 61 61 59 59 58 57 55 53 50 49 47 45 46 43 36 32 29 25 25 24 22 24 22
34 37 38 40 42 42 41 41 41 41 41 43 42 43 55 62 61 61 61 61 59 58 59 59 58 57 55 53 52 49 48 47 45 42 35 34 32 30 28 27 23 21 20
34 37 39 41 42 42 41 41 41 41 41 42 43 44 44 48 58 60 60 60 60 59 59 58 58 57 54 52 52 50 49 47 45 40 34 30 27 26 23 26 27 21 20
37 39 41 42 41 41 42 42 42 41 42 42 45 47 46 46 48 52 58 59 59 58 57 57 56 55 53 51 50 50 47 44 39 34 32 30 27 26 27 28 27 28 20
41 43 42 42 42 43 43 42 41 41 43 47 48 48 49 49 49 50 52 55 56 55 55 54 52 50 50 49 48 46 44 40 34 30 26 27 28 29 30 30 27 26 24
43 42 42 42 43 42 41 41 41 42 43 44 46 47 48 49 50 51 52 52 51 51 51 50 49 47 46 46 43 40 36 31 30 27 26 27 27 27 27 31 31 31 30
41 41 41 42 43 40 38 37 38 39 40 43 44 46 47 48 48 48 48 47 47 48 47 46 45 42 39 36 33 31 29 27 27 27 27 28 27 30 30 31 31 32 31
39 36 35 34 40 36 37 38 38 37 38 40 42 44 45 46 46 46 45 45 44 44 43 41 38 34 32 30 28 27 28 29 30 30 29 30 31 33 34 34 33 33 32
33 32 31 32 36 34 35 35 36 36 36 36 37 40 40 41 42 40 39 39 38 35 34 32 30 29 29 30 30 31 33 33 33 34 34 34 35 34 33 34 33 31 30
30 28 31 35 32 32 32 31 32 34 34 33 34 35 35 36 36 35 34 33 32 31 31 31 32 33 33 34 34 35 35 35 34 34 34 33 34 34 33 31 31 30 27
29 28 28 29 30 31 32 32 33 34 34 34 34 34 34 34 35 35 36 36 35 36 36 37 37 37 37 39 38 36 35 34 33 32 32 32 33 33 34 33 30 28 27
27 26 26 26 29 31 33 34 34 35 35 35 35 34 34 33 34 34 35 36 36 38 38 38 39 39 39 40 39 37 34 32 32 30 28 28 29 28 24 25 26 27 28
28 27 27 28 28 32 34 35 35 36 36 36 36 36 36 35 35 35 35 35 35 36 36 36 37 37 37 37 36 33 28 26 23 23 26 27 27 26 25 24 28 27 25
29 30 30 29 30 31 32 33 34 35 35 35 36 36 35 35 35 33 33 33 34 33 33 33 33 34 34 35 33 29 25 24 26 25 23 24 23 24 26 26 27 26 25
32 32 33 33 33 34 35 35 35 35 35 36 36 36 36 36 35 35 33 33 33 32 33 32 34 36 33 33 33 27 20 19 20 22 21 24 24 26 27 28 25 22 20
34 34 34 33 34 35 35 35 35 35 36 36 36 36 35 34 35 33 33 32 31 30 29 28 28 25 27 29 30 27 22 22 22 21 21 22 27 26 27 25 20 20 21
34 34 34 34 34 34 33 34 34 36 36 36 35 35 35 35 33 31 29 25 19 16 15 16 16 14 18 27 26 26 25 25 22 22 23 24 25 24 23 21 22 23 23
36 36 35 35 35 34 35 34 34 35 33 32 32 30 26 20 17 16 14 12 13 13 12 12 12 12 15 20 25 25 25 25 24 24 24 23 21 20 18 21 22 21 18
34 35 34 34 34 34 34 33 33 28 23 20 16 15 14 13 13 13 13 13 13 12 11 8 10 13 16 19 20 22 22 24 22 20 18 17 17 18 18 17 17 17 18
35 34 34 34 33 33 29 27 23 19 18 17 16 15 14 13 13 10 8 8 10 10 8 11 13 14 17 19 23 22 21 21 20 19 13 12 13 14 15 16 17 17 17
31 32 33 34 33 32 23 22 21 19 16 14 14 17 17 19 20 21 21 25 24 24 22 21 17 18 20 22 22 21 21 20 20 13 11 12 13 14 15 16 16 17 18

GFSMW_sfc_dewp_054.txt.gz
Dewpoint
33 34 34 35 35 37 39 40 40 43 51 61 66 66 65 66 65 65 65 64 63 62 62 61 59 60 60 61 59 55 50 45 42 36 36 34 33 32 31 36 37 37 37
28 29 30 30 31 33 35 38 40 41 43 51 60 64 64 65 65 66 65 65 64 63 63 62 61 60 60 60 60 56 50 48 41 41 42 39 34 31 31 32 33 34 34
30 35 37 36 35 35 36 36 37 40 41 44 51 60 63 65 65 65 65 64 64 64 64 63 62 62 61 60 61 58 51 48 42 41 44 42 43 34 32 31 32 32 32
35 37 38 39 40 42 45 41 38 38 39 42 45 53 58 59 60 61 63 64 64 64 63 63 63 62 62 60 60 58 54 52 44 39 35 34 37 36 34 29 31 30 28
39 39 41 42 43 45 45 44 42 41 38 40 42 46 55 57 58 59 61 62 63 63 62 61 63 62 62 61 59 57 54 53 50 44 39 36 36 32 36 35 30 30 28
40 42 43 44 43 46 46 46 44 42 42 42 41 43 48 54 58 60 61 62 63 62 62 61 61 61 61 60 59 58 55 54 53 47 42 38 38 37 33 33 30 27 26
40 42 42 43 44 45 45 44 43 43 43 42 42 42 43 48 56 58 59 60 61 61 61 61 60 61 60 60 59 58 55 54 53 50 46 44 41 35 36 36 32 26 22
41 42 43 43 43 43 43 43 43 42 43 43 43 43 44 45 45 49 54 56 57 60 60 60 60 60 60 59 58 57 56 54 52 51 49 42 38 35 31 33 30 27 22
43 42 42 42 43 44 44 43 43 42 42 43 45 46 46 48 48 47 47 50 53 55 57 59 59 59 59 58 56 55 53 53 53 52 48 40 35 34 34 34 32 35 27
42 41 41 42 43 43 42 43 43 43 44 45 47 47 49 50 50 51 51 50 50 52 55 56 57 58 57 54 54 53 52 50 49 44 39 36 35 33 32 33 30 31 29
42 40 40 39 43 42 41 40 40 41 41 43 44 47 48 49 49 50 50 51 52 52 53 54 54 53 52 51 50 48 46 44 42 41 38 35 32 32 32 33 33 33 33
40 37 37 37 41 39 39 39 39 39 40 40 43 45 46 47 48 49 49 49 50 50 51 51 51 50 49 48 46 43 42 36 35 32 32 30 30 31 31 33 33 33 34
37 35 35 36 39 37 37 37 38 37 37 38 40 41 43 44 44 43 44 45 45 45 46 46 46 44 43 40 38 35 31 31 31 31 30 31 32 33 34 34 34 34 34
33 33 36 37 36 35 35 34 35 36 36 36 37 38 39 40 39 37 36 35 34 35 36 35 34 32 31 31 31 31 32 33 33 34 34 34 35 35 35 34 34 34 33
32 32 33 34 34 33 34 35 36 36 36 36 36 36 36 36 36 36 35 35 35 35 34 34 34 33 34 34 35 35 35 36 36 35 35 35 36 37 36 35 33 32 31
31 30 30 31 32 33 35 35 36 36 36 36 35 35 34 35 35 36 36 37 37 37 37 37 37 37 37 39 38 36 35 35 34 33 32 33 35 36 36 35 34 32 29
30 29 28 29 30 33 35 36 35 36 36 36 35 34 35 34 35 35 36 37 38 39 39 39 39 40 39 40 39 37 34 33 32 31 31 31 30 29 26 27 28 28 29
30 30 29 30 31 33 34 35 36 36 37 36 36 35 34 34 35 35 35 35 36 36 35 34 35 34 37 39 38 36 32 31 31 29 28 28 27 26 26 24 27 27 25
30 31 30 30 32 33 34 35 35 35 36 37 36 36 36 36 36 35 34 33 33 33 33 33 33 33 34 35 31 29 28 29 28 26 26 26 25 23 26 26 28 25 25
32 32 32 33 33 34 34 34 34 35 35 36 36 37 37 36 35 35 34 34 35 33 33 33 34 34 32 33 31 24 23 24 24 23 20 23 24 26 27 27 25 23 20
33 33 33 32 33 34 34 35 35 35 37 37 36 36 36 36 35 35 34 34 33 33 33 28 27 28 31 29 28 26 21 20 19 19 20 22 27 26 26 25 21 20 21
34 34 34 33 34 35 35 34 35 37 36 36 36 36 35 35 35 32 28 25 21 20 20 19 19 21 24 26 27 27 26 24 21 21 22 23 25 23 22 20 20 23 24
35 35 34 35 35 36 36 35 36 35 34 34 32 29 24 20 19 18 17 14 13 13 12 11 11 11 15 20 25 26 26 26 22 23 23 22 20 19 17 19 22 22 18
34 34 35 35 35 36 36 36 34 31 29 27 21 16 14 14 13 13 14 13 13 12 9 6 9 12 16 20 22 21 21 22 20 22 20 16 17 17 19 18 17 18 18
35 35 36 35 35 34 34 32 27 28 21 17 16 15 14 12 10 10 9 7 9 9 7 11 12 14 17 21 23 22 20 20 20 21 12 9 10 13 15 16 17 18 18
35 35 36 36 35 34 32 29 26 20 17 15 14 14 15 18 19 20 21 25 24 24 23 21 17 19 20 22 22 21 21 21 20 13 9 9 12 14 15 16 17 19 20

GFSMW_sfc_dewp_057.txt.gz
Dewpoint
29 32 35 35 36 37 38 39 39 40 42 50 57 66 66 66 65 66 65 63 62 62 62 62 60 60 59 60 60 59 56 53 51 47 42 42 40 36 37 40 40 42 42
30 31 31 32 31 32 34 37 39 41 41 44 49 61 64 64 65 66 66 65 64 63 63 63 62 60 60 60 60 60 57 53 51 45 45 43 39 37 35 36 37 38 39
28 34 36 36 36 38 40 37 37 40 42 44 45 51 61 63 64 65 65 64 64 65 65 64 63 63 61 60 60 60 58 54 50 47 47 47 45 38 37 35 35 35 37
35 37 38 40 41 43 46 43 41 38 39 42 43 44 49 55 59 60 62 62 63 63 64 64 63 63 63 61 61 60 60 56 50 47 45 48 43 43 35 36 35 35 33
38 39 41 42 43 46 47 47 43 41 42 40 40 43 45 50 56 58 58 59 61 63 64 63 63 63 63 62 62 61 60 57 53 47 48 44 41 40 44 36 33 33 34
40 41 43 43 44 46 47 47 45 43 43 43 42 42 45 45 49 55 56 57 59 62 64 63 62 62 62 62 62 61 61 58 56 50 49 44 43 39 39 44 38 34 32
40 41 42 43 43 45 45 44 43 43 43 44 43 42 43 44 46 49 53 55 57 60 62 62 62 61 61 61 61 60 60 59 57 56 50 48 46 48 43 44 38 36 27
41 42 42 43 43 44 44 44 43 42 42 43 44 43 43 44 44 44 46 51 54 55 58 62 61 61 61 60 60 60 59 58 57 57 56 51 49 44 41 43 38 34 26
42 41 41 42 42 43 43 43 43 43 44 44 45 45 45 47 48 48 47 46 46 48 51 55 59 60 60 60 60 59 58 57 56 56 56 51 48 43 41 41 41 43 36
41 40 40 40 42 43 42 42 41 41 42 43 44 45 47 48 48 48 49 50 51 51 50 51 54 56 58 59 58 57 56 55 54 53 52 41 39 39 40 39 38 39 38
41 39 38 39 42 42 41 41 40 40 40 41 42 44 46 47 48 48 48 49 49 50 51 51 52 54 55 55 55 54 52 52 47 43 40 39 38 39 37 38 36 37 38
40 37 37 38 40 39 39 39 39 39 39 39 40 42 43 45 44 44 45 47 47 48 49 50 51 51 52 51 51 47 46 45 43 41 39 36 34 35 35 35 35 35 36
37 36 36 37 38 37 37 37 37 37 38 38 39 39 40 41 40 40 39 38 39 41 41 41 40 41 42 42 41 39 35 35 35 35 34 34 34 35 36 36 35 35 35
35 34 37 37 37 36 36 36 37 37 38 38 38 38 38 38 38 37 37 36 35 34 34 33 33 33 33 33 34 34 34 34 34 34 34 35 35 36 36 35 34 34 33
34 33 35 35 35 35 36 37 37 37 37 37 37 36 37 37 37 37 37 36 36 35 35 35 35 35 35 35 36 36 36 36 35 35 36 36 37 37 36 34 33 33 33
33 32 32 33 34 35 36 37 37 37 37 36 36 36 35 36 36 37 38 38 38 39 39 38 38 38 38 39 38 36 35 35 34 32 33 34 36 37 38 38 36 33 32
33 32 31 31 32 34 36 36 36 37 37 37 36 35 35 35 36 36 36 36 36 36 35 35 38 39 39 40 39 37 33 32 32 32 32 32 30 29 28 28 28 28 29
32 32 32 32 32 33 34 35 36 36 37 36 35 35 35 36 36 36 36 36 35 35 34 34 34 34 36 38 37 36 32 31 32 33 32 31 30 29 26 24 29 29 27
32 32 32 31 33 33 34 34 35 35 36 36 36 36 35 36 35 35 34 34 34 33 33 33 33 33 33 35 33 31 30 29 27 26 26 25 24 25 26 27 29 26 26
33 33 33 33 33 33 34 34 34 34 35 36 36 37 36 35 35 35 35 35 34 33 34 33 34 32 31 30 26 25 24 23 23 21 20 24 26 27 28 27 25 24 22
34 34 33 32 32 34 34 34 34 34 36 37 37 36 36 35 35 35 35 33 33 33 31 29 30 29 27 28 29 26 22 20 20 20 20 23 27 28 26 25 23 21 22
34 34 34 33 34 34 34 34 36 37 37 37 36 36 35 34 34 33 31 28 23 20 19 19 21 22 23 26 27 27 26 25 22 21 22 24 25 23 21 21 20 23 24
35 36 35 35 35 35 36 36 36 36 36 35 33 31 28 23 20 21 21 16 14 13 11 11 12 13 17 21 24 25 25 25 21 23 24 22 19 17 17 17 22 23 20
35 34 35 35 35 36 37 37 35 35 32 31 25 18 15 14 14 14 18 16 12 10 7 8 11 14 17 21 22 22 22 21 20 23 21 17 16 16 18 19 18 19 19
35 36 35 35 35 36 36 35 32 32 29 20 16 15 14 13 12 13 12 8 14 15 9 14 14 16 18 22 24 22 21 22 21 21 15 10 10 13 14 17 18 19 19
35 35 37 36 35 35 35 33 31 30 20 17 16 14 15 17 19 20 21 26 24 24 24 23 21 20 21 22 23 22 23 23 21 17 9 10 13 14 15 16 18 20 22

GFSMW_sfc_dewp_060.txt.gz
Dewpoint
29 31 34 34 34 35 37 38 39 41 42 45 54 66 65 65 66 66 66 65 63 62 62 60 60 59 58 58 59 58 56 54 51 46 42 41 39 37 39 39 40 42 43
29 31 34 33 32 32 36 37 38 40 42 43 46 57 65 66 65 65 65 65 65 64 62 62 61 61 60 59 60 59 58 54 52 45 42 39 39 38 36 37 39 40 42
28 34 36 37 39 43 43 42 39 39 40 43 45 46 57 63 63 63 64 63 64 65 65 64 62 62 61 60 59 59 59 56 53 46 45 45 42 37 38 35 37 37 39
36 38 39 41 43 45 47 46 42 41 39 40 41 43 44 49 60 62 64 65 65 63 63 63 64 63 63 62 61 60 60 58 52 51 46 49 43 39 33 35 35 35 35
37 39 41 43 45 47 47 47 46 44 42 42 40 41 43 45 48 54 58 59 60 63 63 63 62 63 63 63 62 61 61 61 57 52 50 49 43 38 40 34 34 35 35
40 41 43 43 44 46 46 46 46 44 44 43 43 41 42 43 43 46 53 56 58 60 62 62 63 62 62 62 62 62 61 61 60 54 51 49 48 45 42 44 36 34 35
41 42 42 43 43 44 45 44 44 43 43 43 44 43 43 43 44 44 47 51 55 57 59 61 61 61 62 62 61 62 62 61 59 57 52 50 50 51 45 46 42 38 31
42 41 42 42 43 43 43 43 43 43 44 44 45 44 45 46 46 46 46 46 47 49 51 59 60 59 61 61 61 61 61 60 60 58 57 53 51 51 49 48 45 37 36
42 41 41 41 42 43 42 42 41 42 43 44 45 46 47 47 48 48 49 50 50 50 51 51 54 59 60 60 60 60 60 59 59 58 57 56 51 46 46 46 45 44 38
41 40 40 40 42 42 42 41 41 40 41 41 42 44 46 47 48 48 48 48 49 49 50 51 52 53 55 58 58 58 57 56 55 54 54 47 44 43 43 42 42 44 42
40 39 38 38 41 41 41 40 39 39 39 39 41 43 44 44 44 43 44 45 47 48 49 49 50 51 52 54 54 54 54 53 49 46 44 40 41 40 40 41 41 41 40
39 37 37 37 40 39 39 38 38 38 38 39 39 40 41 41 40 39 39 38 38 42 42 42 43 43 47 47 48 47 46 45 43 42 39 38 38 38 38 39 39 37 38
36 36 36 37 37 37 36 37 38 37 38 38 38 38 38 38 38 37 37 37 35 35 34 34 34 34 34 34 35 36 36 37 36 36 36 35 36 36 36 36 36 35 35
35 35 37 37 36 35 36 37 37 37 38 38 37 37 37 37 37 37 37 36 36 35 35 35 35 35 35 35 36 35 35 35 35 36 36 36 36 36 35 35 34 34 33
34 33 35 35 35 35 36 37 38 37 37 37 36 36 36 37 37 37 38 38 38 37 37 37 37 37 37 37 37 36 36 36 36 36 37 37 37 37 36 34 33 33 33
34 33 33 33 34 35 36 37 37 37 38 37 36 36 36 36 36 38 37 37 36 36 38 39 38 38 38 39 38 35 34 34 33 33 33 34 37 38 39 37 36 35 33
33 32 31 31 33 35 36 36 36 37 37 36 35 35 35 35 36 37 36 36 35 36 35 35 36 36 37 39 38 36 33 32 32 32 33 32 32 32 29 30 30 30 30
33 32 32 32 33 34 34 35 36 36 37 36 35 34 35 36 36 36 35 35 35 34 34 34 34 35 36 38 37 35 32 32 32 32 32 32 31 30 28 27 29 28 27
32 32 31 32 33 33 34 35 35 35 35 35 34 34 35 36 36 34 34 33 33 33 32 32 32 31 31 32 32 31 30 29 29 28 25 25 25 26 27 28 28 26 25
33 33 32 33 33 33 34 34 34 33 35 36 35 35 35 36 35 35 33 33 33 33 32 30 28 31 28 29 27 25 24 23 23 21 22 26 27 28 29 26 24 22 20
34 34 33 32 32 34 35 35 35 35 36 36 36 36 36 35 35 34 34 33 28 24 23 27 27 26 27 27 30 29 24 22 21 21 21 25 27 26 25 24 21 19 22
34 34 34 33 34 35 35 36 35 37 37 37 36 35 34 34 34 32 30 29 26 22 21 21 20 21 25 28 28 28 27 26 21 21 23 24 24 22 21 20 20 23 24
35 36 35 35 35 35 35 36 36 37 36 35 34 33 32 28 26 21 18 15 14 13 11 11 12 14 17 23 24 23 24 24 21 23 23 22 19 19 19 19 22 23 20
35 35 35 34 34 34 37 36 36 36 35 32 29 20 16 15 15 15 17 14 12 9 6 8 12 14 17 22 23 22 22 25 23 24 22 20 15 14 15 18 18 19 19
35 35 35 35 34 35 37 36 35 35 32 24 16 16 16 14 15 22 24 12 20 22 12 15 15 17 19 23 24 22 22 22 22 21 18 11 9 12 14 16 17 19 19
35 36 36 36 35 36 36 35 33 32 24 17 16 15 14 14 19 21 23 26 25 25 24 23 21 21 20 22 23 22 23 24 21 18 13 11 15 16 15 17 18 20 22

GFSMW_sfc_dewp_063.txt.gz
Dewpoint
30 32 33 32 32 32 34 36 38 39 42 53 64 63 64 64 64 65 65 65 65 63 61 60 60 59 58 58 59 58 56 55 51 47 44 41 40 39 40 39 41 48 51
30 33 33 32 38 42 42 41 39 38 39 43 45 60 64 65 65 65 65 65 65 64 64 62 60 60 59 58 59 58 57 56 53 49 42 39 39 39 38 39 39 41 44
33 36 39 41 43 44 44 44 41 40 39 39 41 44 53 62 63 62 63 64 64 64 64 64 63 61 61 59 59 59 58 57 55 51 47 42 39 38 38 37 38 38 42
37 40 41 43 45 46 46 46 46 43 41 41 39 40 42 44 54 61 63 63 63 63 63 63 63 62 61 61 61 60 60 59 56 54 51 50 45 40 38 40 42 42 41
38 40 41 43 46 46 47 46 46 45 43 42 41 40 40 43 45 46 50 57 62 63 63 62 61 61 61 61 62 61 61 60 59 55 54 51 51 45 41 39 42 42 42
41 42 43 44 44 45 45 44 44 44 44 43 43 42 41 41 42 43 44 47 54 58 61 61 61 61 62 62 61 62 61 60 60 59 56 52 51 49 46 44 41 43 41
41 42 42 42 43 44 43 44 43 43 44 44 44 44 44 43 44 45 45 46 49 52 53 56 59 60 60 60 61 61 61 61 60 60 56 54 52 52 50 47 44 41 38
41 41 42 42 42 43 42 42 42 43 43 44 45 47 47 48 48 48 49 49 49 50 51 52 53 57 58 59 60 60 60 60 60 58 58 55 54 53 50 49 48 40 37
41 41 41 41 42 42 42 41 41 41 41 41 43 45 46 47 47 48 48 49 49 49 50 51 51 52 56 57 57 59 58 59 59 59 58 57 54 52 51 50 50 48 43
41 40 40 40 42 41 41 40 40 39 39 40 42 43 44 43 42 42 42 43 45 47 48 48 49 50 51 52 52 54 55 56 55 54 54 50 46 46 45 45 45 45 44
40 38 38 38 41 41 40 39 39 38 38 39 40 40 41 40 39 39 38 37 39 41 42 42 44 45 46 46 49 49 50 52 49 46 45 42 42 42 41 42 42 42 42
38 37 37 38 39 38 37 37 38 38 38 39 39 38 38 38 37 37 37 36 35 35 35 35 35 35 36 37 39 40 41 43 43 42 41 39 39 39 39 40 40 40 39
36 36 36 37 37 36 36 37 37 37 38 38 37 37 37 37 37 36 36 36 35 35 35 35 35 35 36 35 35 36 36 36 37 37 37 37 37 37 37 37 36 36 36
35 35 37 37 36 36 37 37 37 37 37 37 36 36 37 37 37 37 37 37 37 36 36 36 36 36 36 37 37 37 36 36 37 37 37 36 36 36 35 35 35 35 34
34 34 35 35 35 36 37 37 37 37 37 36 36 36 36 36 38 38 38 37 38 38 38 38 38 38 37 37 35 35 35 35 35 35 37 38 39 39 37 35 34 34 33
34 34 34 34 34 36 36 37 37 37 37 36 35 35 35 36 37 37 36 36 36 36 37 37 37 37 36 38 37 35 34 34 33 33 33 34 35 37 40 38 37 35 33
33 32 32 32 34 35 36 36 37 37 36 35 35 35 36 37 37 37 36 35 36 36 35 36 36 37 38 39 37 36 33 33 33 32 32 32 34 34 32 34 33 31 31
33 32 31 32 33 35 35 36 36 37 36 35 34 36 36 36 36 36 35 34 34 34 33 33 34 35 36 37 36 34 28 26 28 28 29 29 28 29 28 27 28 28 27
32 32 32 32 33 34 35 35 35 35 35 34 34 35 35 36 35 34 34 33 33 32 32 30 27 27 28 30 31 29 26 25 25 24 24 24 24 27 30 26 26 25 22
33 32 32 33 33 33 34 34 34 35 36 34 34 35 36 36 35 34 33 34 33 31 27 24 25 30 27 30 28 25 22 21 21 20 22 28 27 29 28 24 22 20 20
34 33 33 32 32 34 35 35 35 35 36 36 36 36 36 35 35 34 33 27 22 21 21 25 25 26 27 27 29 28 25 21 21 21 22 24 27 25 23 22 19 19 21
35 34 33 33 34 35 35 35 35 37 37 36 36 34 35 34 34 32 29 28 25 22 21 20 19 23 24 26 26 26 26 25 21 22 23 23 23 21 20 19 20 22 24
35 36 34 34 34 35 36 36 36 37 36 36 35 34 33 33 32 26 23 20 19 15 13 12 12 14 19 22 27 27 24 24 21 22 24 24 20 19 18 19 21 22 19
35 35 34 34 34 35 36 36 37 36 35 34 32 31 26 21 19 17 17 14 11 9 6 9 12 14 19 23 23 22 22 24 22 23 21 19 16 15 16 16 17 18 19
35 35 35 34 34 34 36 36 36 35 34 31 25 16 16 15 19 23 15 16 20 17 12 14 15 17 19 23 23 22 22 23 23 21 16 13 10 13 14 16 17 19 19
36 35 35 35 34 34 36 36 36 35 32 23 16 16 15 13 19 22 24 25 25 24 24 24 20 21 21 22 23 23 23 23 23 18 15 12 15 16 15 16 18 19 21

GFSMW_sfc_dewp_066.txt.gz
Dewpoint
31 33 33 32 34 40 38 37 38 39 53 63 63 62 63 63 63 64 65 65 65 63 62 61 60 60 59 58 58 57 56 56 53 48 46 43 43 40 41 40 42 55 55
31 33 33 41 42 42 42 41 40 38 39 43 46 61 63 63 64 64 64 64 64 64 63 62 61 60 60 59 59 58 57 56 54 52 46 46 44 41 40 40 39 42 53
33 37 40 42 44 44 45 45 45 41 39 39 41 44 49 61 62 62 62 64 64 63 63 63 62 61 60 59 58 58 57 58 54 53 54 44 44 40 40 39 39 39 43
37 39 41 44 45 45 46 46 46 44 42 42 40 39 41 43 52 55 60 61 62 62 62 62 62 62 60 60 60 59 59 58 56 54 55 51 47 43 42 40 44 45 44
39 41 42 45 46 46 45 44 44 44 44 43 42 41 40 42 43 44 44 45 52 59 62 61 61 61 60 60 60 59 58 59 59 55 54 54 52 49 45 48 43 46 47
40 42 44 44 44 44 44 44 43 43 44 44 44 43 42 42 42 43 44 46 49 54 53 56 59 60 59 60 59 59 59 59 59 59 58 56 52 51 49 46 44 45 46
42 42 42 43 43 43 43 43 43 43 44 45 46 47 47 46 47 47 48 48 49 49 50 52 53 56 58 59 59 58 58 58 59 58 58 57 56 55 54 52 50 44 43
41 42 42 42 43 42 42 41 42 42 42 43 45 46 47 48 48 48 48 48 48 49 50 50 51 52 55 56 57 57 58 59 58 58 56 57 56 56 53 52 50 42 40
41 41 42 42 42 42 41 40 40 40 40 43 44 44 43 43 43 43 44 46 46 48 48 48 49 50 51 53 54 57 55 54 53 53 55 56 56 54 53 52 51 49 44
41 41 41 42 42 41 40 40 39 38 39 41 41 41 40 40 39 38 37 38 40 41 42 44 45 46 46 47 48 48 49 49 51 51 51 48 46 45 45 47 46 47 47
40 40 39 40 41 40 39 38 38 38 39 39 39 39 38 38 37 37 36 36 36 36 36 36 36 37 39 40 43 43 43 46 45 44 43 42 42 42 42 43 43 43 43
39 38 38 40 39 38 37 37 38 38 38 38 38 38 37 37 36 36 36 36 35 35 35 35 35 36 36 36 37 39 39 39 39 39 39 39 39 39 39 40 39 40 40
37 36 37 38 38 36 37 37 37 38 37 37 37 37 37 37 37 37 37 37 36 36 36 36 36 36 37 36 36 36 36 37 37 37 37 37 37 37 37 36 36 36 36
36 36 37 37 36 36 37 37 37 37 37 36 36 36 36 37 38 37 37 38 38 38 38 38 37 37 36 36 36 36 36 37 37 37 37 36 36 36 35 35 35 35 34
35 35 36 36 35 36 37 37 37 37 36 36 36 35 36 37 37 37 37 37 37 38 38 37 36 36 36 36 34 35 35 35 35 35 36 38 39 39 37 35 34 34 33
35 34 35 35 35 36 37 37 37 36 36 35 35 35 36 37 37 36 37 37 36 36 36 37 37 36 37 37 38 34 33 34 33 33 33 34 35 36 39 39 38 36 33
34 33 34 34 35 36 36 36 37 36 35 35 35 36 36 36 36 36 35 35 35 35 35 36 37 37 38 38 37 36 32 31 31 30 29 31 32 31 29 30 30 30 31
33 33 32 33 35 36 36 36 37 36 36 35 35 36 36 36 36 35 34 34 33 33 33 33 34 34 33 33 33 33 21 24 26 22 23 22 24 27 27 26 27 26 25
33 32 32 33 34 35 36 36 35 36 36 35 36 35 36 36 35 34 33 33 33 31 26 25 24 24 26 30 30 27 23 22 21 23 25 25 26 29 30 25 24 23 20
32 32 32 33 34 34 35 34 35 35 35 35 35 36 36 36 34 34 34 33 29 25 24 23 24 30 26 30 28 24 21 20 19 20 24 29 27 27 26 22 21 20 20
32 32 32 33 33 34 34 34 35 36 36 35 35 36 36 35 34 34 31 24 20 20 20 24 24 25 26 26 28 28 24 21 21 21 22 24 27 24 23 22 18 19 21
34 33 33 33 34 34 34 34 35 37 36 36 36 35 35 35 34 30 27 26 24 23 22 21 20 21 22 26 25 26 25 24 21 21 22 23 24 21 21 20 20 22 24
35 35 34 34 34 35 34 33 36 36 36 36 35 34 34 32 31 29 28 27 24 19 18 16 13 14 18 21 27 26 27 26 21 22 24 23 23 19 17 20 20 22 19
34 35 34 34 33 34 36 36 37 36 36 34 34 33 32 30 28 22 19 17 14 13 9 9 12 14 18 23 23 22 22 24 23 24 19 19 16 16 16 16 17 18 19
35 35 34 34 34 35 36 36 37 36 35 34 31 30 27 24 16 16 12 13 16 11 8 12 13 15 18 21 24 23 22 22 24 21 16 12 11 14 14 16 18 19 20
36 35 35 35 34 34 35 36 36 35 34 32 27 20 16 16 19 23 23 24 25 24 23 23 19 21 22 23 24 23 23 24 24 18 13 13 15 16 16 16 17 19 20

GFSMW_sfc_dewp_069.txt.gz
Dewpoint
32 33 32 34 39 39 37 38 40 39 59 63 62 62 62 63 62 64 65 65 64 63 61 61 60 60 58 57 57 56 56 56 54 51 50 47 46 44 43 42 41 53 57
32 32 38 40 41 41 41 40 39 38 39 46 53 61 62 62 63 63 63 64 64 64 63 61 61 61 60 59 58 58 56 55 54 53 48 51 49 43 43 41 41 40 52
32 36 39 41 43 44 45 45 44 41 39 39 40 43 46 60 61 61 61 62 63 63 63 63 62 61 59 59 58 57 57 58 56 54 56 48 47 44 43 41 41 40 43
35 39 41 43 44 45 46 45 45 44 43 42 40 38 40 42 48 49 53 49 54 59 61 62 62 61 60 59 59 58 58 56 57 53 54 54 48 48 48 43 43 45 44
37 40 42 44 45 45 44 43 43 43 43 44 42 41 40 42 43 43 43 44 48 54 54 57 60 60 60 59 59 58 57 57 57 55 54 54 54 49 48 50 49 46 46
40 41 44 44 44 44 44 43 44 44 45 46 45 44 43 42 43 46 47 47 49 51 51 52 54 57 58 58 58 58 58 57 57 57 58 56 54 52 51 49 49 48 47
41 43 43 43 43 42 42 43 43 42 44 46 47 47 47 47 47 47 47 48 49 49 49 50 50 52 55 56 57 57 56 56 56 56 57 56 57 56 55 53 52 48 45
42 42 42 43 42 42 41 42 41 41 43 45 45 45 46 47 46 46 47 46 47 48 48 48 49 50 51 55 58 57 56 55 54 53 53 55 55 55 55 53 51 47 43
41 42 42 42 42 41 40 41 39 39 42 43 42 41 41 40 40 39 39 42 43 44 44 46 46 46 46 48 50 51 51 52 52 52 51 51 50 49 49 51 51 50 46
41 41 41 42 42 41 40 39 38 39 40 40 40 39 39 38 37 37 36 36 36 37 37 39 39 41 41 43 45 45 46 48 47 47 46 45 44 44 44 45 46 46 46
41 41 40 42 41 40 39 38 38 39 39 39 38 38 37 37 37 36 36 35 35 35 36 36 36 36 37 38 40 41 41 43 42 42 42 41 41 41 41 42 42 42 42
40 40 39 41 40 38 38 37 38 38 38 38 37 37 37 37 36 36 36 36 36 36 36 36 36 37 37 36 37 37 37 37 37 38 39 38 39 39 39 39 38 38 38
39 38 37 40 38 37 37 37 38 37 37 37 37 37 37 37 36 37 37 38 37 37 37 37 36 36 36 36 36 36 36 36 36 37 36 37 37 36 36 35 36 36 36
37 36 36 38 37 36 37 37 37 37 36 36 36 36 36 38 38 36 36 37 38 37 37 36 36 36 35 35 35 35 35 36 37 38 38 37 36 35 34 34 32 35 35
36 36 37 37 36 36 37 37 37 36 36 36 35 35 37 37 37 37 37 37 37 37 36 36 35 35 35 35 34 34 35 35 35 35 36 37 38 38 37 36 35 34 34
36 35 36 36 35 36 37 37 37 36 36 35 35 35 37 37 37 37 37 36 36 36 37 37 37 37 36 38 38 34 33 33 32 32 33 34 33 32 36 36 36 35 31
36 35 35 35 35 36 37 37 36 36 35 35 35 36 36 36 36 36 35 35 35 35 35 36 36 36 37 37 36 35 31 29 26 24 24 27 28 28 27 30 31 30 31
36 34 34 34 36 36 37 37 36 36 35 35 36 36 36 36 35 35 34 34 34 33 33 31 30 30 31 32 31 31 18 20 19 19 20 21 25 28 27 25 26 23 23
34 34 33 34 35 36 36 36 36 36 35 35 36 36 36 36 35 34 33 33 33 29 24 23 21 24 25 30 29 25 22 21 21 22 25 26 26 29 28 23 23 22 21
33 32 33 33 35 35 36 35 35 35 34 35 35 36 36 35 34 34 33 29 28 24 22 22 23 30 26 30 29 24 20 20 20 21 22 28 27 27 25 21 19 17 19
32 33 33 33 34 35 35 34 34 34 36 36 36 36 36 35 34 34 32 22 27 21 19 22 23 24 26 25 28 28 23 21 21 22 22 23 26 24 24 23 18 18 22
33 33 33 33 34 35 34 33 34 37 36 35 36 36 35 34 34 31 27 26 24 24 22 21 20 20 22 28 26 27 25 24 20 20 22 23 27 25 21 19 22 23 23
35 35 34 33 34 34 34 33 34 36 36 36 35 35 35 34 32 28 26 25 23 21 19 17 14 13 18 21 27 26 25 25 22 22 24 22 21 19 18 20 21 23 19
35 34 33 33 34 34 34 34 36 36 35 35 34 34 33 32 29 29 27 26 21 19 14 12 11 13 16 21 23 22 22 24 23 24 19 17 16 17 17 17 17 18 18
35 35 33 33 34 34 35 35 37 36 35 34 33 32 32 32 27 23 17 17 14 14 10 10 11 13 14 20 24 24 22 22 24 22 16 12 13 14 14 15 17 18 19
36 35 34 34 34 34 35 36 37 36 35 34 33 31 29 24 19 18 21 23 22 27 27 21 17 17 21 23 24 24 24 24 24 20 15 13 15 16 15 16 16 18 19

GFSMW_sfc_dewp_072.txt.gz
Dewpoint
32 33 34 34 38 38 38 39 52 43 61 62 62 61 62 62 63 63 64 64 63 62 61 61 59 58 57 58 57 57 57 56 55 54 54 52 51 50 49 48 44 45 53
31 32 35 38 39 40 40 40 39 38 41 52 58 61 61 61 62 62 63 63 64 64 63 61 60 59 59 58 58 56 55 55 55 55 51 52 52 47 46 45 43 42 47
31 32 38 40 42 43 44 44 43 41 40 39 40 42 45 58 60 60 61 61 62 62 62 63 62 61 60 60 59 57 57 57 55 55 56 52 50 47 47 44 43 42 42
31 35 39 42 43 45 45 45 44 44 43 42 40 38 39 41 45 47 48 46 48 54 56 60 61 62 60 59 59 58 57 57 57 53 54 53 51 51 51 47 44 44 42
32 37 41 43 45 44 43 43 44 44 44 44 42 41 40 41 42 43 44 46 50 51 52 53 55 60 60 59 59 58 57 56 56 54 54 54 53 50 50 51 49 47 46
34 40 44 44 43 43 43 44 44 45 46 47 46 44 43 42 43 46 48 48 49 50 49 50 51 52 56 59 59 58 58 56 57 58 57 56 54 52 50 49 50 50 50
38 42 44 43 42 42 42 43 42 43 46 46 47 47 47 46 46 47 47 47 48 48 47 48 49 50 52 57 58 58 58 58 57 57 57 57 57 56 55 53 52 50 47
41 43 43 43 42 41 41 41 41 42 45 44 43 43 44 44 43 43 45 44 45 46 45 46 47 47 48 50 53 57 56 55 54 54 53 53 53 53 53 52 51 48 45
41 42 42 42 42 41 41 40 40 42 43 42 41 40 39 39 38 38 38 39 38 39 39 41 42 43 43 46 48 48 49 52 51 50 50 51 48 47 47 48 49 48 44
41 42 42 42 42 41 40 39 39 40 40 40 39 38 38 37 37 37 36 36 36 36 37 37 38 38 39 42 43 43 46 47 47 46 45 44 44 44 44 45 45 45 45
41 41 41 42 41 40 39 38 39 39 39 38 38 37 37 37 36 36 36 36 36 36 36 36 37 37 37 38 39 39 41 44 42 42 42 41 41 41 41 42 42 42 41
41 41 41 41 40 38 38 38 38 38 38 38 37 37 37 36 36 36 36 36 36 37 36 36 37 37 37 36 36 36 36 36 36 37 36 36 38 36 38 38 37 37 38
40 40 39 40 39 38 37 37 38 37 37 37 36 36 36 36 35 35 36 37 37 36 37 36 35 35 35 35 35 35 36 36 36 36 36 35 36 36 36 35 33 31 34
39 38 38 39 39 37 37 37 37 37 36 36 35 35 36 38 37 36 37 37 37 36 36 36 36 35 34 35 35 36 36 36 36 37 38 37 35 35 35 35 34 34 32
38 37 37 38 38 37 37 37 37 36 36 35 35 36 37 37 37 37 37 37 37 36 36 36 36 36 36 35 35 35 35 34 34 34 34 34 37 39 38 35 34 30 29
38 37 37 37 37 36 37 37 36 36 36 35 35 36 37 37 37 37 36 36 36 37 37 38 38 37 36 38 36 34 32 32 31 31 29 30 30 30 33 32 32 32 28
38 37 36 37 36 36 37 37 36 36 35 35 35 36 37 36 36 36 35 35 35 36 35 34 34 34 34 35 35 32 27 24 21 20 22 27 29 27 25 29 29 30 31
38 37 36 35 36 37 37 37 36 35 35 35 36 36 36 36 35 35 34 34 34 33 31 29 29 30 30 31 30 29 14 14 16 17 20 22 25 28 24 24 24 23 23
38 36 35 35 36 36 37 36 36 35 35 35 36 36 36 35 35 34 34 33 32 29 24 24 23 25 26 29 28 24 21 20 21 22 25 26 25 27 27 23 21 19 21
34 33 33 34 35 36 36 36 35 35 35 35 36 36 37 35 35 34 33 31 28 26 23 24 23 30 25 30 28 23 21 20 20 21 22 26 25 25 25 21 18 15 17
33 33 33 34 35 36 36 34 34 34 35 36 36 36 36 35 34 34 30 26 29 24 19 22 22 23 25 25 28 28 22 20 21 21 21 22 27 26 23 22 19 18 21
34 33 33 33 34 35 35 34 33 35 36 36 36 36 36 34 34 32 28 27 25 24 22 20 20 20 21 27 28 27 26 25 20 20 22 23 23 23 22 19 21 23 22
34 34 33 33 34 35 35 34 34 36 35 35 35 35 35 34 33 30 28 25 24 23 21 19 16 13 16 20 27 25 24 24 22 22 24 21 20 19 18 20 21 22 19
35 34 33 33 33 34 35 34 35 36 35 35 34 34 34 33 31 28 27 26 24 21 18 16 15 12 13 18 22 22 21 23 23 24 20 17 16 17 17 16 18 18 18
38 37 35 34 33 34 34 34 36 36 35 34 34 33 33 34 31 28 26 25 22 21 17 14 11 12 12 15 23 23 22 22 24 23 17 12 12 14 14 15 16 17 18
36 35 35 34 34 34 34 35 36 36 35 34 33 33 32 31 30 26 22 25 24 24 26 23 16 14 19 20 24 26 25 24 24 20 16 14 15 15 14 15 16 17 18

GFSMW_sfc_dewp_075.txt.gz
Dewpoint
35 33 34 35 38 39 43 51 62 61 64 64 64 64 63 65 65 65 64 63 63 63 64 64 63 62 61 61 61 60 59 59 59 57 57 57 57 56 55 56 55 53 52
33 33 34 37 38 39 40 41 45 44 54 62 63 64 64 64 64 65 65 65 65 65 65 64 63 62 61 60 60 59 59 58 58 58 56 55 55 54 52 52 50 50 48
33 32 36 39 42 42 43 43 42 41 42 42 44 47 50 59 62 63 63 56 58 62 64 65 64 64 62 62 62 60 59 59 59 58 58 55 53 50 52 50 48 47 46
33 33 37 40 42 45 47 46 45 45 44 44 41 41 42 44 48 48 48 46 52 53 54 56 60 63 63 62 62 61 61 60 59 57 57 57 54 53 52 52 50 48 48
33 33 38 43 45 46 46 45 45 45 46 45 44 43 42 43 44 45 47 48 51 51 51 52 53 57 60 61 62 61 60 60 59 58 57 57 56 54 53 51 53 53 52
32 35 42 45 44 45 45 46 46 46 48 48 47 46 45 44 45 48 48 49 50 50 49 50 51 53 56 57 60 60 60 60 59 59 58 57 55 54 52 51 51 52 53
32 38 44 44 43 44 45 44 45 46 47 47 47 48 48 48 48 48 48 47 48 48 47 48 49 50 51 53 57 59 59 59 59 58 58 58 57 57 55 54 53 52 52
34 40 44 44 43 43 43 43 44 45 45 44 43 43 44 44 43 43 44 43 44 45 43 44 45 45 47 49 52 56 56 56 56 55 54 54 52 51 51 52 51 48 48
38 42 43 43 42 42 42 42 43 44 43 42 41 40 40 40 39 39 39 39 38 38 39 40 41 41 43 46 48 50 52 52 51 51 51 50 48 48 48 48 49 49 45
41 43 43 42 42 41 41 41 41 42 41 40 40 39 38 38 38 37 37 37 37 37 38 38 39 39 40 42 44 46 47 47 47 47 46 46 45 45 45 46 46 46 46
41 42 42 42 42 40 40 39 40 40 39 39 38 38 37 37 37 37 36 36 37 37 37 38 38 38 38 39 41 41 43 43 43 43 42 41 41 41 41 43 43 42 42
42 42 42 42 40 39 38 38 39 39 39 38 38 37 37 37 37 37 37 37 37 37 37 37 37 37 37 37 38 37 38 38 38 38 38 38 38 38 38 38 37 37 39
41 41 41 41 40 39 38 38 38 38 38 37 37 37 37 37 37 37 38 37 37 36 36 36 36 36 36 37 37 37 37 37 37 36 36 36 36 36 36 36 36 37 36
41 40 40 41 40 38 38 38 38 37 37 37 36 37 38 38 37 37 37 37 37 36 36 36 35 36 35 36 36 37 36 37 37 37 37 36 36 36 36 36 35 35 36
40 39 39 40 40 38 37 37 38 37 36 36 36 37 38 38 37 37 37 37 36 36 36 36 36 36 36 35 35 35 35 35 34 33 32 34 37 37 36 35 35 33 32
40 39 38 38 39 38 37 37 37 36 37 36 36 37 37 37 37 37 37 36 37 37 38 37 37 37 36 37 37 34 33 33 32 31 31 32 30 31 32 32 32 32 30
38 39 38 38 38 37 38 37 37 36 36 36 36 37 37 37 37 36 36 36 36 36 35 35 35 35 35 36 33 29 26 27 28 28 31 30 29 27 27 29 29 31 31
39 39 38 38 37 37 37 37 36 36 36 36 36 36 37 36 36 35 35 35 34 32 31 31 32 32 31 30 30 29 27 27 27 28 28 29 28 28 22 22 26 24 25
38 39 37 37 37 37 37 37 36 35 35 36 36 36 36 36 35 35 34 34 33 30 29 28 29 30 30 29 27 24 23 23 23 23 27 26 26 26 27 22 19 15 21
38 36 35 36 36 37 37 36 36 35 35 36 36 37 37 36 35 34 34 33 30 29 28 29 28 30 29 29 27 23 20 20 19 20 21 26 25 24 25 21 18 16 20
34 34 34 35 36 36 37 36 36 36 36 36 37 37 37 36 35 34 32 30 29 27 26 26 25 25 26 27 30 27 20 19 19 19 19 22 26 26 23 23 18 21 22
34 34 34 34 35 36 36 35 35 36 36 36 36 36 36 35 34 33 29 30 28 26 24 22 21 22 22 28 28 28 28 26 20 19 21 23 22 21 20 19 21 25 22
34 35 34 34 35 36 36 35 35 36 36 36 36 36 35 34 34 32 29 28 26 25 23 19 17 14 15 20 28 26 25 26 23 21 24 21 19 19 17 20 21 21 19
34 34 33 33 34 35 35 35 35 36 35 35 35 35 34 33 32 31 30 28 26 24 21 18 17 16 13 16 20 22 23 24 23 24 23 18 16 16 17 15 17 18 18
36 36 35 34 34 34 34 35 35 36 35 35 34 34 34 34 32 30 28 27 25 23 20 19 16 14 12 13 19 23 21 22 23 25 20 16 12 13 13 14 16 17 17
39 39 38 38 37 36 35 34 35 36 35 34 34 34 34 34 32 31 30 31 30 29 29 27 18 13 18 20 24 27 28 28 26 22 20 15 14 14 12 13 14 16 18

GFSMW_sfc_dewp_078.txt.gz
Dewpoint
39 38 35 35 52 55 58 63 63 64 64 65 64 65 65 65 66 65 66 65 64 63 64 64 64 64 63 62 62 62 62 62 61 60 59 59 59 57 57 57 55 56 56
40 37 37 35 38 48 48 53 60 63 64 64 65 65 65 65 65 66 65 65 65 66 66 66 66 65 65 64 63 62 62 61 61 59 59 56 52 52 55 55 55 54 54
41 37 35 36 40 40 43 45 49 52 55 60 60 60 60 63 64 65 65 60 60 63 64 65 65 65 65 64 64 64 62 61 62 61 59 56 50 54 55 54 53 52 52
41 37 35 36 40 43 47 45 44 44 45 44 46 49 52 53 53 53 52 50 52 53 55 56 58 61 63 63 63 64 63 62 61 61 60 59 57 55 53 54 54 52 52
42 37 36 38 42 47 48 47 46 45 46 45 44 43 43 44 45 45 46 48 51 51 52 52 54 55 58 59 61 61 62 61 60 60 59 58 59 57 55 53 54 55 53
40 37 37 41 44 47 47 48 46 47 47 48 47 46 46 44 45 48 48 49 50 51 50 50 52 53 55 56 58 59 61 61 61 61 60 58 56 55 55 53 53 52 53
40 38 38 42 44 46 47 47 46 47 47 48 48 48 48 48 48 48 48 48 48 49 48 48 49 50 51 52 55 57 59 60 60 60 59 59 58 57 55 55 53 52 53
37 36 37 42 44 45 46 44 45 46 46 46 46 47 47 47 46 46 46 45 45 45 44 45 45 45 46 49 52 56 57 57 58 57 57 55 53 52 52 52 51 49 50
31 34 37 42 44 44 44 44 45 45 45 44 44 43 43 44 43 42 42 42 41 40 41 42 42 43 44 46 49 52 53 53 53 52 52 51 49 50 50 50 50 49 46
33 36 41 43 43 43 43 43 44 43 43 43 42 41 41 40 41 41 40 40 39 40 40 40 41 41 42 44 46 49 49 49 49 49 48 49 48 48 48 49 48 48 47
36 39 42 43 42 42 42 42 42 42 41 41 40 40 39 39 39 39 39 39 39 39 39 39 39 39 40 41 43 44 45 45 45 45 44 43 43 44 44 45 45 45 45
39 41 43 42 41 41 41 41 41 40 40 40 39 39 39 39 39 38 38 38 38 38 38 38 38 38 39 39 40 40 41 41 41 41 41 40 40 41 40 40 40 41 41
41 42 42 42 41 41 40 40 40 40 39 39 39 39 39 38 38 38 38 38 38 37 37 37 37 37 38 38 39 39 39 38 38 38 38 38 38 39 39 39 40 40 39
41 42 42 42 41 41 40 39 39 39 39 39 38 39 39 39 39 39 38 38 37 37 37 37 36 37 37 37 38 38 38 38 38 38 38 37 37 37 38 38 37 37 39
40 41 42 42 41 40 40 39 39 39 38 38 38 39 39 39 38 38 38 38 37 37 37 37 36 37 37 36 37 37 37 36 35 35 35 36 36 36 35 35 36 35 34
40 41 42 41 42 41 40 39 39 39 38 38 38 38 38 38 38 38 38 37 37 37 37 37 36 36 36 38 37 36 36 35 34 34 34 31 29 32 32 32 33 32 29
36 41 41 41 41 41 40 39 38 38 38 37 37 38 38 37 38 37 37 37 37 37 37 37 36 37 36 36 33 31 30 31 32 33 33 30 29 24 26 28 30 31 31
34 38 41 41 41 40 39 39 38 38 37 37 37 37 38 38 37 37 36 36 36 35 34 34 33 32 31 31 29 30 33 33 33 33 31 29 28 28 21 19 25 25 26
35 38 40 40 40 39 39 38 37 37 37 37 37 37 38 37 36 36 36 36 34 33 34 33 35 32 29 30 30 27 26 26 26 26 26 25 24 26 26 22 18 13 20
38 39 39 38 38 38 38 38 37 37 37 37 37 38 38 37 36 36 35 35 33 33 32 33 31 31 29 28 27 23 19 18 18 19 19 26 25 24 25 21 16 16 19
37 37 37 37 37 37 38 38 37 37 37 38 38 38 38 37 36 36 35 33 33 33 31 30 30 29 29 28 28 25 17 16 17 17 16 19 26 25 25 24 16 21 23
35 36 36 36 37 38 38 38 38 39 38 37 37 37 37 36 36 35 33 32 30 28 26 25 23 23 25 29 30 31 27 23 17 16 17 21 22 21 20 19 21 25 25
35 36 36 36 37 38 38 38 39 37 37 37 37 37 36 35 35 33 31 31 29 25 22 20 18 17 19 23 30 30 29 29 21 19 22 22 19 19 16 18 21 24 18
35 35 35 35 35 36 37 37 37 36 36 35 36 36 35 34 34 33 31 30 26 23 21 19 17 16 13 15 19 25 25 26 25 24 25 20 17 17 17 15 15 15 16
37 36 35 34 34 35 35 36 36 36 35 35 35 35 35 35 33 32 32 30 27 25 23 21 18 18 16 14 18 20 20 20 21 23 23 20 15 12 11 12 13 15 15
41 40 39 38 38 36 36 36 36 36 36 35 35 35 34 35 33 32 31 33 31 30 30 27 23 19 20 19 23 25 26 25 26 25 21 19 15 13 11 10 11 14 17

GFSMW_sfc_dewp_081.txt.gz
Dewpoint
42 39 37 39 54 63 63 64 64 64 64 65 65 64 64 65 65 64 64 64 64 63 63 63 63 64 63 62 62 62 62 63 63 62 61 60 60 59 59 58 57 56 57
41 39 38 37 40 55 57 61 62 64 64 64 65 65 65 65 64 66 65 65 65 65 65 65 65 66 66 64 64 63 63 62 63 61 60 58 56 53 53 57 56 55 56
39 41 38 38 38 45 50 51 57 62 63 64 65 64 64 65 65 65 65 63 61 64 64 64 65 65 65 65 64 64 64 62 63 62 60 56 52 54 56 56 55 54 54
38 42 39 36 38 40 47 46 48 51 52 56 59 61 61 60 58 59 59 55 54 55 56 56 57 59 63 63 63 63 63 63 61 63 61 61 59 56 53 55 55 54 53
39 42 40 39 39 45 49 47 46 46 46 46 46 47 46 47 46 45 46 47 51 51 51 52 53 54 56 58 58 59 59 62 61 61 60 59 59 58 56 53 54 56 55
39 42 40 39 42 49 50 49 46 46 46 47 46 46 49 46 45 47 47 48 49 50 50 50 51 53 53 55 57 57 58 59 59 60 60 58 57 56 55 54 54 54 53
39 42 39 40 43 47 49 48 47 46 47 48 47 47 48 48 48 48 48 47 48 49 48 48 49 49 50 50 53 55 56 58 58 59 59 59 58 58 56 55 54 53 53
39 43 40 41 43 46 47 46 46 46 46 47 47 47 48 47 47 47 47 46 46 46 45 45 46 45 46 47 49 53 55 56 56 56 57 55 53 53 53 54 52 50 51
34 38 40 39 42 45 45 45 45 45 45 45 45 45 45 45 45 44 44 43 43 41 41 43 43 44 44 45 47 50 52 53 54 53 52 51 50 51 51 51 52 50 47
32 32 36 38 42 44 45 45 45 44 44 44 43 43 42 42 42 42 41 41 40 40 41 41 41 42 42 43 45 48 49 50 49 50 50 49 49 49 49 49 49 49 48
33 34 38 41 43 43 44 43 43 43 42 42 41 41 40 40 39 39 39 39 39 39 40 40 40 40 40 41 42 44 45 46 46 46 45 44 45 45 46 47 46 46 46
36 37 40 42 42 43 42 42 42 42 42 41 40 40 40 40 39 39 39 39 39 39 38 38 39 39 39 40 40 41 42 43 42 42 43 41 42 42 42 42 42 42 42
38 39 40 41 41 42 41 41 41 41 41 40 40 40 40 39 39 39 39 38 38 38 38 38 38 38 39 39 39 39 39 39 39 39 39 39 40 40 40 41 41 41 40
39 40 41 41 41 41 41 40 40 40 40 40 39 40 40 39 39 39 39 39 38 38 38 37 37 37 38 38 38 39 39 39 38 38 38 38 38 38 38 38 38 38 39
38 40 41 41 41 41 41 40 40 40 40 39 39 40 40 40 39 39 39 38 38 37 37 37 37 37 37 37 38 38 38 37 36 36 35 35 35 35 35 35 36 36 36
36 39 41 41 41 41 41 41 40 40 40 39 39 39 39 39 39 39 38 38 38 38 37 37 37 36 36 39 38 37 36 36 35 35 34 32 30 33 32 33 33 32 31
32 38 40 41 42 42 42 40 40 40 39 39 39 39 39 38 39 38 38 38 38 38 38 38 37 36 36 36 36 36 34 34 34 34 33 30 27 25 27 28 30 31 30
35 35 37 41 42 42 42 41 40 39 39 39 38 38 38 38 38 38 37 37 37 37 36 37 36 35 33 31 31 33 33 33 34 34 33 31 30 28 23 22 26 26 26
32 33 33 39 42 42 41 40 39 39 39 39 38 38 38 38 37 37 37 38 36 35 36 35 36 32 30 30 29 28 30 29 29 27 26 25 25 28 26 25 21 16 22
35 37 38 41 41 41 40 39 38 38 38 38 38 38 39 38 37 37 37 36 35 34 35 35 33 31 29 29 28 24 21 20 20 20 23 27 27 25 26 23 18 19 22
38 39 40 39 40 39 39 39 38 39 39 39 38 38 38 38 37 37 36 35 34 34 33 31 30 28 27 26 27 25 19 18 18 19 17 21 26 25 26 24 20 22 24
37 38 38 38 38 39 39 40 40 41 39 39 38 38 38 37 37 36 34 33 31 31 30 27 26 26 26 30 31 29 27 21 19 18 17 23 22 21 21 21 19 24 27
37 38 38 38 39 39 39 39 41 39 38 38 38 37 37 36 36 34 33 32 30 30 27 23 21 21 22 24 31 31 31 30 24 21 22 23 20 19 19 18 21 26 22
35 36 36 36 37 38 38 38 39 38 37 37 37 36 35 35 35 34 32 32 31 30 24 20 19 19 19 20 23 29 29 29 28 24 27 24 20 18 18 17 19 19 17
37 36 36 35 35 36 36 36 37 37 37 36 36 36 35 35 34 33 32 31 32 30 23 22 21 20 19 17 20 22 24 24 25 24 24 23 20 17 15 14 15 16 17
42 40 40 38 37 35 36 36 36 37 37 36 36 36 35 35 34 33 32 35 34 32 32 32 25 22 23 20 23 24 25 25 24 24 22 21 21 18 14 13 13 16 18

GFSMW_sfc_dewp_084.txt.gz
Dewpoint
44 41 41 41 56 62 64 64 64 64 64 64 64 65 65 65 65 65 63 64 63 64 63 64 63 63 63 62 62 61 62 62 62 61 60 61 60 60 59 59 58 57 56
39 39 40 40 41 60 63 64 64 64 65 65 65 65 65 65 66 66 65 65 66 66 66 65 65 65 65 65 64 64 62 62 61 61 60 57 55 56 55 57 55 53 54
39 39 38 38 38 46 56 58 62 64 64 65 65 64 64 65 64 65 65 58 60 62 61 62 64 64 64 64 64 63 62 61 62 61 59 54 52 54 55 54 54 53 53
37 40 39 39 39 41 47 46 51 56 56 59 62 61 61 62 56 57 59 54 54 54 55 55 55 56 61 63 62 62 62 62 58 59 61 59 57 53 52 54 54 53 53
38 40 39 38 40 48 49 46 46 48 48 48 51 55 48 47 47 46 48 49 51 51 52 52 53 53 55 56 57 57 57 57 58 58 58 57 57 57 56 53 54 55 54
37 39 40 39 46 49 49 48 46 46 46 46 46 45 45 44 45 47 47 49 51 51 50 51 51 51 52 52 54 55 56 56 58 58 58 57 56 55 56 54 54 53 53
36 39 40 40 45 48 50 48 46 46 47 47 47 48 48 47 47 48 48 48 49 49 47 48 48 48 48 49 50 52 54 55 57 58 58 58 58 56 55 55 53 53 52
36 39 40 42 45 48 48 48 47 47 47 48 48 48 48 48 47 47 47 45 45 45 44 44 45 45 45 46 48 50 53 54 55 54 55 54 53 54 54 54 52 50 50
32 40 41 42 45 47 47 46 46 46 47 46 46 45 46 45 45 44 44 43 42 40 41 42 42 43 44 45 46 48 49 50 53 50 52 51 50 51 51 51 51 50 45
31 34 36 41 44 45 46 45 46 45 45 44 44 43 42 42 42 42 41 40 40 40 40 41 41 41 42 42 44 46 48 48 48 49 50 49 49 48 48 48 48 48 47
32 33 35 40 44 45 45 45 45 44 43 42 42 41 41 40 40 39 39 39 39 39 39 40 40 40 40 40 41 43 43 45 46 45 45 44 45 45 46 46 45 46 44
35 36 39 42 43 44 44 44 43 43 42 41 41 41 40 40 39 39 39 39 39 39 38 38 38 39 39 40 40 40 41 42 42 42 43 42 42 42 41 42 41 40 39
37 38 40 41 42 42 42 42 42 42 41 40 40 40 40 40 39 39 39 38 38 38 38 37 38 38 39 39 39 39 39 39 39 39 39 40 41 40 39 40 40 40 41
38 39 40 41 41 42 41 41 41 41 40 40 40 40 40 39 39 39 39 39 38 38 38 37 37 37 37 38 39 39 39 39 38 38 38 37 37 38 39 38 35 36 39
38 39 41 41 41 41 41 41 41 40 40 40 40 40 40 40 40 39 39 38 38 37 37 37 37 37 38 37 38 39 38 37 36 36 35 36 36 36 36 33 32 32 34
32 39 41 41 41 41 40 40 40 40 40 40 40 40 40 40 39 39 38 38 37 37 37 38 37 37 36 39 39 38 37 37 35 32 31 30 32 32 33 34 33 32 29
34 35 40 41 41 41 41 40 40 40 40 39 39 40 39 39 39 39 38 38 37 38 38 38 37 37 37 38 38 38 35 32 31 31 29 29 26 27 28 30 31 30 30
35 35 39 41 42 42 42 41 40 40 39 39 39 39 39 39 39 38 38 37 37 38 37 37 37 37 34 34 33 35 31 30 29 29 29 30 29 26 23 23 25 25 27
34 34 35 38 42 42 42 41 40 39 39 39 39 39 39 38 38 38 37 36 37 36 36 35 34 31 30 31 31 30 29 28 29 28 27 25 28 29 26 24 19 18 21
36 36 38 38 42 42 41 40 39 39 39 39 39 39 39 38 38 37 37 35 35 34 34 34 33 32 29 31 29 25 22 22 21 22 25 27 26 26 26 23 16 18 22
37 39 39 40 40 40 40 39 39 38 39 40 39 39 39 38 38 38 37 34 34 33 33 32 31 29 29 28 29 26 20 18 18 19 18 24 26 25 26 24 20 23 24
38 39 39 39 39 40 40 39 39 40 40 39 39 38 38 38 38 37 35 34 32 32 31 29 29 28 27 30 30 28 26 22 19 18 17 24 24 23 23 22 19 23 27
38 39 39 39 39 39 40 39 39 39 39 38 38 38 37 37 37 34 33 32 31 31 30 27 25 25 25 27 33 34 32 30 25 20 23 26 22 21 20 18 20 24 24
36 36 37 38 38 38 39 40 40 38 38 37 37 37 36 36 35 34 33 32 31 30 30 24 23 22 22 22 26 29 30 31 30 25 24 25 23 21 20 18 18 21 19
37 37 36 36 36 36 37 38 38 37 37 37 37 37 36 36 35 34 33 32 32 32 31 24 22 21 20 19 24 27 28 27 28 26 24 24 21 18 16 16 15 16 17
42 40 39 37 36 35 35 36 37 37 37 37 37 37 36 36 35 33 33 35 35 35 36 32 27 24 25 26 26 26 27 28 28 25 22 22 22 20 16 15 14 16 18

GFSMW_sfc_dewp_087.txt.gz
Dewpoint
44 39 42 50 58 63 64 65 65 65 65 65 65 65 64 64 64 65 64 64 64 64 64 64 63 64 63 62 63 62 62 62 62 61 60 60 60 60 60 60 59 56 56
41 40 40 39 47 61 64 64 65 64 65 65 65 64 64 65 66 66 65 66 66 66 65 65 65 65 65 65 64 64 63 62 62 60 60 55 54 55 55 56 55 53 54
39 38 39 39 39 54 61 63 64 64 64 65 65 64 64 64 64 64 61 59 60 60 60 61 63 63 64 63 64 63 62 61 62 61 59 54 51 53 54 54 53 53 52
40 39 37 38 37 44 53 54 61 64 63 65 63 63 62 62 60 64 59 58 55 54 54 54 54 55 57 58 60 60 60 61 59 59 59 57 58 54 51 54 54 53 53
38 39 38 39 38 45 47 48 51 55 54 57 62 61 55 53 53 53 53 51 51 51 52 52 53 53 54 55 55 55 55 55 55 56 57 56 57 55 54 50 52 54 53
38 38 39 39 42 47 48 46 46 46 52 49 50 50 45 45 45 46 47 50 51 50 50 50 50 51 51 51 52 53 54 54 54 55 57 56 55 53 53 52 51 53 52
37 38 39 40 47 47 48 48 49 50 51 47 47 46 44 44 45 47 48 49 50 49 47 47 47 47 47 47 48 50 51 53 53 54 56 57 55 55 55 55 53 51 51
35 38 40 40 46 48 48 47 47 48 49 47 48 48 48 49 48 48 47 46 46 45 44 44 45 44 45 45 47 48 51 51 52 52 53 54 53 53 54 54 53 50 51
32 38 40 41 46 47 47 47 47 47 48 48 47 46 46 45 45 44 44 43 42 40 42 42 42 43 43 43 44 46 48 48 50 50 51 51 51 51 51 52 52 50 46
32 36 40 42 46 47 47 46 47 47 46 46 45 44 44 43 43 42 41 41 40 40 40 41 41 41 41 41 42 45 47 46 47 48 48 48 49 48 48 48 48 48 48
32 33 37 43 45 46 46 46 46 45 44 43 42 42 41 41 40 40 40 40 39 40 39 40 39 40 40 40 41 42 42 44 46 45 45 45 45 45 46 46 46 45 45
35 35 37 43 44 44 45 45 45 44 43 42 41 40 40 40 39 39 39 39 39 39 38 38 39 39 39 39 39 40 41 42 41 42 42 42 41 41 41 42 41 41 41
36 38 40 42 43 44 44 44 44 45 42 41 41 41 41 40 39 39 39 39 38 38 38 38 38 38 38 38 38 39 38 38 38 39 40 41 41 40 40 41 40 39 40
37 38 40 41 42 43 43 42 42 42 41 41 40 40 40 39 39 39 39 38 38 38 37 37 37 37 37 38 38 39 39 38 38 38 38 37 38 38 39 37 36 38 39
38 39 40 41 41 42 41 41 41 41 40 40 40 40 40 39 39 39 39 38 38 37 37 37 37 37 38 37 38 39 39 37 36 36 35 36 37 37 37 32 31 33 34
36 39 40 41 41 41 41 41 40 40 40 40 40 40 40 40 39 39 38 38 37 37 37 37 37 37 36 39 39 38 37 36 34 33 32 32 33 33 34 33 33 31 30
33 34 39 41 41 41 41 40 40 40 39 39 40 40 40 39 39 38 38 37 36 37 37 37 37 37 37 39 40 39 36 34 33 28 27 26 27 28 29 31 32 32 32
34 35 36 41 42 42 41 41 40 40 40 39 39 40 39 39 38 38 37 37 36 35 37 38 37 37 36 37 37 36 32 29 26 27 28 28 26 24 25 25 26 26 26
37 36 35 37 42 42 41 40 40 39 39 39 39 39 39 38 38 36 36 37 35 35 35 36 36 34 33 34 35 31 28 28 28 28 26 28 28 26 26 22 21 22 24
37 38 39 39 39 42 41 40 40 39 39 39 39 39 39 38 37 36 37 37 34 32 35 34 33 32 29 32 31 30 27 26 26 26 25 30 27 28 27 19 17 18 22
37 38 39 40 41 42 41 40 39 39 39 40 39 39 39 38 37 36 37 36 34 34 34 33 32 31 29 29 31 28 20 20 20 20 19 25 29 28 27 25 20 22 24
38 39 38 39 39 40 40 39 39 39 40 39 39 38 38 38 38 37 36 35 34 33 32 31 30 29 29 31 31 29 27 23 19 19 18 22 27 26 26 24 23 25 27
37 39 38 38 39 40 40 39 39 39 39 38 38 37 37 37 37 36 35 33 33 32 31 30 29 27 27 28 32 31 28 28 21 20 21 28 26 24 23 23 23 24 25
36 37 37 37 37 38 40 40 39 39 38 38 37 37 36 36 36 35 34 33 32 31 31 30 28 26 24 25 26 31 32 33 30 25 25 26 25 23 20 20 20 23 23
36 36 37 37 37 37 38 39 39 38 37 37 37 37 36 36 35 35 34 33 33 32 31 30 27 24 22 22 25 28 29 29 30 28 24 25 22 20 18 18 16 17 18
39 39 37 36 35 35 36 37 38 37 37 37 37 37 36 36 35 34 34 37 36 36 36 35 29 24 27 27 28 29 30 31 32 28 23 23 23 22 19 16 15 16 19

GFSMW_sfc_dewp_090.txt.gz
Dewpoint
44 45 56 60 62 64 64 65 65 65 65 65 66 64 65 64 64 64 64 63 63 63 63 63 63 63 63 62 62 62 61 62 62 61 60 59 59 59 60 60 59 58 56
42 41 42 53 59 62 64 64 65 65 65 65 65 64 64 64 65 66 65 66 66 65 64 64 65 65 65 64 64 64 63 62 62 59 58 54 54 55 54 55 55 54 54
41 41 39 40 46 61 63 64 65 64 65 65 65 63 64 64 64 62 62 63 62 62 62 63 64 64 64 63 63 63 62 61 61 59 57 55 51 53 54 54 53 53 53
40 40 39 39 39 50 61 63 63 64 64 64 64 62 62 61 62 63 60 60 58 57 56 55 55 55 57 57 58 58 57 57 56 56 58 57 58 55 51 53 53 53 53
40 40 39 39 39 41 55 58 61 62 62 63 63 63 61 61 58 59 57 56 53 52 52 52 53 53 54 54 55 55 54 55 54 55 55 55 55 54 55 52 51 52 50
38 38 40 39 39 43 48 51 55 57 56 56 61 61 58 53 54 53 53 51 50 50 50 50 50 51 50 50 51 51 52 53 54 54 54 53 52 52 53 52 51 50 49
37 37 39 39 41 45 47 47 48 50 54 52 55 55 55 53 53 52 53 51 51 48 47 48 47 47 47 47 48 49 50 51 52 52 52 53 53 55 55 53 52 53 49
34 36 39 39 42 45 47 46 48 48 50 52 53 54 51 52 51 51 52 51 49 46 45 45 45 45 44 45 46 47 49 49 51 50 51 51 51 53 54 55 53 51 51
31 37 38 40 45 46 47 46 46 47 48 49 49 50 47 47 46 45 45 45 43 42 42 43 43 43 43 43 43 45 47 47 49 49 49 49 49 49 51 52 52 50 47
32 36 40 40 45 46 47 46 46 47 48 47 47 45 45 44 43 43 42 41 41 41 41 41 41 41 41 41 41 43 46 45 46 46 47 47 47 47 48 48 48 48 47
32 33 38 42 45 46 46 46 46 46 46 45 44 44 43 42 41 41 40 40 40 40 40 40 40 40 40 40 40 41 42 43 44 44 45 45 44 44 46 46 46 46 46
34 34 36 42 44 45 45 45 46 46 45 44 42 42 42 41 40 40 40 40 39 39 39 39 39 39 39 39 39 39 40 41 41 42 42 42 41 42 42 42 42 42 42
37 37 40 42 43 44 44 45 45 45 44 42 41 40 40 40 39 39 39 39 39 38 38 38 38 38 39 38 38 38 38 38 38 39 41 41 41 40 40 41 41 41 41
36 37 39 41 42 43 44 44 44 43 42 42 41 41 41 40 40 39 39 39 38 38 37 37 37 37 37 38 38 38 37 37 37 38 38 38 39 39 39 38 37 39 40
35 38 38 40 42 43 43 43 42 42 41 41 41 40 40 40 40 40 39 38 38 38 37 37 37 37 37 37 39 40 39 38 37 37 36 37 39 38 37 35 32 35 37
32 37 39 40 41 41 42 42 42 41 41 40 40 40 40 39 39 39 38 38 37 36 37 37 37 36 36 39 40 39 38 37 36 34 33 34 33 35 35 34 33 33 32
33 33 34 39 41 41 42 41 41 41 40 40 40 40 40 39 39 38 37 36 36 35 35 36 36 35 38 40 41 40 37 35 34 31 28 27 29 29 29 32 34 33 33
35 35 36 36 40 42 42 41 41 40 40 39 40 40 39 39 38 37 36 35 35 35 35 35 36 37 36 39 40 38 34 33 32 27 27 25 23 23 27 26 26 25 25
37 37 37 37 37 42 42 41 40 40 40 39 39 40 39 38 37 36 35 35 35 34 34 36 37 36 35 37 37 34 31 30 28 29 28 28 26 27 26 24 24 23 25
37 37 37 39 39 41 41 41 40 40 39 39 39 40 39 38 37 36 35 35 36 33 34 34 35 35 32 35 35 30 26 25 26 26 26 31 28 28 28 20 19 19 21
37 38 39 39 39 40 41 41 40 39 40 40 39 39 39 38 37 35 35 35 35 34 34 34 33 32 30 30 32 31 25 24 24 24 23 27 30 29 27 22 19 20 24
37 38 38 38 39 39 41 40 40 40 40 40 39 39 38 38 37 35 34 35 35 34 33 33 32 31 30 32 32 31 28 25 20 20 19 22 29 28 28 26 24 27 26
37 38 38 38 38 39 40 40 40 40 40 39 39 38 38 38 36 35 34 35 34 33 32 32 30 29 29 28 33 33 31 28 21 20 22 25 28 27 26 27 24 24 25
36 37 37 36 37 38 39 40 40 39 39 38 38 38 37 37 36 36 35 34 33 33 32 31 30 29 27 26 27 30 30 29 28 24 25 27 28 26 23 22 21 23 25
36 37 37 37 37 37 39 39 38 38 38 38 37 37 37 37 35 35 35 34 34 33 32 32 31 29 27 25 28 28 30 30 31 26 24 25 24 22 21 19 18 18 21
39 37 36 37 37 37 38 39 39 38 38 37 37 37 36 37 36 35 35 37 36 36 36 35 32 29 31 30 31 31 31 33 34 30 24 22 24 23 20 18 17 16 18

GFSMW_sfc_dewp_093.txt.gz
Dewpoint
51 51 59 62 63 63 64 64 65 65 66 65 65 65 65 65 65 65 63 63 62 62 61 62 62 62 62 62 62 62 62 62 62 61 58 58 57 57 57 56 57 59 58
43 43 45 58 61 63 64 64 65 65 65 64 65 65 65 64 65 65 65 64 63 63 63 63 63 64 64 64 64 63 63 62 62 58 58 53 54 54 54 54 54 54 54
41 43 40 47 53 60 62 64 64 65 65 65 65 63 63 63 63 63 63 64 64 64 64 64 64 64 64 63 63 63 62 61 59 58 56 53 50 52 54 54 53 52 52
41 41 41 40 41 46 60 62 64 64 64 64 63 62 62 61 62 61 61 61 61 61 60 60 59 58 59 58 58 58 58 57 56 55 56 56 56 53 51 53 53 53 51
40 41 41 41 40 41 45 59 61 62 63 63 64 63 61 61 60 60 59 57 57 56 56 55 54 55 56 55 55 55 54 54 54 54 54 53 53 54 53 48 50 50 48
40 40 41 41 40 40 44 53 58 60 59 61 62 61 61 59 58 58 58 56 55 53 53 53 52 52 50 50 50 50 51 52 52 53 53 53 51 50 49 50 52 51 48
39 39 38 39 40 41 45 49 54 56 55 55 59 59 59 58 58 58 56 54 53 53 52 52 49 47 47 47 48 48 49 50 50 51 51 52 52 53 53 53 52 51 47
35 36 37 39 39 40 44 47 49 51 54 53 53 54 55 56 56 55 55 54 54 51 46 45 45 45 45 45 45 46 47 49 50 50 50 50 50 50 51 52 53 50 49
30 34 39 38 39 41 44 46 47 48 49 50 51 51 53 53 53 52 52 51 48 45 43 43 43 42 42 43 43 44 45 47 47 48 48 48 48 48 49 50 52 51 48
31 33 38 40 41 44 46 46 46 47 48 48 48 48 48 50 48 45 43 42 41 42 41 41 41 41 41 41 41 42 44 45 45 46 45 46 46 46 46 47 48 49 49
31 32 35 41 43 45 46 46 46 47 47 47 45 45 44 44 44 44 43 41 41 41 40 40 40 40 40 40 40 41 42 42 43 44 43 44 45 43 44 44 46 46 46
34 35 36 40 42 43 44 45 46 46 46 45 44 43 42 42 41 42 42 41 41 40 40 40 39 39 39 39 39 39 40 40 40 42 41 42 42 41 41 42 42 42 43
35 36 37 40 41 42 43 44 45 45 44 43 42 41 41 40 39 39 39 39 39 39 38 39 38 38 38 38 38 38 37 38 38 39 40 41 41 40 41 41 41 41 41
34 36 37 38 41 42 43 44 44 44 43 42 41 41 40 40 39 39 39 39 39 38 38 38 38 38 37 38 38 37 37 36 37 38 39 39 39 39 39 38 38 39 40
30 34 37 38 40 41 42 43 43 43 42 42 41 40 41 40 40 39 39 39 38 38 37 37 37 37 37 37 37 39 39 38 37 37 37 38 39 39 38 37 35 37 38
31 31 36 38 39 40 42 43 43 42 42 41 41 40 40 39 39 38 38 37 37 37 37 37 37 36 37 38 40 40 39 38 36 35 34 34 34 36 36 34 34 34 35
33 34 34 34 36 39 41 42 42 42 41 41 40 40 40 39 38 38 37 36 35 35 35 35 35 35 36 40 40 41 38 36 35 33 31 29 30 31 30 34 34 34 33
34 34 35 36 37 37 41 42 42 41 40 40 40 40 39 38 38 37 36 35 34 34 34 35 35 35 36 39 40 40 34 34 33 31 28 25 23 25 27 26 24 25 26
35 36 37 37 37 38 40 42 41 41 40 40 40 40 39 38 37 36 35 34 34 33 33 34 34 34 36 38 40 36 33 32 30 28 28 24 23 26 29 26 23 24 25
37 37 37 37 38 39 40 41 41 40 40 40 40 40 39 38 37 36 35 34 34 33 35 34 34 36 35 37 38 35 30 28 28 26 26 32 28 29 27 22 22 20 23
37 37 38 38 38 39 39 40 40 40 41 40 40 40 39 38 38 36 34 34 33 35 35 35 35 34 34 31 36 34 25 24 25 25 25 26 32 31 28 25 19 19 24
37 37 38 38 38 39 39 40 39 40 40 40 40 39 38 38 37 36 34 33 34 35 34 34 33 32 31 34 34 33 31 27 23 22 22 22 31 30 29 28 23 26 27
37 37 38 37 38 38 39 39 38 40 40 40 39 39 38 38 37 35 34 34 35 35 34 33 32 32 31 30 33 33 33 31 24 20 22 24 27 29 27 29 27 27 24
37 36 37 37 36 37 39 39 39 40 39 39 39 38 38 37 37 36 35 34 33 34 33 33 32 31 30 29 28 29 31 33 28 26 24 25 27 29 26 25 25 24 26
39 36 37 37 37 37 37 37 39 40 40 40 39 39 38 37 36 36 36 35 35 35 33 33 32 31 30 29 30 28 29 29 28 26 23 25 25 24 22 20 19 21 24
41 37 38 38 38 38 39 39 39 39 38 38 38 38 37 37 36 36 35 37 37 38 37 36 34 32 34 33 34 33 32 34 35 29 23 23 25 24 22 20 19 19 20

GFSMW_sfc_dewp_096.txt.gz
Dewpoint
53 59 61 63 63 63 61 64 63 64 65 65 65 65 64 65 65 64 63 61 60 60 58 59 59 61 61 61 61 62 61 62 62 61 57 57 57 56 55 55 55 57 57
44 43 53 60 62 62 63 64 63 63 65 65 65 64 65 65 65 65 64 63 62 62 61 61 61 62 63 63 62 62 62 62 62 58 57 52 53 53 54 53 54 53 53
41 42 42 56 59 61 63 64 63 63 64 64 64 63 63 63 63 63 64 64 64 63 63 63 64 63 63 62 62 63 61 58 58 57 56 52 49 50 53 53 53 52 52
41 41 42 41 51 56 60 62 63 64 64 64 64 63 62 62 63 63 62 62 62 62 62 63 63 62 61 61 60 60 59 58 56 55 56 54 54 53 50 52 51 51 50
41 41 41 42 42 42 49 59 61 62 62 63 64 63 62 62 61 61 60 60 59 59 59 59 58 58 58 58 58 56 55 55 54 54 53 52 52 52 51 48 48 49 48
40 41 41 41 41 41 42 47 57 60 61 61 63 62 61 60 59 59 58 57 56 56 56 55 54 53 53 52 51 51 51 52 51 52 52 51 50 49 48 48 47 48 47
39 40 40 40 40 41 41 45 51 56 58 58 61 61 60 59 59 59 57 55 55 54 53 52 50 48 47 48 48 48 48 49 50 51 50 51 51 53 52 50 49 49 47
36 37 38 39 39 39 40 44 49 53 55 53 55 56 56 57 57 57 56 55 54 53 52 49 47 45 45 45 45 46 47 49 49 49 49 49 49 49 50 50 50 49 48
32 35 39 39 38 38 40 43 47 50 53 53 53 53 53 53 54 55 55 55 53 51 48 47 46 45 43 43 43 44 44 46 46 47 47 47 48 48 48 49 51 49 46
31 32 34 40 40 42 43 45 47 48 49 50 49 50 51 51 51 51 50 50 48 46 44 43 42 42 41 41 41 42 43 45 45 46 45 45 45 46 46 46 47 49 49
32 33 34 39 43 43 44 45 46 47 47 47 46 46 47 47 47 47 45 44 43 42 42 41 41 40 40 40 40 41 41 41 42 42 43 43 43 44 45 44 45 45 46
35 35 36 39 41 42 43 44 45 46 46 46 45 44 44 43 42 42 41 41 41 41 40 40 40 40 39 39 39 39 39 39 40 41 42 42 42 42 42 42 40 42 43
32 34 35 37 39 40 42 44 44 45 45 45 44 42 42 41 40 40 40 40 39 39 39 39 39 39 39 38 38 38 38 38 37 38 40 41 41 41 41 41 41 41 42
31 32 34 36 38 40 41 42 43 44 44 43 42 42 41 40 40 40 40 39 38 38 38 38 38 38 38 38 38 38 37 37 37 37 38 39 40 40 40 39 39 40 40
31 31 31 34 37 39 41 42 42 43 42 42 42 41 41 40 39 39 39 39 39 38 38 38 37 37 37 37 37 38 38 38 37 37 37 39 39 40 39 38 37 37 39
32 32 33 34 36 38 39 41 42 42 42 41 41 41 40 40 39 39 38 38 38 37 37 37 36 36 37 38 40 39 38 39 37 36 35 35 35 37 37 35 35 36 37
33 34 34 35 35 35 37 39 41 42 41 41 41 40 40 39 38 37 37 36 35 35 35 35 35 35 35 39 40 41 38 37 36 35 33 31 32 31 31 34 34 33 34
34 34 35 36 37 37 37 39 41 41 41 40 40 40 39 38 37 36 36 35 34 34 34 34 34 34 35 39 40 41 35 34 34 33 31 29 26 28 28 25 24 25 27
35 36 37 37 37 37 38 39 40 40 40 40 40 40 39 38 37 36 35 34 34 33 33 33 33 33 33 39 40 37 34 33 32 29 27 24 21 24 31 25 23 23 25
37 37 37 37 38 38 39 40 40 39 40 41 41 40 39 38 37 36 35 34 33 33 35 34 32 35 33 37 39 36 32 31 30 28 27 31 26 28 29 23 21 21 22
37 37 37 37 38 38 38 38 39 39 41 41 40 40 39 38 38 36 34 34 32 33 34 35 34 34 34 33 38 38 30 29 28 26 25 26 33 30 29 25 21 20 23
37 38 37 37 38 38 38 38 38 40 40 40 40 39 38 38 37 36 33 33 33 33 33 35 34 34 33 35 35 37 32 27 23 23 24 24 30 31 30 28 23 23 26
39 39 38 37 38 38 38 38 39 39 39 39 40 39 38 38 37 35 34 33 33 33 33 34 33 33 32 31 35 35 35 34 25 22 23 26 27 32 30 30 29 28 24
36 39 38 36 37 37 38 38 39 39 39 39 39 39 38 38 37 36 36 35 34 33 33 34 33 33 32 31 30 32 32 33 31 29 26 26 26 28 28 27 28 25 26
37 40 40 39 37 38 37 38 38 39 38 37 39 39 39 38 37 36 36 36 35 35 34 34 33 32 31 31 32 30 28 29 30 25 23 24 25 25 24 22 21 21 24
40 39 40 41 38 39 38 38 39 40 40 40 39 39 39 38 37 37 36 38 37 38 38 36 34 33 35 35 35 35 33 33 34 27 23 23 24 25 23 22 21 19 21

GFSMW_sfc_dewp_099.txt.gz
Dewpoint
59 59 60 63 62 62 61 61 61 61 63 65 65 65 64 65 66 65 63 63 62 62 61 61 61 60 60 60 60 60 60 62 63 62 59 59 58 56 56 56 57 58 58
52 59 60 62 62 61 60 61 61 61 62 64 65 66 65 66 66 66 65 64 63 62 62 61 60 59 60 61 62 63 63 62 63 59 58 55 53 55 55 55 54 55 56
45 48 56 60 61 61 60 60 62 62 62 65 65 64 65 65 65 65 65 65 64 65 64 63 63 62 63 64 64 64 62 61 61 60 58 54 52 54 55 54 53 53 54
44 44 46 50 57 60 62 61 62 62 63 64 64 63 62 61 63 64 64 63 64 63 63 64 64 64 63 62 61 61 61 61 59 59 58 58 57 54 51 54 53 52 51
44 45 44 45 49 51 58 61 62 63 64 63 64 64 62 63 63 63 61 60 59 59 59 60 60 59 59 58 58 58 58 58 58 58 57 56 56 58 55 50 52 51 50
42 41 42 43 43 46 46 52 60 61 62 63 64 63 62 62 62 61 61 58 58 57 57 56 55 55 54 54 54 53 54 54 54 55 55 54 52 52 53 53 53 52 50
39 40 41 42 43 44 44 45 49 54 60 62 62 63 62 61 61 61 59 57 56 55 54 53 52 52 51 50 49 49 50 51 52 53 53 54 54 54 53 52 51 52 50
36 37 38 39 41 42 42 43 46 50 57 58 60 61 61 60 60 60 59 58 56 55 54 53 52 50 49 48 48 49 49 50 51 51 52 53 53 53 53 52 51 49 49
35 35 38 40 41 40 40 42 44 49 55 55 55 56 57 58 58 58 58 56 55 54 53 51 49 48 48 47 46 45 46 48 48 49 51 51 51 51 51 51 50 47 45
32 34 34 40 43 43 45 45 46 48 52 54 53 53 54 55 55 56 55 54 53 52 50 48 47 45 44 43 43 43 44 46 47 47 47 47 48 49 49 49 49 50 49
34 35 36 38 42 44 45 45 46 48 49 49 49 50 51 52 52 53 52 51 49 48 47 44 42 41 40 41 41 42 42 42 43 44 45 45 46 46 46 47 46 47 47
34 35 36 38 39 42 44 45 46 46 47 47 47 47 47 48 47 46 44 44 43 42 42 41 40 40 40 40 40 40 40 40 41 42 44 43 43 44 43 43 43 44 45
33 32 34 36 38 40 43 44 45 46 46 46 45 45 44 44 44 43 42 42 41 40 40 40 40 39 39 39 39 39 39 39 40 41 42 42 42 42 42 42 42 43 42
33 32 32 33 37 39 41 43 44 45 45 45 44 44 43 43 42 42 41 41 40 40 39 39 39 39 39 39 39 39 39 39 39 39 40 40 41 41 41 41 41 41 41
33 33 33 34 36 38 39 42 43 44 44 44 44 43 42 42 41 41 40 39 39 39 39 38 38 38 38 38 39 39 39 39 39 38 38 39 40 40 40 39 39 38 39
33 34 34 35 35 35 36 39 41 43 44 43 43 43 42 41 40 40 39 39 39 39 39 38 38 39 37 41 41 39 39 40 39 37 37 37 36 38 37 37 36 36 38
34 34 35 35 35 36 37 37 38 41 43 43 43 42 41 40 40 39 39 39 39 38 38 38 38 37 38 40 41 41 39 39 39 37 36 32 34 33 35 35 32 33 35
35 36 36 37 37 38 37 38 38 40 41 42 42 42 41 40 39 39 39 38 37 37 37 37 37 37 37 40 41 41 37 37 37 36 35 32 29 30 30 26 26 28 29
36 36 37 37 37 38 38 38 39 40 41 41 42 42 41 40 39 38 38 37 37 37 37 37 37 37 37 40 41 39 37 35 34 31 28 25 23 25 32 26 24 24 29
37 37 37 38 38 38 38 39 39 40 40 40 41 42 41 40 39 39 37 37 37 36 36 36 36 37 36 39 40 38 35 34 32 29 28 32 24 27 32 24 22 21 25
37 38 38 38 38 38 38 38 39 39 40 41 42 41 41 40 39 38 37 37 36 36 36 36 35 36 36 36 39 40 33 33 31 30 27 26 33 31 31 27 22 20 23
33 35 36 39 39 39 38 38 38 40 41 41 41 41 40 40 38 38 36 36 35 35 35 36 36 36 35 37 38 40 36 33 30 29 26 25 31 33 32 30 24 24 27
31 33 34 35 38 40 39 38 39 39 40 40 40 40 39 39 38 37 36 35 35 35 35 36 35 34 34 33 37 38 38 30 23 23 24 27 30 33 32 32 29 28 24
34 36 37 37 39 39 39 38 38 39 39 40 40 40 39 38 37 37 36 36 35 35 35 35 35 34 34 33 32 35 36 36 33 29 28 27 28 28 30 29 31 27 25
37 38 39 39 39 38 38 38 38 39 39 39 39 39 39 38 37 37 36 36 36 36 35 35 35 34 33 33 34 33 32 32 32 29 24 25 25 25 27 25 25 25 27
36 38 39 38 39 38 40 39 39 40 39 38 38 39 39 39 38 37 37 38 38 39 38 38 36 35 35 36 36 36 35 35 34 26 23 22 24 25 25 24 22 21 24

GFSMW_sfc_dewp_102.txt.gz
Dewpoint
56 60 58 62 62 61 61 61 61 61 61 63 64 65 64 64 64 64 63 62 62 62 64 64 63 62 60 58 58 59 59 60 60 60 57 57 57 56 56 56 56 57 58
57 57 56 58 61 61 61 61 62 61 61 62 63 64 65 66 66 66 65 63 63 64 63 63 62 62 61 59 59 60 62 61 60 56 57 53 51 54 55 56 55 56 57
55 55 55 58 61 61 61 61 61 62 61 62 64 65 66 66 66 66 66 66 66 66 65 64 64 63 62 60 62 63 63 60 61 60 56 53 49 52 54 55 54 54 55
49 53 56 58 59 60 62 61 61 62 62 63 64 62 61 62 63 65 66 65 65 65 64 64 64 64 64 64 64 63 63 62 61 61 59 59 58 53 48 54 54 53 53
46 49 52 56 60 61 62 61 61 61 62 63 63 62 62 63 63 64 63 62 63 63 63 64 63 60 59 58 58 58 58 58 59 60 59 57 57 56 53 47 49 53 52
45 45 45 46 49 55 60 62 61 61 62 62 63 63 62 62 62 62 63 61 60 60 60 60 59 58 57 55 54 55 55 55 55 55 55 53 47 47 50 49 48 48 50
41 41 41 43 44 46 48 50 58 61 62 63 63 63 63 61 62 62 62 60 58 57 57 57 57 57 56 54 53 53 53 53 54 54 54 54 53 52 51 50 49 49 51
37 38 39 41 41 43 44 44 44 47 53 59 62 63 63 63 63 63 62 60 58 57 56 56 56 55 53 52 51 52 52 52 52 52 52 51 52 53 52 51 50 48 48
35 36 38 41 43 42 41 42 43 45 49 54 58 61 61 60 61 61 61 60 58 57 56 55 54 53 52 51 50 50 49 50 50 51 52 51 51 52 52 52 51 49 45
34 35 36 39 42 44 45 45 43 44 48 53 56 57 57 59 60 59 59 58 57 55 54 53 52 50 50 48 47 46 46 47 48 48 48 49 49 50 50 51 50 49 48
34 34 35 38 41 44 46 45 46 47 49 53 54 54 54 55 56 57 57 57 55 54 52 51 49 47 45 43 43 43 44 44 45 46 46 46 47 47 47 48 48 48 49
34 33 35 36 37 40 44 46 46 47 49 50 49 50 51 53 54 54 54 53 52 52 51 48 45 42 41 41 41 41 42 42 42 43 44 44 44 46 45 45 45 46 46
34 33 33 33 34 37 40 43 45 46 47 47 47 48 49 50 51 52 50 49 48 48 46 44 42 41 41 40 40 40 40 40 41 42 43 44 44 44 43 43 43 44 43
33 34 34 34 35 36 38 39 42 44 46 46 46 46 46 47 48 48 47 47 47 44 43 42 41 41 40 40 40 40 40 40 40 42 42 42 43 43 43 43 42 42 42
34 35 35 35 35 34 35 36 38 41 44 45 46 46 46 45 45 45 45 44 43 42 41 41 40 40 40 39 40 40 40 40 40 41 40 41 41 40 41 40 41 41 40
34 35 35 36 36 36 37 38 38 38 40 43 45 46 45 44 44 44 43 42 42 41 41 40 40 41 38 41 42 41 40 40 40 40 40 40 39 39 39 38 37 38 38
34 35 35 36 36 37 37 37 38 38 39 40 41 44 45 44 43 43 42 42 41 41 41 40 40 40 39 42 42 41 40 40 41 40 39 36 35 36 38 37 36 35 36
31 33 34 36 37 37 37 38 38 39 39 40 40 42 44 44 43 42 42 42 41 41 41 41 40 40 39 42 43 42 41 41 41 40 38 36 34 33 32 29 28 27 29
31 32 33 34 36 37 37 37 38 39 39 40 41 41 43 44 43 42 42 43 42 42 42 40 41 40 39 42 42 42 40 38 38 36 34 32 29 31 32 27 26 24 29
30 31 31 33 35 34 35 36 36 38 39 40 40 41 43 43 43 43 42 42 41 41 41 40 40 40 39 41 41 40 38 36 35 32 30 31 24 28 33 25 23 22 26
31 31 31 31 32 33 35 36 37 39 40 41 41 42 43 44 43 43 43 42 42 40 39 39 38 38 38 39 41 40 36 35 34 33 30 30 32 29 32 29 22 21 25
33 34 34 35 36 37 36 36 38 40 40 41 41 42 43 42 43 43 42 40 38 37 37 37 37 37 37 39 40 41 38 37 34 33 32 31 33 33 33 32 25 25 25
30 33 33 35 37 38 40 39 40 38 39 40 40 41 42 42 42 41 40 38 37 37 37 37 37 37 37 37 39 40 40 38 32 30 30 29 32 34 33 32 28 27 24
32 33 33 35 37 37 38 39 38 38 38 39 39 40 41 41 40 40 39 38 37 37 37 37 37 37 36 36 37 38 39 35 28 26 27 27 28 32 31 32 30 27 26
31 31 33 36 36 37 38 39 40 39 38 39 40 41 41 40 39 39 38 38 37 38 37 37 37 36 35 36 36 37 36 35 32 29 26 24 24 25 29 29 30 28 28
30 31 34 35 35 37 37 39 40 40 39 39 40 41 40 41 39 38 38 40 40 40 40 39 37 36 37 38 37 36 37 37 37 30 27 24 23 23 24 25 25 27 28

GFSMW_sfc_dewp_105.txt.gz
Dewpoint
51 58 58 60 61 60 62 61 62 62 62 64 64 63 63 63 63 62 62 61 61 63 64 63 63 65 61 59 58 58 57 59 60 58 59 58 56 56 56 56 55 57 57
55 57 57 57 57 60 61 62 62 62 62 63 63 65 65 65 64 64 63 62 62 63 63 64 65 65 64 62 59 58 59 60 61 59 58 53 52 55 54 55 55 55 56
55 55 55 56 57 59 61 61 61 62 62 62 63 64 65 65 65 66 65 65 64 66 66 65 65 65 65 64 63 63 62 62 63 62 56 53 52 52 55 55 54 54 55
55 55 55 56 58 58 61 61 61 61 62 62 62 62 62 62 64 65 66 66 66 66 66 66 65 64 64 64 61 62 63 63 61 62 61 61 58 54 48 55 55 54 53
54 55 56 57 58 59 60 61 61 61 61 62 62 63 61 62 64 64 63 64 64 65 65 65 64 63 61 60 59 59 58 59 60 60 59 57 57 57 54 50 51 54 53
50 53 55 57 58 60 60 61 61 60 60 61 61 62 61 61 62 62 62 63 63 63 63 64 63 62 60 59 58 58 58 57 57 57 57 54 53 53 51 49 48 48 52
47 48 48 48 49 55 59 60 60 60 60 61 61 61 61 60 61 61 61 61 61 59 59 60 60 60 60 59 58 57 56 55 54 54 54 55 53 53 52 50 49 49 51
41 41 43 45 46 48 49 51 56 59 59 61 60 61 61 61 61 62 62 62 61 60 58 58 59 58 58 57 56 55 54 54 54 54 53 53 53 53 53 52 51 49 48
38 39 41 42 42 43 44 45 46 47 51 57 60 61 62 62 62 62 62 62 60 59 58 58 57 55 54 53 51 51 51 51 52 53 53 52 52 53 53 53 52 50 46
34 36 37 40 43 45 45 45 43 43 46 50 54 56 60 61 61 61 61 60 59 57 56 55 54 52 52 51 52 51 51 51 50 51 51 51 51 51 52 52 52 51 49
33 34 36 38 40 43 46 46 46 45 47 51 53 55 56 58 59 59 59 59 58 56 55 54 52 52 51 50 49 47 47 47 47 47 48 48 49 49 49 50 49 49 49
33 33 34 35 36 38 41 44 46 46 48 49 51 52 53 54 55 56 57 57 56 55 54 53 51 51 49 47 45 44 44 44 45 45 46 46 46 47 47 47 47 47 48
34 34 34 34 34 35 37 39 42 45 46 47 47 48 49 50 52 54 54 54 54 53 52 50 50 48 45 42 41 42 42 42 42 43 43 44 45 45 45 45 45 45 44
34 35 35 34 34 34 35 35 37 40 44 46 46 46 47 48 49 51 52 51 51 51 50 49 48 44 42 41 41 41 41 41 42 43 44 44 44 45 46 44 44 43 43
33 34 34 34 34 34 35 36 37 38 39 42 45 46 47 46 47 48 49 50 49 49 48 47 45 42 42 41 41 42 42 42 41 43 42 43 42 42 43 42 43 42 42
32 33 34 34 34 35 36 37 37 37 39 39 40 44 46 46 46 46 46 47 47 45 44 42 43 43 40 43 44 43 42 42 41 41 41 41 40 40 41 40 38 40 40
28 28 29 31 33 35 36 36 37 38 38 39 39 40 43 45 46 45 45 45 44 44 43 42 42 42 41 43 44 44 42 42 42 42 41 39 38 39 38 38 38 37 37
23 25 26 27 29 29 30 33 35 37 38 40 40 41 41 43 46 45 45 45 44 43 43 42 42 42 41 43 43 43 42 42 42 41 40 38 37 37 37 34 33 31 32
26 27 29 29 30 30 31 32 32 33 35 37 39 41 42 42 43 46 45 45 44 44 43 43 42 42 41 44 44 42 41 41 40 39 38 37 35 36 35 31 29 27 30
29 30 32 32 32 32 33 33 33 33 34 35 37 40 42 42 43 44 45 45 44 43 44 42 42 42 41 43 44 42 39 38 37 36 35 35 32 35 35 28 27 26 29
29 30 30 30 32 32 33 35 37 37 37 38 40 40 42 42 43 44 45 45 44 43 42 41 41 40 40 41 43 43 39 37 36 33 32 32 32 32 34 31 26 25 30
29 30 31 31 32 33 35 37 37 39 40 39 39 39 41 42 42 44 45 44 42 41 40 39 39 39 39 41 43 43 41 39 35 34 32 32 36 31 32 34 26 26 28
31 32 32 32 33 34 36 37 36 36 37 38 37 38 37 40 41 43 44 43 41 40 38 38 37 37 38 38 42 43 41 39 35 34 35 36 36 34 33 34 29 28 26
30 30 30 29 30 34 34 34 37 38 38 38 38 37 37 39 40 42 43 42 40 38 37 37 37 37 37 37 39 39 41 39 37 32 32 31 32 35 33 33 29 27 27
30 30 30 29 30 32 32 35 37 37 36 38 39 39 39 40 41 42 41 41 40 39 38 38 38 37 36 37 39 39 39 37 32 27 28 27 28 30 31 31 31 29 28
29 29 29 29 29 31 31 32 33 35 35 37 40 40 40 41 42 42 41 42 42 41 41 41 40 38 39 40 40 40 40 37 33 26 24 24 25 26 29 29 29 29 29

GFSMW_sfc_dewp_108.txt.gz
Dewpoint
48 54 59 59 61 61 61 62 62 62 61 61 62 62 61 60 60 61 62 64 64 64 63 63 63 63 60 60 59 58 57 57 58 58 58 57 57 57 55 55 55 56 57
49 56 57 58 57 59 61 61 61 60 60 61 63 64 64 63 63 63 62 62 62 64 64 63 64 64 64 62 60 57 58 59 60 58 58 54 53 55 53 54 54 55 56
52 54 55 56 57 57 60 61 61 61 62 62 62 62 64 64 64 64 63 63 63 64 64 64 65 64 64 63 63 63 62 59 61 61 58 52 50 52 55 54 54 53 55
54 53 54 55 57 57 59 61 61 61 62 62 61 60 60 59 61 62 63 64 64 64 64 64 64 63 63 62 61 62 62 62 61 61 61 59 58 52 49 54 54 53 53
54 54 55 56 57 58 59 61 61 61 61 61 61 60 60 60 61 62 62 62 63 64 63 63 63 62 62 60 60 60 60 60 59 60 58 55 55 56 55 52 51 53 53
55 55 56 56 57 58 58 58 58 60 61 60 61 60 60 59 60 60 61 61 62 62 63 63 63 62 60 60 59 59 59 59 58 58 58 55 52 52 52 51 49 50 52
52 54 54 55 56 57 57 59 59 59 60 60 59 60 60 61 60 60 60 60 60 60 61 62 62 62 61 59 59 58 58 58 58 56 55 54 52 53 52 50 49 48 51
50 49 48 47 47 52 57 58 59 59 59 59 59 60 60 60 60 60 61 60 60 60 60 61 61 60 60 58 58 58 58 56 55 54 53 53 53 53 52 51 50 48 48
44 41 42 43 43 43 44 48 51 53 56 58 58 59 59 59 60 60 61 61 61 61 59 59 59 58 58 57 56 56 53 53 53 52 52 51 52 52 53 52 52 49 45
36 37 39 42 45 46 46 45 44 43 45 48 54 58 60 61 61 60 60 60 60 59 59 59 59 58 56 55 53 52 51 50 51 51 51 51 51 51 51 52 51 51 49
34 35 37 39 40 42 46 46 46 47 47 50 52 53 55 57 59 60 60 60 58 58 57 57 56 54 52 51 52 51 50 50 49 49 49 49 49 49 50 49 49 49 48
34 34 35 35 37 38 40 43 45 46 47 48 49 50 51 53 54 56 58 58 57 57 56 55 54 53 52 51 50 47 47 46 46 46 46 46 47 47 47 47 46 46 46
35 35 35 34 34 35 36 37 40 43 46 46 46 47 48 49 50 53 54 55 56 55 54 54 53 52 51 49 47 45 44 44 44 44 44 45 45 46 46 45 44 45 45
33 34 34 34 34 35 35 37 37 38 40 43 45 46 46 47 48 51 52 52 53 53 53 52 52 50 47 46 46 42 42 42 42 43 44 44 45 45 45 44 43 43 43
31 32 33 34 34 35 36 37 37 38 39 39 40 44 46 46 46 48 50 51 50 51 50 50 49 47 46 46 44 42 42 41 42 43 43 44 43 44 45 43 43 42 42
26 27 27 28 29 31 32 34 36 37 39 38 39 40 42 46 46 46 47 48 48 48 48 48 47 45 45 48 47 43 41 42 41 42 41 40 41 42 43 42 42 42 40
22 23 24 25 27 28 29 30 31 32 35 37 39 40 41 41 45 45 45 45 46 45 46 45 44 44 44 47 47 45 42 42 41 41 40 39 40 40 39 40 39 39 39
23 25 27 28 29 30 30 31 32 32 33 34 35 38 41 42 42 45 45 45 44 44 43 43 42 42 42 46 46 45 41 41 41 40 39 38 37 38 37 36 33 33 33
28 29 31 32 32 32 33 34 34 35 35 35 35 36 37 40 41 42 44 43 43 42 42 42 42 42 41 44 44 43 41 40 40 40 39 37 36 39 39 33 29 27 29
29 30 30 31 31 31 32 32 33 33 34 36 38 38 38 39 39 41 42 43 43 43 42 41 41 42 41 44 44 42 40 39 39 39 37 39 36 39 39 30 28 26 28
29 30 31 31 31 32 33 34 35 35 36 38 38 38 37 37 38 40 42 43 43 43 42 42 41 41 41 42 44 43 39 38 37 36 34 35 37 38 38 33 27 26 30
31 32 31 31 31 31 31 32 34 35 35 36 38 38 37 36 37 39 41 42 44 42 41 41 41 41 40 43 44 43 41 40 36 34 33 33 37 36 38 33 30 30 33
30 31 30 30 30 31 32 31 33 33 34 35 35 36 38 39 38 37 37 39 42 43 42 41 40 40 40 41 44 44 43 41 36 34 34 35 37 35 34 35 30 30 27
29 30 30 29 29 29 29 30 31 31 33 32 34 36 39 39 39 38 40 40 42 41 41 40 39 39 39 39 41 42 42 40 36 37 37 35 37 34 33 34 29 26 25
28 28 29 28 28 28 28 29 30 29 29 30 31 34 38 39 40 40 40 40 42 42 41 40 40 38 37 38 41 42 40 38 35 33 32 32 32 32 31 30 27 26 26
27 27 29 28 28 28 28 29 29 29 29 30 32 33 35 38 39 41 41 43 43 43 43 43 40 39 40 40 42 42 42 40 36 29 28 28 29 31 30 30 28 27 28

GFSMW_sfc_dewp_111.txt.gz
Dewpoint
45 51 56 57 58 59 60 61 62 60 62 63 63 63 61 62 63 63 62 63 63 62 62 62 62 62 60 59 58 58 57 57 57 58 57 57 56 57 55 55 56 57 58
46 53 56 55 56 59 61 61 61 60 60 62 63 63 62 62 62 63 64 63 64 64 62 63 63 63 62 60 59 58 58 58 58 57 58 55 54 55 54 55 55 56 57
45 53 55 55 55 57 59 61 61 59 60 61 62 62 63 63 62 62 62 62 64 65 64 64 64 64 64 62 62 62 61 59 61 61 58 54 51 53 54 54 54 54 56
51 54 54 54 55 57 58 60 61 60 61 61 61 60 59 59 60 61 63 63 63 62 63 63 64 63 62 62 62 62 62 61 60 60 61 60 58 51 52 54 54 54 54
51 53 54 56 57 58 58 59 61 61 61 61 60 59 59 60 60 60 60 61 62 63 63 63 63 62 62 61 60 60 60 60 60 59 57 57 57 57 54 52 52 53 53
53 54 55 56 57 57 58 59 60 60 60 61 60 59 59 59 59 59 59 61 61 61 62 62 62 62 61 60 60 59 59 60 59 59 57 55 54 52 52 50 49 51 52
53 53 54 55 56 56 57 58 58 59 60 60 60 60 59 60 59 59 59 60 60 60 60 61 62 61 61 60 59 59 59 59 59 58 58 56 55 55 52 51 50 48 51
49 49 50 51 50 55 57 57 58 58 59 59 59 60 60 60 60 60 59 60 60 60 60 61 61 62 61 60 59 59 59 59 59 57 56 55 54 53 53 52 51 48 49
44 45 45 44 44 44 48 54 55 55 57 59 59 59 59 59 59 60 60 60 60 61 60 61 61 61 61 60 60 59 59 58 57 56 54 53 53 53 53 53 51 48 45
41 41 41 42 45 46 46 45 43 45 46 50 57 58 58 59 59 59 60 60 60 61 61 60 60 60 60 59 58 58 57 56 54 54 53 51 51 52 52 52 51 50 48
34 35 37 38 39 41 44 46 47 48 49 50 52 53 54 56 59 59 59 59 60 59 60 59 59 59 58 57 56 55 53 53 52 52 51 50 51 51 51 51 51 50 49
35 34 34 35 36 36 38 41 43 45 46 47 47 48 50 51 53 54 58 59 58 57 57 57 56 56 55 54 54 53 52 52 50 50 49 49 49 49 49 48 47 47 47
34 34 34 34 35 36 37 37 38 39 41 43 45 46 46 47 48 51 54 55 56 56 56 55 55 54 54 52 52 51 49 49 48 47 47 47 47 47 46 46 46 45 45
31 31 31 33 33 34 35 35 37 38 39 39 40 41 44 46 46 48 51 53 53 53 54 54 54 53 53 52 50 48 48 48 47 46 46 46 46 46 45 45 44 44 43
26 26 26 27 28 29 29 30 32 34 37 37 39 40 40 43 46 46 47 50 51 51 52 53 53 52 50 48 48 47 47 46 45 44 44 44 45 45 46 44 43 42 41
22 24 25 26 27 28 29 30 31 32 34 34 36 38 40 40 41 44 46 46 48 48 48 51 51 49 48 48 48 46 45 44 42 42 43 42 44 45 47 46 45 43 41
23 25 26 28 29 30 30 31 32 33 33 34 34 35 36 38 40 42 44 45 45 46 46 48 48 48 47 47 48 47 44 43 43 42 41 40 40 42 41 44 43 43 44
27 28 30 31 31 32 32 32 33 34 35 35 36 37 37 37 38 39 41 43 43 44 44 46 46 46 45 47 48 47 44 44 43 42 41 40 39 39 39 38 35 36 37
29 30 30 30 30 30 32 32 32 32 33 33 34 36 37 37 38 39 40 40 42 43 43 43 44 43 44 45 46 46 42 41 41 41 40 39 39 41 41 36 33 31 31
29 29 30 30 31 32 32 31 31 33 33 34 36 35 35 36 36 36 36 38 40 41 43 43 42 43 42 44 46 46 42 41 40 40 39 41 38 42 41 34 31 28 29
29 31 32 31 32 31 31 31 31 32 34 34 34 35 35 36 35 37 38 37 38 40 41 43 43 42 42 42 45 45 41 40 40 39 38 39 40 42 41 36 29 28 30
30 31 30 30 31 31 31 30 30 32 33 33 34 34 33 33 35 36 38 39 37 38 40 41 42 42 42 43 44 45 43 42 39 39 38 39 41 41 41 36 33 32 33
29 31 30 30 30 31 30 28 28 29 30 30 30 30 31 31 33 36 37 38 38 37 37 40 42 42 42 41 44 45 44 43 39 38 38 39 40 40 40 37 34 33 30
28 29 29 29 28 29 28 28 28 28 28 27 27 28 30 31 33 34 37 39 39 38 39 40 41 41 41 41 42 43 43 42 40 38 37 38 38 37 37 36 32 30 29
27 28 27 29 28 28 28 28 28 28 28 27 27 27 29 30 31 32 35 36 39 41 39 40 41 41 40 40 42 43 43 41 39 36 35 35 35 33 32 33 28 26 28
27 27 27 28 28 28 28 28 28 28 28 27 27 27 27 30 31 31 33 36 39 40 43 43 42 41 42 42 42 43 43 43 41 36 34 34 34 32 31 31 27 26 27

GFSMW_sfc_dewp_114.txt.gz
Dewpoint
32 45 54 56 57 57 58 59 60 61 61 61 61 61 62 60 61 60 60 59 59 58 59 59 59 59 58 58 58 57 57 57 56 56 56 57 56 57 56 56 57 58 59
41 48 53 54 55 57 58 59 60 60 60 61 63 62 61 61 61 60 60 60 60 60 59 60 61 61 61 59 58 58 58 57 58 57 57 55 55 55 54 55 56 57 58
42 50 53 53 56 56 59 60 61 60 60 61 63 63 62 62 62 62 61 62 62 62 61 62 63 63 62 61 60 60 59 58 59 60 58 54 52 53 54 54 55 56 56
43 51 52 54 55 54 56 58 59 59 60 61 61 61 60 59 60 60 61 62 64 63 63 63 63 63 63 61 61 62 61 61 58 59 60 58 57 52 52 54 54 55 55
48 50 53 54 54 56 56 59 60 59 59 61 61 60 59 60 61 61 60 61 61 62 62 62 62 62 62 62 61 61 60 61 60 59 58 58 58 56 54 52 54 54 54
49 51 54 55 55 55 57 58 59 59 60 60 60 60 59 59 59 58 59 60 60 61 61 62 62 61 61 61 60 60 60 60 59 59 57 56 56 54 54 50 49 52 52
50 53 53 54 55 56 56 58 59 59 59 60 60 59 59 58 58 59 58 58 58 59 60 61 60 61 61 61 60 60 59 59 59 59 59 57 56 55 55 53 51 49 51
48 49 49 49 50 54 55 57 57 58 59 59 59 60 60 59 59 59 59 59 58 59 59 61 61 61 61 60 60 60 60 60 59 58 58 58 57 55 54 54 53 50 51
46 47 48 48 47 46 48 52 54 56 57 58 59 59 59 59 59 59 59 59 59 59 60 60 60 60 61 61 60 60 60 59 59 59 58 57 57 55 54 53 53 51 48
43 42 42 43 43 44 46 47 47 48 50 52 55 59 59 59 59 59 59 60 60 60 60 60 60 60 60 60 60 60 60 59 59 59 57 56 55 55 53 53 51 49 47
38 37 35 36 37 38 39 41 44 45 46 47 48 49 53 56 58 59 60 60 60 60 60 59 59 60 60 60 60 59 59 58 58 56 56 55 53 52 52 51 51 50 48
34 34 34 35 35 35 35 36 37 38 40 42 44 45 46 47 49 51 53 56 58 58 59 59 59 59 59 59 58 58 57 55 55 54 54 53 52 51 52 51 50 49 48
30 29 30 30 30 30 30 31 33 34 35 37 39 40 41 44 45 47 48 52 55 55 55 57 57 57 57 56 56 56 55 54 54 54 52 52 51 50 49 47 47 46 46
25 26 26 27 28 29 30 30 31 32 34 34 35 36 38 40 42 45 46 48 51 52 53 54 55 55 55 54 54 53 53 52 52 51 51 50 50 48 47 46 45 44 44
23 24 25 27 28 29 30 31 32 33 34 34 35 35 36 37 38 39 42 44 47 49 50 51 53 54 54 53 53 52 50 51 50 49 48 48 47 47 47 46 44 43 42
23 26 28 29 30 31 31 32 33 34 34 34 35 35 36 37 37 38 39 41 43 44 46 47 50 52 52 51 50 51 50 49 49 47 46 46 46 46 48 47 46 45 43
26 28 29 30 30 31 32 32 32 34 34 35 35 36 37 37 37 37 38 39 40 41 43 44 46 48 50 50 50 49 49 48 47 46 44 43 43 45 45 47 46 46 45
28 28 29 30 30 31 31 32 32 32 33 34 34 36 36 35 36 37 38 38 38 39 39 41 43 45 47 48 48 48 48 45 45 45 45 43 42 42 43 43 42 41 42
28 29 29 30 31 32 31 30 30 31 32 32 34 33 33 34 33 33 34 35 36 37 37 39 40 42 43 46 47 47 47 44 44 45 44 43 42 43 44 40 38 37 35
29 30 31 31 30 31 30 30 30 30 31 31 32 32 33 33 32 33 33 35 37 37 37 37 39 41 42 44 46 46 46 44 43 43 43 44 42 43 44 39 37 35 33
29 32 31 30 30 30 30 30 30 30 30 31 31 32 32 31 31 32 32 33 35 37 38 38 38 39 42 42 45 46 45 43 42 41 41 42 43 43 43 40 35 36 31
29 30 30 30 30 30 31 29 29 30 29 30 31 30 30 29 29 30 31 32 34 35 36 37 37 38 41 43 44 45 46 44 41 41 41 42 44 44 43 41 37 36 33
28 30 30 29 30 30 31 28 29 29 27 27 29 28 28 27 28 30 30 29 30 33 35 38 38 38 40 41 44 45 45 45 42 41 41 42 43 43 43 40 37 36 30
27 27 28 28 28 29 29 29 29 29 28 26 26 27 28 28 29 29 29 29 29 30 32 34 37 37 39 41 41 42 44 45 43 42 41 41 42 42 41 39 37 32 30
26 27 27 27 28 28 28 28 28 28 28 27 27 27 28 28 27 27 29 30 30 32 33 35 36 37 39 41 42 42 42 43 42 39 38 39 38 37 37 36 33 31 30
27 27 27 27 28 28 28 28 29 28 27 25 26 26 27 27 28 28 28 32 33 35 37 37 38 37 41 42 43 42 43 44 43 37 36 36 36 35 35 35 29 29 30

GFSMW_sfc_dewp_117.txt.gz
Dewpoint
31 35 39 46 55 56 56 56 58 59 60 60 60 60 60 60 60 61 62 63 62 63 63 61 61 60 60 59 58 57 57 57 57 55 55 57 57 57 57 56 57 57 59
35 36 44 54 54 54 55 56 58 59 60 61 61 61 61 62 61 61 63 63 63 63 63 61 60 60 60 59 58 57 57 57 57 56 56 54 55 55 55 56 57 57 59
37 39 50 53 53 53 54 58 59 59 59 60 61 61 62 61 61 61 62 61 62 62 62 62 61 60 60 59 59 59 58 57 58 58 57 53 52 53 54 54 56 56 57
39 43 50 51 52 53 54 56 59 60 59 58 60 58 61 59 60 61 61 62 63 62 62 62 61 61 61 61 60 60 59 59 58 59 59 57 54 52 51 54 54 56 55
40 44 50 51 53 54 54 55 58 58 58 58 60 59 60 60 61 61 61 61 62 62 62 62 62 62 62 61 61 60 60 60 59 58 59 58 58 56 52 50 52 54 55
43 48 50 52 54 55 56 57 56 58 57 59 59 58 59 59 59 59 59 59 60 60 61 61 61 61 61 61 60 60 60 60 59 59 58 57 57 56 55 50 50 52 53
49 49 49 50 51 52 52 53 57 57 58 60 59 59 59 59 59 59 59 58 58 58 59 61 60 60 60 60 60 60 59 59 59 59 59 59 58 56 55 53 50 51 51
49 49 49 49 49 50 50 50 58 58 59 59 59 59 59 59 59 59 58 58 58 59 59 59 59 60 60 60 60 60 60 60 59 59 59 59 58 56 55 54 52 50 51
46 46 45 46 46 47 48 49 51 52 54 55 57 59 59 59 59 59 59 59 59 59 59 59 59 59 59 60 60 60 60 60 60 59 59 59 59 58 57 56 55 53 49
42 41 40 39 37 38 39 40 41 43 46 49 51 55 59 59 59 59 59 59 59 59 59 59 59 59 59 59 60 60 60 60 59 59 59 59 59 58 57 56 55 55 52
35 34 32 31 30 30 32 33 34 34 37 39 41 43 46 49 52 56 57 59 59 59 59 59 59 59 59 59 59 59 59 59 59 59 59 58 58 57 57 56 54 52 51
29 28 28 28 29 29 30 31 32 33 34 35 37 38 39 41 42 45 47 50 53 56 59 59 59 59 59 59 59 58 59 59 58 58 58 57 56 55 56 54 53 52 50
25 26 27 28 29 30 31 32 33 33 34 34 35 35 36 37 38 40 42 44 47 50 53 56 56 57 58 58 58 59 58 58 58 57 57 56 56 54 53 53 52 51 49
24 26 27 29 30 31 31 31 32 33 34 34 35 35 35 36 37 38 39 40 42 44 46 49 52 54 55 56 56 55 55 56 55 55 55 55 54 54 52 51 50 49 48
24 26 28 29 30 30 31 32 32 33 34 34 35 35 36 37 37 37 37 38 39 40 42 44 46 49 51 52 54 54 53 53 53 53 53 53 52 50 51 50 48 47 46
25 27 29 29 30 30 31 32 32 32 33 33 34 35 36 36 35 35 36 37 38 39 39 40 42 44 46 49 50 52 53 52 51 51 50 50 49 49 50 49 48 47 45
27 28 29 29 30 31 31 31 32 32 32 33 34 35 35 34 34 34 34 35 36 36 37 38 39 39 41 45 48 50 50 51 50 49 49 47 47 48 48 49 48 47 47
27 28 29 29 30 31 31 32 32 31 32 33 33 33 33 33 32 32 33 33 33 33 34 36 37 38 39 42 45 47 47 48 48 48 47 47 46 47 47 47 44 44 45
28 29 29 30 30 31 30 30 30 30 31 30 30 31 32 32 31 32 31 32 32 34 34 34 36 37 37 41 43 44 45 47 46 46 46 46 45 45 47 44 42 40 40
29 29 31 31 29 29 30 29 29 29 29 29 29 30 31 30 29 29 29 31 31 32 32 33 35 36 38 40 41 42 43 42 45 45 45 45 45 45 46 43 42 39 38
29 30 29 28 29 29 29 29 28 28 29 28 28 28 29 29 28 29 29 29 29 29 31 31 34 35 38 38 41 42 42 42 44 44 43 44 45 45 46 44 41 41 37
28 29 29 28 29 29 29 29 29 29 29 28 28 27 27 27 27 28 28 29 28 28 27 28 31 34 37 40 41 42 44 44 43 43 43 43 44 44 45 43 42 41 39
27 29 28 28 29 29 29 29 29 29 29 29 28 27 26 26 26 27 26 26 26 26 27 27 28 31 33 35 41 43 44 44 44 43 43 43 43 43 44 43 42 41 34
26 26 27 27 27 28 28 28 29 29 28 27 27 25 25 26 26 26 26 26 27 28 28 28 28 30 32 33 35 40 42 44 44 44 43 42 42 44 43 41 40 35 33
26 26 27 27 27 27 27 28 28 28 27 27 26 26 26 26 26 26 27 27 28 29 29 32 33 33 33 34 35 37 39 42 42 43 39 39 39 39 39 37 37 33 32
26 27 27 27 27 27 27 28 28 28 27 26 26 26 27 28 27 27 26 29 30 31 32 34 33 35 37 38 39 39 39 42 44 39 37 37 38 38 37 35 34 33 33